[[{"header":{"parameterUnit":"m.s-1","parameterCategory":1,"la1":30.6,"la2":28.766,"lo1":-90.7593,"lo2":-88.6598,"dy":0.0162,"dx":0.0183,"nx":116,"ny":114,"refTime":"2024-04-05T00:00:00:Z","depth":0,"parameterNumber":2,"parameterNumberName":"U-component_of_WINDS"},"data":[0.0,0.0,0.0,0.0,0.0,0.0,0.0,0.0,0.0,0.0,0.0,0.0,0.0,0.0,0.0,0.0,0.0,0.0,0.0,0.0,0.0,0.0,0.0,0.0,0.0,0.0,0.0,0.0,0.0,0.0,0.0,0.0,0.0,0.0,0.0,0.0,0.0,0.0,0.0,0.0,0.0,0.0,0.0,0.0,0.0,0.0,0.0,0.0,0.0,0.0,0.0,0.0,0.0,0.0,0.0,0.0,0.0,0.0,0.0,0.0,0.0,0.0,0.0,0.0,0.0,0.0,0.0,0.0,0.0,0.0,0.0,0.0,0.0,0.0,0.0,0.0,0.0,0.0,0.0,0.0,0.0,0.0,0.0,0.0,0.0,0.0,0.0,0.0,0.0,0.0,0.0,0.0,0.0,0.0,0.0,0.0,0.0,0.0,0.0,0.0,0.0,0.0,0.0,0.0,0.0,0.0,0.0,0.0,0.0,0.0,0.0,0.0,0.0,0.0,0.0,0.0,0.0,0.0,0.0,0.0,0.0,0.0,0.0,0.0,0.0,0.0,0.0,0.0,0.0,0.0,0.0,0.0,0.0,0.0,0.0,0.0,0.0,0.0,0.0,0.0,0.0,0.0,0.0,0.0,0.0,0.0,0.0,0.0,0.0,0.0,0.0,0.0,0.0,0.0,0.0,0.0,0.0,0.0,0.0,0.0,0.0,0.0,0.0,0.0,0.0,0.0,0.0,0.0,0.0,0.0,0.0,0.0,0.0,0.0,0.0,0.0,0.0,0.0,0.0,0.0,0.0,0.0,0.0,0.0,0.0,0.0,0.0,0.0,0.0,0.0,0.0,0.0,0.0,0.0,0.0,0.0,0.0,0.0,0.0,0.0,0.0,0.0,0.0,0.0,0.0,0.0,0.0,0.0,0.0,0.0,0.0,0.0,0.0,0.0,0.0,0.0,0.0,0.0,0.0,0.0,0.0,0.0,0.0,0.0,0.0,0.0,0.0,0.0,0.0,0.0,0.0,0.0,0.0,0.0,0.0,0.0,0.0,0.0,0.0,0.0,0.0,0.0,0.0,0.0,0.0,0.0,0.0,0.0,0.0,0.0,0.0,0.0,0.0,0.0,0.0,0.0,0.0,0.0,0.0,0.0,0.0,0.0,0.0,0.0,0.0,0.0,0.0,0.0,0.0,0.0,0.0,0.0,0.0,0.0,0.0,0.0,0.0,0.0,0.0,0.0,0.0,0.0,0.0,0.0,0.0,0.0,0.0,0.0,0.0,0.0,0.0,0.0,0.0,0.0,0.0,0.0,0.0,0.0,0.0,0.0,0.0,0.0,0.0,0.0,0.0,0.0,0.0,0.0,0.0,0.0,0.0,0.0,0.0,0.0,0.0,0.0,0.0,0.0,0.0,0.0,0.0,0.0,0.0,0.0,0.0,0.0,0.0,0.0,0.0,0.0,0.0,0.0,0.0,0.0,0.0,0.0,0.0,0.0,0.0,0.0,0.0,0.0,0.0,0.0,0.0,0.0,0.0,0.0,0.0,0.0,0.0,0.0,0.0,0.0,0.0,0.0,0.0,0.0,0.0,0.0,0.0,0.0,0.0,0.0,0.0,0.0,0.0,0.0,0.0,0.0,0.0,0.0,0.0,0.0,0.0,0.0,0.0,0.0,0.0,0.0,0.0,0.0,0.0,0.0,0.0,0.0,0.0,0.0,0.0,0.0,0.0,0.0,0.0,0.0,0.0,0.0,0.0,0.0,0.0,0.0,0.0,0.0,0.0,0.0,0.0,0.0,0.0,0.0,0.0,0.0,0.0,0.0,0.0,0.0,0.0,0.0,0.0,0.0,0.0,0.0,0.0,0.0,0.0,0.0,0.0,0.0,0.0,0.0,0.0,0.0,0.0,0.0,0.0,0.0,0.0,0.0,0.0,0.0,0.0,0.0,0.0,0.0,0.0,0.0,0.0,0.0,0.0,0.0,0.0,0.0,0.0,0.0,0.0,0.0,0.0,0.0,0.0,0.0,0.0,0.0,0.0,0.0,0.0,0.0,0.0,0.0,0.0,0.0,0.0,0.0,0.0,0.0,0.0,0.0,0.0,0.0,0.0,0.0,0.0,0.0,0.0,0.0,0.0,0.0,0.0,0.0,0.0,0.0,0.0,0.0,0.0,0.0,0.0,0.0,0.0,0.0,0.0,0.0,0.0,0.0,0.0,0.0,0.0,0.0,0.0,0.0,0.0,0.0,0.0,0.0,0.0,0.0,0.0,0.0,0.0,0.0,0.0,0.0,0.0,0.0,0.0,0.0,0.0,0.0,0.0,0.0,0.0,0.0,0.0,0.0,0.0,0.0,0.0,0.0,0.0,0.0,0.0,0.0,0.0,0.0,0.0,0.0,0.0,0.0,0.0,0.0,0.0,0.0,0.0,0.0,0.0,0.0,0.0,0.0,0.0,0.0,0.0,0.0,0.0,0.0,0.0,0.0,0.0,0.0,0.0,0.0,0.0,0.0,0.0,0.0,0.0,0.0,0.0,0.0,0.0,0.0,0.0,0.0,0.0,0.0,0.0,0.0,0.0,0.0,0.0,0.0,0.0,0.0,0.0,0.0,0.0,0.0,0.0,0.0,0.0,0.0,0.0,0.0,0.0,0.0,0.0,0.0,0.0,0.0,0.0,0.0,0.0,0.0,0.0,0.0,0.0,0.0,0.0,0.0,0.0,0.0,0.0,0.0,0.0,0.0,0.0,0.0,0.0,0.0,0.0,0.0,0.0,0.0,0.0,0.0,0.0,0.0,0.0,0.0,0.0,0.0,0.0,0.0,0.0,0.0,0.0,0.0,0.0,0.0,0.0,0.0,0.0,0.0,0.0,0.0,0.0,0.0,0.0,0.0,0.0,0.0,0.0,0.0,0.0,0.0,0.0,0.0,0.0,0.0,0.0,0.0,0.0,0.0,0.0,0.0,0.0,0.0,0.0,0.0,0.0,0.0,0.0,0.0,0.0,0.0,0.0,0.0,0.0,0.0,0.0,0.0,0.0,0.0,0.0,0.0,0.0,0.0,0.0,0.0,0.0,0.0,0.0,0.0,0.0,0.0,0.0,0.0,0.0,0.0,0.0,0.0,0.0,0.0,0.0,0.0,0.0,0.0,0.0,0.0,0.0,0.0,0.0,0.0,0.0,0.0,0.0,0.0,0.0,0.0,0.0,0.0,0.0,0.0,0.0,0.0,0.0,0.0,0.0,0.0,0.0,0.0,0.0,0.0,0.0,0.0,0.0,0.0,0.0,0.0,0.0,0.0,0.0,0.0,0.0,0.0,0.0,0.0,0.0,0.0,0.0,0.0,0.0,0.0,0.0,0.0,0.0,0.0,0.0,0.0,0.0,0.0,0.0,0.0,0.0,0.0,0.0,0.0,0.0,0.0,0.0,0.0,0.0,0.0,0.0,0.0,0.0,0.0,0.0,0.0,0.0,0.0,0.0,0.0,0.0,0.0,0.0,0.0,0.0,0.0,0.0,0.0,0.0,0.0,0.0,0.0,0.0,0.0,0.0,0.0,0.0,0.0,0.0,0.0,0.0,0.0,0.0,0.0,0.0,0.0,0.0,0.0,0.0,0.0,0.0,0.0,0.0,0.0,0.0,0.0,0.0,0.0,0.0,0.0,0.0,0.0,0.0,0.0,0.0,0.0,0.0,0.0,0.0,0.0,0.0,0.0,0.0,0.0,0.0,0.0,0.0,0.0,0.0,0.0,0.0,0.0,0.0,0.0,0.0,0.0,0.0,0.0,0.0,0.0,0.0,0.0,0.0,0.0,0.0,0.0,0.0,0.0,0.0,0.0,0.0,0.0,0.0,0.0,0.0,0.0,0.0,0.0,0.0,0.0,0.0,0.0,0.0,0.0,0.0,0.0,0.0,0.0,0.0,0.0,0.0,0.0,0.0,0.0,0.0,0.0,0.0,0.0,0.0,0.0,0.0,0.0,0.0,0.0,0.0,0.0,0.0,0.0,0.0,0.0,0.0,0.0,0.0,0.0,0.0,0.0,0.0,0.0,0.0,0.0,0.0,0.0,0.0,0.0,0.0,0.0,0.0,0.0,0.0,0.0,0.0,0.0,0.0,0.0,0.0,0.0,0.0,0.0,0.0,0.0,0.0,0.0,0.0,0.0,0.0,0.0,0.0,0.0,0.0,0.0,0.0,0.0,0.0,0.0,0.0,0.0,0.0,0.0,0.0,0.0,0.0,0.0,0.0,0.0,0.0,0.0,0.0,0.0,0.0,0.0,0.0,0.0,0.0,0.0,0.0,0.0,0.0,0.0,0.0,0.0,0.0,0.0,0.0,0.0,0.0,0.0,0.0,0.0,0.0,0.0,0.0,0.0,0.0,0.0,0.0,0.0,0.0,0.0,0.0,0.0,0.0,0.0,0.0,0.0,0.0,0.0,0.0,0.0,0.0,0.0,0.0,0.0,0.0,0.0,0.0,0.0,0.0,0.0,0.0,0.0,0.0,0.0,0.0,0.0,0.0,0.0,0.0,0.0,0.0,0.0,0.0,0.0,0.0,0.0,0.0,0.0,0.0,0.0,0.0,0.0,0.0,0.0,0.0,0.0,0.0,0.0,0.0,0.0,0.0,0.0,0.0,0.0,0.0,0.0,0.0,0.0,0.0,0.0,0.0,0.0,0.0,0.0,0.0,0.0,0.0,0.0,0.0,0.0,0.0,0.0,0.0,0.0,0.0,0.0,0.0,0.0,0.0,0.0,0.0,0.0,0.0,0.0,0.0,0.0,0.0,0.0,0.0,0.0,0.0,0.0,0.0,0.0,0.0,0.0,0.0,0.0,0.0,0.0,0.0,0.0,0.0,0.0,0.0,0.0,0.0,0.0,0.0,0.0,0.0,0.0,0.0,0.0,0.0,0.0,0.0,0.0,0.0,0.0,0.0,0.0,0.0,0.0,0.0,0.0,0.0,0.0,0.0,0.0,0.0,0.0,0.0,0.0,0.0,0.0,0.0,0.0,0.0,0.0,0.0,0.0,0.0,0.0,0.0,0.0,0.0,0.0,0.0,0.0,0.0,0.0,0.0,0.0,0.0,0.0,0.0,0.0,0.0,0.0,0.0,0.0,0.0,0.0,0.0,0.0,0.0,0.0,0.0,0.0,0.0,0.0,0.0,0.0,0.0,0.0,0.0,0.0,0.0,0.0,0.0,0.0,0.0,0.0,0.0,0.0,0.0,0.0,0.0,0.0,0.0,0.0,0.0,0.0,0.0,0.0,0.0,0.0,0.0,0.0,0.0,0.0,0.0,0.0,0.0,0.0,0.0,0.0,0.0,0.0,0.0,0.0,0.0,0.0,0.0,0.0,0.0,0.0,0.0,0.0,0.0,0.0,0.0,0.0,0.0,0.0,0.0,0.0,0.0,0.0,0.0,0.0,0.0,0.0,0.0,0.0,0.0,0.0,0.0,0.0,0.0,0.0,0.0,0.0,0.0,0.0,0.0,0.0,0.0,0.0,0.0,0.0,0.0,0.0,0.0,0.0,0.0,0.0,0.0,0.0,0.0,0.0,0.0,0.0,0.0,0.0,0.0,0.0,0.0,0.0,0.0,0.0,0.0,0.0,0.0,0.0,0.0,0.0,0.0,0.0,0.0,0.0,0.0,0.0,0.0,0.0,0.0,0.0,0.0,0.0,0.0,0.0,0.0,0.0,0.0,0.0,0.0,0.0,0.0,0.0,0.0,0.0,0.0,0.0,0.0,0.0,0.0,0.0,0.0,0.0,0.0,0.0,0.0,0.0,0.0,0.0,0.0,0.0,0.0,0.0,0.0,0.0,0.0,0.0,0.0,0.0,0.0,0.0,0.0,0.0,0.0,0.0,0.0,0.0,0.0,0.0,0.0,0.0,0.0,0.0,0.0,0.0,0.0,0.0,0.0,0.0,0.0,0.0,0.0,0.0,0.0,0.0,0.0,0.0,0.0,0.0,0.0,0.0,0.0,0.0,0.0,0.0,0.0,0.0,0.0,0.0,0.0,0.0,0.0,0.0,0.0,0.0,0.0,0.0,0.0,0.0,0.0,0.0,0.0,0.0,0.0,0.0,0.0,0.0,0.4759,0.0,0.0,0.0,0.0,0.0,0.0,0.0,0.0,0.0,0.0,0.0,0.0,0.0,0.0,0.0,0.0,0.0,0.0,0.0,0.0,0.0,0.0,0.0,0.0,-1.2139,-1.1463,-1.1219,-1.0657,-1.0394,-1.0618,0.0,0.0,0.0,0.0,0.0,-1.0114,-1.0247,-1.0541,-1.0995,-1.0701,-1.0621,-1.0626,-1.0734,-1.0893,-1.0988,0.0,0.0,0.0,0.0,0.0,0.0,0.0,0.0,0.0,0.0,0.0,0.0,0.0,0.0,0.0,0.0,0.0,0.0,0.0,0.0,0.0,0.0,0.0,0.0,0.0,0.0,0.0,0.0,0.0,0.0,0.0,0.0,0.0,0.0,0.0,0.0,0.0,0.0,0.0,0.0,0.0,0.0,0.0,0.0,0.0,0.0,0.0,0.0,0.0,0.0,0.0,0.0,0.0,0.0,0.0,0.0,0.0,0.0,0.0,0.0,0.0,0.0,0.0,0.0,0.0,0.0,0.0,0.0,0.0,0.0,0.0,0.5047,0.0,0.0,0.0,0.0,0.0,0.0,0.0,0.0,0.0,0.0,0.0,0.0,0.0,0.0,0.0,0.0,0.0,0.0,0.0,0.0,0.0,-1.382,-1.3584,-1.2619,-1.1934,-1.174,-1.1094,-1.0725,-1.0715,-1.0488,0.0,0.0,-1.0341,-1.0314,-1.0274,-1.0795,-1.1049,-1.0995,-1.0862,-1.089,-1.1005,-1.1577,-1.174,-1.1552,-0.9777,0.0,0.0,0.0,0.0,0.0,0.0,0.0,0.0,0.0,0.0,0.0,0.0,0.0,0.0,0.0,0.0,0.0,0.0,0.0,0.0,0.0,0.0,0.0,0.0,0.0,0.0,0.0,0.0,0.0,0.0,0.0,0.0,0.0,0.0,0.0,0.0,0.0,0.0,0.0,0.0,0.0,0.0,0.0,0.0,0.0,0.0,0.0,0.0,0.0,0.0,0.0,0.0,0.0,0.0,0.0,0.0,0.0,0.0,0.0,0.0,0.0,0.0,0.0,0.6281,0.6383,0.6478,0.6716,0.6716,0.6565,0.6023,0.5569,0.5182,0.5596,0.0,0.0,0.0,0.0,0.0,0.0,0.0,0.0,0.0,0.0,0.0,0.0,0.0,0.0,0.0,0.0,0.0,0.0,0.0,-1.4743,-1.3543,-1.3096,-1.2445,-1.1532,-1.1142,-1.1049,-1.1289,-1.1276,-1.1249,-1.1249,-1.1249,-1.1129,-1.0889,-1.1196,-1.1249,-1.0995,-1.1463,-1.1971,-1.2518,-1.2313,0.0,-1.2662,-1.1058,-1.009,-0.9666,0.0,0.0,0.0,0.0,0.0,0.0,0.0,0.0,0.0,0.0,0.0,0.0,0.0,0.0,0.0,0.0,0.0,0.0,0.0,0.0,0.0,0.0,0.0,0.0,0.0,0.0,0.0,0.0,0.0,0.0,0.0,0.0,0.0,0.0,0.0,0.0,0.0,0.0,0.0,0.0,0.0,-0.0431,-0.0062,0.0,0.0,0.0,0.0,0.0,0.0,0.0,0.0,0.0,0.0,0.0,0.0,0.0,0.4877,0.5531,0.6001,0.628,0.628,0.6292,0.6329,0.6311,0.6798,0.7033,0.7012,0.6812,0.0,0.6057,0.5745,0.0,0.0,0.0,0.0,0.0,0.0,0.0,0.0,0.0,0.0,0.0,0.0,0.0,0.0,0.0,0.0,0.0,0.0,0.0,0.0,0.0,-1.3623,-1.3074,-1.26,-1.3023,-1.2852,-1.1971,-1.2545,-1.2478,-1.1463,-1.1423,-1.1369,-1.1236,-1.1356,-1.153,-1.173,-1.2826,-1.34,-1.352,0.0,0.0,0.0,-1.2976,-1.2152,-1.086,-0.8773,0.0,0.0,0.0,0.0,0.0,0.0,0.0,0.0,0.0,0.0,0.0,0.0,0.0,0.0,0.0,0.0,0.0,0.0,0.0,0.0,0.0,0.0,0.0,0.0,0.0,0.0,0.0,0.0,0.0,0.0,0.0,0.0,0.0,0.0,0.0,0.0,0.0,0.0,0.0,-0.0,0.0607,0.2333,0.2513,0.1862,0.0,0.0,0.0,0.0,0.0,0.0,0.0,0.0,0.0,0.6016,0.5687,0.5907,0.6831,0.7152,0.7231,0.7235,0.6942,0.6894,0.7297,0.7631,0.7801,0.7903,0.787,0.7597,0.721,0.6593,0.6356,0.6448,0.0,0.0,0.0,0.0,0.8077,0.7596,0.0,0.0,0.0,0.0,0.0,0.0,0.0,0.0,0.0,0.0,0.0,0.0,-1.4507,-1.4065,-1.3797,-1.3987,-1.4569,-1.4469,-1.328,-1.3614,-1.3307,-1.2051,-1.177,-1.161,-1.1543,-1.169,-1.2158,-1.2986,-1.4242,-1.4856,0.0,0.0,0.0,0.0,0.0,0.0,0.0,0.0,-0.8562,0.0,0.0,0.0,0.0,0.0,0.0,0.0,0.0,0.0,0.0,0.0,0.0,0.0,0.0,0.0,0.0,0.0,0.0,0.0,0.0,0.0,0.0,0.0,0.0,0.0,0.0,0.0,0.0,0.0,0.0,0.0,0.0,0.0,0.0,0.0,0.0,0.0,0.0,-0.0,0.0854,0.3104,0.3335,0.2498,0.0,0.0,0.0,0.0,0.0,0.0,0.6276,0.5705,0.5504,0.6052,0.63,0.6956,0.8012,0.8169,0.8241,0.8188,0.7792,0.7795,0.822,0.8327,0.8479,0.8486,0.8479,0.8357,0.8092,0.7346,0.6932,0.684,0.7658,0.807,0.8361,0.9752,0.9611,0.9024,0.0,0.0,0.0,0.0,0.0,0.0,0.0,0.0,0.0,0.0,0.0,-1.4196,-1.405,-1.4241,-1.4593,-1.5201,-1.5161,-1.5164,-1.5618,-1.4148,-1.3333,-1.3439,-1.2719,-1.2131,-1.185,-1.2472,-1.3467,-1.483,0.0,0.0,0.0,0.0,0.0,0.0,0.0,0.0,0.0,0.0,0.0,-0.9701,0.0,0.0,0.0,0.0,0.0,0.0,0.0,0.0,0.0,0.0,0.0,0.0,0.0,0.0,0.0,0.0,0.0,0.0,0.0,0.0,0.0,0.0,0.0,0.0,0.0,0.0,0.0,0.0,0.0,0.0,0.0,0.0,0.0,0.0,0.0,0.0,0.0,0.0,0.0,0.0209,0.0224,0.0,0.0,0.0,0.0,0.7859,0.714,0.6551,0.6331,0.7088,0.7258,0.6662,0.6899,0.7335,0.7991,0.8557,0.8855,0.8877,0.8779,0.8786,0.88,0.8696,0.8591,0.8591,0.8486,0.8472,0.8404,0.7658,0.7428,0.7502,0.7169,0.7265,0.7795,0.8819,0.9131,0.9329,0.0,0.0,0.0,0.0,0.0,0.0,0.0,-1.4811,-1.4657,-1.4692,-1.4163,-1.4016,-1.48,-1.5303,-1.5978,-1.6714,-1.7582,-1.7756,-1.7007,-1.6192,-1.5458,-1.4803,-1.3734,-1.32,-1.3293,-1.4055,-1.4897,-1.5805,0.0,0.0,0.0,0.0,0.0,0.0,0.0,0.0,0.0,0.0,0.0,-1.001,-0.8082,-0.7789,0.0,0.0,0.0,0.0,0.0,0.0,0.0,0.0,0.0,0.0,0.0,0.0,0.0,0.0,0.0,0.0,0.0,0.0,0.0,0.0,0.0,0.0,0.0,0.0,0.0,0.0,0.0,0.0,0.0,0.0,0.0,0.0,0.0,0.0,0.0,0.0,0.0,-0.0,-0.0,0.0,0.4826,0.6499,0.7439,0.7613,0.7222,0.7081,0.7217,0.7855,0.8167,0.7898,0.8106,0.8397,0.8554,0.8821,0.8897,0.8893,0.9099,0.914,0.914,0.903,0.9023,0.9023,0.8818,0.8832,0.8886,0.8526,0.8241,0.8103,0.8592,0.887,0.9316,1.1497,1.1772,1.1487,0.0,0.0,0.0,0.0,-1.4198,-1.4668,-1.4961,-1.4408,-1.4076,-1.424,-1.3813,-1.3957,-1.505,-1.6047,-1.7048,-1.8223,-1.9052,-1.9092,-1.8103,-1.7114,-1.6166,-1.5284,-1.4402,-1.4175,-1.4669,-1.5631,-1.6473,0.0,0.0,0.0,0.0,0.0,0.0,0.0,0.0,0.0,0.0,0.0,0.0,0.0,-0.8971,-0.8322,-0.8629,0.0,0.0,0.0,0.0,0.0,0.0,0.0,0.0,0.0,0.0,0.0,0.0,0.0,0.0,0.0,0.0,0.0,0.0,0.0,0.0,0.0,0.0,0.0,0.0,0.0,0.0,0.0,0.0,0.0,0.0,0.0,0.0,0.0,0.0,0.0,-0.0,-0.0,-0.0,0.2212,0.7802,0.8018,0.7942,0.7894,0.7664,0.7767,0.8174,0.8543,0.8829,0.8925,0.8872,0.8948,0.9051,0.9161,0.9078,0.8897,0.9277,0.9319,0.9157,0.9205,0.9232,0.9225,0.913,0.9144,0.9225,0.9123,0.8886,0.8659,0.922,0.9486,0.971,1.2699,1.3271,1.2913,0.0,0.0,0.0,-1.4648,-1.4394,-1.434,-1.5234,-1.4333,-1.3556,-1.3438,-1.35,-1.3944,-1.498,-1.6424,-1.7916,-1.9693,-1.9292,-1.8945,-1.8945,-1.6727,-1.5284,-1.5003,-1.4736,-1.5003,-1.5885,0.0,0.0,0.0,0.0,0.0,0.0,0.0,0.0,0.0,0.0,0.0,0.0,0.0,0.0,0.0,-1.1346,-0.9641,-0.8626,0.0,0.0,0.0,0.0,0.0,0.0,0.0,0.0,0.0,0.0,0.0,0.0,0.0,0.0,0.0,0.0,0.0,0.0,0.0,0.0,0.0,0.0,0.0,0.0,0.0,0.0,0.0,0.0,0.0,0.0,0.0,0.0,0.0,-0.0,-0.0,-0.0,-0.0,-0.0,0.2349,0.8307,0.8718,0.865,0.8911,0.864,0.8642,0.894,0.9083,0.9277,0.9511,0.9069,0.902,0.9258,0.962,0.9544,0.8924,0.9313,0.9428,0.9171,0.932,0.9388,0.9388,0.9381,0.9388,0.9388,0.9388,0.93,0.915,0.9001,0.8764,0.8948,1.2042,1.3123,1.3456,0.0,0.0,-1.3092,-1.2712,-1.3208,-1.3867,-1.4394,-1.3979,-1.379,-1.4267,-1.4474,-1.5083,-1.6621,-1.7825,-1.9065,-2.0615,-1.9826,-1.9332,-1.9546,-1.7141,-1.5671,0.0,0.0,0.0,0.0,0.0,0.0,0.0,0.0,0.0,0.0,0.0,0.0,0.0,0.0,0.0,0.0,0.0,0.0,0.0,-1.2798,-1.0886,-1.0355,0.0,0.0,0.0,0.0,0.0,0.0,0.0,0.0,0.0,0.0,0.0,0.0,0.0,0.0,0.0,0.0,0.0,0.0,0.0,0.0,0.0,0.0,0.0,0.0,0.0,0.0,0.0,0.0,0.0,0.0,0.0,-0.2361,-0.0,-0.0,-0.0,-0.0,-0.0,-0.0,0.2382,0.837,0.9005,0.9047,0.8865,0.9106,0.9171,0.9252,0.93,0.932,0.9313,0.9361,0.9381,0.9381,0.9497,0.9476,0.932,0.9476,0.9523,0.9483,0.953,0.9544,0.9544,0.9429,0.9442,0.9544,0.9544,0.9523,0.9456,0.9198,0.8981,0.9036,1.0958,1.237,1.3495,0.0,-1.185,-1.245,-1.252,-1.3068,-1.3711,-1.4316,-1.3661,-1.332,-1.4081,-1.453,-1.5303,-1.6672,-1.8088,-1.9319,-2.0294,-1.9533,-1.8865,-1.8531,-1.682,0.0,0.0,0.0,0.0,0.0,0.0,0.0,0.0,0.0,0.0,0.0,0.0,0.0,0.0,0.0,0.0,0.0,0.0,0.0,0.0,0.0,-1.4013,-1.2899,-1.1168,-1.0095,-0.9541,-0.9069,-0.8503,-0.7855,-0.7529,0.0,0.0,0.0,0.0,0.0,0.0,0.0,0.0,0.0,0.0,0.0,0.0,0.0,0.0,0.0,0.0,0.0,0.0,0.0,0.0,0.0,0.0,0.0,0.0,-0.279,-0.0,-0.0,-0.0,-0.0,-0.0,-0.0,0.2376,0.8569,0.9335,0.9314,0.9211,0.9381,0.9503,0.9564,0.9564,0.9564,0.9446,0.9564,0.9564,0.9564,0.9564,0.9655,0.96,0.9625,0.9666,0.9612,0.9673,0.97,0.9693,0.9605,0.9612,0.97,0.97,0.9659,0.0,0.0,0.0,0.0,0.0,1.1957,1.2995,0.0,-1.2197,-1.214,-1.3258,-1.3437,-1.373,-1.459,-1.3507,-1.2839,-1.3514,-1.4318,-1.5163,-1.5858,-1.7698,-1.8991,-1.9279,-1.8691,-1.7822,-1.6727,-1.6233,0.0,0.0,0.0,0.0,0.0,0.0,0.0,0.0,0.0,0.0,0.0,0.0,0.0,0.0,0.0,0.0,0.0,0.0,0.0,0.0,0.0,-1.7873,-1.5815,-1.4646,-1.3487,-1.2427,-1.1664,-1.0168,-0.8484,-0.8252,0.0,0.0,0.0,0.0,0.0,0.0,0.0,0.0,0.0,0.0,0.0,0.0,0.0,0.0,0.0,0.0,0.0,0.0,0.0,0.0,0.0,0.0,0.0,0.0,-0.244,-0.0,-0.0,-0.0,-0.0,-0.0,0.0553,0.323,0.8813,0.9408,0.9415,0.9591,0.9625,0.9686,0.9815,0.0,0.0,0.0,0.0,0.9822,0.9822,0.9822,0.9754,0.9632,0.9761,0.9768,0.9659,0.9774,0.9829,0.9842,0.9829,0.9822,0.9822,0.9822,0.9747,0.9646,0.9734,0.9612,0.9627,1.1145,1.1687,1.1897,0.0,-1.1516,-1.2049,-1.2871,-1.3008,-1.3281,-1.4141,-1.3988,-1.4053,-1.4883,-1.6315,-1.7139,-1.6814,-1.8119,-1.8943,-1.9031,-1.7809,-1.6847,-1.6393,0.0,0.0,0.0,0.0,0.0,0.0,0.0,0.0,0.0,0.0,0.0,0.0,0.0,0.0,0.0,0.0,0.0,0.0,0.0,0.0,0.0,0.0,-2.004,-1.7769,-1.5655,-1.4569,-1.4174,-1.3566,-1.2477,-1.1335,-1.0548,-0.9396,-0.8309,-0.7767,0.0,0.0,0.0,0.0,0.0,0.0,0.0,0.0,0.0,0.0,0.0,0.0,0.0,0.0,0.0,0.0,0.0,0.0,0.0,0.0,-0.177,-0.051,-0.0,-0.0,-0.0,-0.0,-0.0,0.4211,0.7704,0.8857,0.9272,0.9422,0.9499,0.96,0.9795,0.9822,0.9822,0.9822,0.9822,0.9822,0.9822,0.9822,0.9822,0.9808,0.9781,0.0,0.0,0.9964,0.9863,0.989,0.9998,0.9876,0.9822,0.9822,0.9822,0.9802,0.9761,0.9551,0.9435,0.9381,0.9757,0.9866,1.0293,0.0,-1.1366,-1.1913,-1.2295,-1.283,-1.334,-1.375,-1.3857,-1.4054,-1.4613,-1.5965,-1.6801,-1.67,-1.7792,-1.855,-1.8367,-1.706,-1.6344,0.0,0.0,0.0,0.0,0.0,0.0,0.0,0.0,0.0,0.0,0.0,0.0,0.0,0.0,0.0,0.0,0.0,0.0,0.0,0.0,0.0,0.0,0.0,-2.1451,-2.0067,-1.8605,-1.7451,-1.6418,-1.5918,-1.4552,-1.3079,-1.2455,-1.1681,-1.0689,-0.9442,-0.8792,-0.829,0.0,0.0,0.0,0.0,0.0,0.0,0.0,0.0,0.0,0.0,0.0,0.0,0.0,0.0,-0.0642,-0.2749,0.0,-0.2427,-0.0318,-0.0,-0.0,-0.0,-0.0,-0.0,-0.0,0.5219,0.8878,0.8941,0.9268,0.9483,0.9607,0.9674,0.9822,0.9822,0.9822,0.9822,0.9822,0.9822,0.9822,0.9822,0.9822,0.9822,0.9822,0.9897,0.9937,0.9937,1.0012,1.0053,1.0046,0.9971,0.9937,0.993,0.9849,0.9822,0.9808,0.9659,0.9598,0.9598,0.9598,0.9557,0.9959,0.0,-1.1466,-1.203,-1.203,-1.2776,-1.3418,-1.3496,-1.3603,-1.3825,-1.411,-1.5274,-1.6105,-1.6174,-1.7203,-1.7814,-1.7419,-1.6597,0.0,0.0,0.0,0.0,0.0,0.0,0.0,0.0,0.0,0.0,0.0,0.0,0.0,0.0,0.0,0.0,0.0,0.0,0.0,0.0,0.0,0.0,0.0,0.0,0.0,-2.1937,-2.1456,-2.0271,-1.8738,-1.7986,-1.6332,-1.4435,-1.4119,-1.3498,-1.2639,-1.1088,-1.0626,-1.0233,-0.8517,-0.7687,0.0,0.0,0.0,0.0,0.0,0.0,0.0,0.0,0.0,-0.5598,-0.0948,-0.0,-0.0,-0.0,-0.0,-0.0,-0.0,-0.0,-0.0,-0.0,-0.0,-0.0,-0.0,0.4205,0.7619,0.8738,0.8616,0.8791,0.9721,0.9836,0.9822,0.9822,0.9822,0.9822,0.9822,0.9822,0.9822,0.9822,0.9822,0.9822,0.9822,0.9978,0.9998,0.9917,1.0168,1.0229,1.0134,1.0107,1.0093,1.0086,0.9958,0.9897,0.9863,0.9863,0.9849,0.9822,0.9822,0.9747,1.0003,0.0,-1.19,-1.2774,-1.2774,-1.2861,-1.3066,-1.3457,-1.3801,-1.4192,-1.4617,-1.6196,-1.6824,-1.5687,-1.6525,-1.6856,-1.6073,0.0,0.0,0.0,0.0,0.0,0.0,0.0,0.0,0.0,0.0,0.0,0.0,0.0,0.0,0.0,0.0,0.0,0.0,0.0,0.0,0.0,0.0,0.0,0.0,0.0,0.0,-2.1977,-2.1911,-2.1407,-2.0658,-1.9562,-1.7715,-1.5747,-1.5045,-1.3756,-1.2279,-1.2332,-1.2134,-1.1809,-1.1241,0.0,-0.8666,-0.8271,-0.727,-0.6437,-0.7061,-0.6621,-0.5734,0.0,0.0,-0.5147,-0.0854,-0.0,-0.0,-0.0,-0.0,-0.0,-0.0,-0.0,-0.0,-0.0,-0.0,-0.0,-0.0,0.058,0.3023,0.8377,0.6532,0.6409,0.9503,0.9849,0.9822,0.9822,0.9822,0.9822,0.9822,0.9822,0.9822,0.9822,0.9822,0.9822,0.9822,0.9978,1.0114,1.0229,1.0263,1.0337,1.0432,1.031,1.0256,1.0256,1.0236,1.0148,1.0025,1.0025,0.9937,0.9822,0.9822,0.9808,1.0037,0.0,0.0,-1.2393,-1.2822,-1.2891,-1.2949,-1.3125,-1.3496,-1.3926,-1.4355,-1.5469,-1.6143,-1.5914,-1.6412,-1.6578,-1.5893,0.0,0.0,0.0,0.0,0.0,0.0,0.0,0.0,0.0,0.0,0.0,0.0,0.0,0.0,0.0,0.0,0.0,0.0,0.0,0.0,0.0,0.0,0.0,0.0,0.0,0.0,-2.1924,-2.1416,-2.0762,-2.0013,-1.9345,-1.8151,0.0,0.0,-1.5097,-1.4377,-1.328,-1.3061,-1.2907,-1.1683,-1.071,0.0,-0.8983,-0.7866,0.0,0.0,-0.7638,-0.7027,-0.4358,-0.3181,-0.2135,-0.035,-0.0,-0.0,-0.0,-0.0,-0.0,0.0,-0.0,-0.0,-0.0,-0.0,-0.0,-0.0,-0.0,0.1011,0.3438,0.5735,0.7874,0.9627,0.9741,0.9747,0.9815,0.9822,0.9822,0.9822,0.9822,0.9822,0.9822,0.9822,0.9822,0.9822,0.9978,1.008,1.0154,1.0324,1.0432,1.0487,1.0426,1.0358,1.0276,1.0181,1.0107,1.0039,0.9951,0.9876,0.9822,0.9822,0.9822,1.0058,0.0,0.0,0.0,-1.2246,-1.2314,-1.2461,-1.2822,-1.3242,-1.3613,-1.3926,-1.4609,-1.5215,-1.5664,-1.6211,-1.6408,-1.6011,0.0,0.0,0.0,0.0,0.0,0.0,0.0,0.0,0.0,0.0,0.0,0.0,0.0,0.0,0.0,0.0,0.0,0.0,0.0,0.0,0.0,0.0,0.0,0.0,0.0,0.0,-2.1537,-2.0735,-1.9786,-1.8838,-1.8544,-1.7756,0.0,0.0,-1.5565,-1.5325,-1.4112,-1.3845,-1.3752,-1.2383,-1.141,-1.0612,-0.9339,0.0,0.0,-0.7828,-0.8385,-0.8304,-0.5912,-0.3379,-0.1196,-0.0249,-0.0,-0.0,-0.0,-0.0,-0.0,-0.0,-0.0,-0.0,-0.0,-0.0,-0.0,-0.0,-0.0,-0.0,-0.0,0.3882,0.658,0.7005,0.876,0.9806,0.9768,0.9802,0.9822,0.9822,0.9822,0.9822,0.9822,0.9822,0.9842,0.9883,1.0039,1.0134,1.0181,1.0439,1.0555,1.0555,1.0555,1.0493,1.0392,1.0236,1.0148,1.01,0.9944,0.9856,0.9822,0.9822,0.9822,0.9943,0.0,0.0,0.0,0.0,-1.0864,-1.1334,-1.2676,-1.3242,-1.3516,-1.3535,-1.3906,-1.4336,-1.4785,-1.5586,-1.6094,0.0,0.0,0.0,0.0,-1.7626,0.0,0.0,0.0,0.0,0.0,0.0,0.0,0.0,0.0,0.0,0.0,0.0,0.0,0.0,0.0,0.0,0.0,0.0,0.0,0.0,0.0,0.0,-2.0655,-2.0054,-1.8918,-1.7595,-1.7315,0.0,0.0,0.0,-1.4429,-1.3868,-1.471,-1.4688,0.0,-1.4117,-1.2193,-1.0113,-0.9457,0.0,-0.7767,-0.8492,-0.8818,-0.8997,-0.9453,-0.7401,-0.424,-0.0784,-0.0,-0.0,-0.0,-0.0,-0.0,-0.0,-0.0,-0.0,-0.0,-0.0,-0.0,-0.0,-0.0,-0.0,0.0,0.011,0.0225,0.0344,0.626,0.9772,0.9772,0.9761,0.9822,0.9822,0.9822,0.9822,0.9822,0.9822,0.9897,1.0046,1.0202,1.0344,1.048,1.0643,1.0711,1.0711,1.0711,1.0711,1.0697,1.0541,1.0399,1.0256,1.01,0.9951,0.9822,0.9822,0.9822,0.9822,0.0,0.0,0.0,0.0,0.0,-1.1616,-1.208,-1.2308,-1.2462,-1.2791,-1.3457,0.0,0.0,0.0,0.0,0.0,0.0,0.0,0.0,-1.7516,0.0,0.0,0.0,0.0,0.0,0.0,0.0,0.0,0.0,0.0,0.0,0.0,0.0,0.0,0.0,0.0,0.0,0.0,0.0,0.0,0.0,0.0,-1.996,-1.8784,-1.7528,-1.6353,0.0,0.0,0.0,0.0,0.0,0.0,-1.3467,-1.3561,-1.3503,-1.2825,-1.1571,-1.0298,-0.9597,0.0,-0.8472,-0.9015,-0.9422,-0.9674,-1.0089,-0.954,-0.8459,-0.7112,-0.3245,-0.0,-0.0,-0.0,-0.0,-0.0,-0.0,-0.0,-0.0,-0.0,-0.0,-0.0,-0.0,0.0,0.0,0.0,0.0,-0.0,0.3865,0.7327,0.9632,0.9673,0.9727,0.9815,0.9822,0.9822,0.9822,0.9822,0.9897,1.0053,1.0304,1.0446,1.0493,1.0649,1.0717,1.0717,1.0717,1.0717,1.0711,1.0555,1.0466,1.0399,1.0148,1.0019,0.9958,0.9856,0.9822,0.9822,0.0,0.0,0.0,0.0,0.0,0.0,0.0,0.0,0.0,0.0,0.0,0.0,0.0,0.0,0.0,0.0,0.0,0.0,0.0,0.0,0.0,0.0,0.0,0.0,0.0,0.0,0.0,0.0,0.0,0.0,0.0,0.0,0.0,0.0,0.0,0.0,0.0,0.0,0.0,0.0,0.0,0.0,-1.841,-1.7248,-1.6139,0.0,0.0,0.0,0.0,0.0,0.0,-1.2789,-1.2389,-1.2092,-1.183,-1.143,-1.0733,-1.0021,-0.9862,-0.9362,-0.9069,-0.9578,-0.9998,-1.0344,-1.0424,-1.0545,-1.0545,-1.0187,-0.6445,-0.2819,-0.1553,-0.0582,-0.0,-0.0,-0.0,-0.0,-0.0,-0.0,-0.0,-0.0,-0.0,-0.0,0.0,0.0,0.0,0.3181,0.4015,0.607,0.9544,0.9591,0.9673,0.9815,0.9822,0.9822,0.9822,0.9876,1.0005,1.0209,1.0399,1.0521,1.0575,1.0677,1.0717,1.0717,1.0717,1.0717,1.0711,1.0555,1.0493,1.0466,1.0229,1.0134,1.0114,0.9958,0.9903,0.9897,0.0,0.0,0.0,0.0,0.0,0.0,0.0,0.0,0.0,0.0,0.0,0.0,0.0,0.0,0.0,0.0,0.0,0.0,0.0,0.0,0.0,0.0,0.0,0.0,0.0,-2.0965,-2.1807,-2.2819,0.0,0.0,0.0,0.0,0.0,0.0,0.0,0.0,0.0,0.0,0.0,0.0,0.0,0.0,-1.6139,-1.5551,0.0,0.0,0.0,0.0,0.0,0.0,0.0,0.0,0.0,-1.0382,-0.9607,-1.0065,-0.9696,-0.9332,-1.0096,-0.9965,-0.9578,-1.0161,-1.0521,-1.0731,-1.0724,-1.0704,-1.0431,-0.987,-0.9418,-0.8008,0.0,0.0,-0.0313,-0.0,-0.0,-0.0,-0.0,-0.0,-0.0,0.0,0.0,0.0,0.0,0.0,0.0,0.8948,0.0,0.6107,0.9298,0.9544,0.9673,0.9815,0.9822,0.9822,0.9822,0.9978,1.0209,1.0493,1.0493,1.0575,1.0717,1.0711,1.0711,1.0717,1.0717,1.0717,1.0711,1.0561,1.0507,1.0487,1.0344,1.029,1.0276,1.012,1.0059,1.0025,0.0,0.0,0.0,0.0,0.0,0.0,0.0,0.0,0.0,0.0,0.0,0.0,0.0,0.0,0.0,0.0,0.0,0.0,0.0,0.0,0.0,0.0,0.0,0.0,0.0,0.0,0.0,0.0,0.0,0.0,0.0,0.0,0.0,0.0,0.0,0.0,0.0,0.0,0.0,0.0,0.0,0.0,-1.5231,0.0,0.0,0.0,0.0,0.0,0.0,0.0,0.0,0.0,0.0,-1.0258,-1.0114,-0.9859,-0.9838,-0.9894,-0.9727,-0.9933,-1.027,-1.0541,-1.0751,-1.086,-1.0744,-1.046,-1.0059,-0.9503,-0.887,-0.8171,0.0,0.0,0.0,-0.053,-0.0,0.0,-0.0,-0.0,0.0,-0.0,0.0,-0.0,-0.0,0.5394,0.0,0.0,0.8463,0.8382,0.9347,0.9493,0.9673,0.9815,0.9822,0.9822,0.9822,1.0086,1.031,1.0493,1.0493,1.0575,1.0717,1.0602,1.0616,1.0717,1.0717,1.0717,1.0717,1.0677,1.0663,1.0649,1.0493,1.0439,1.0419,1.0276,1.0148,1.0046,0.0,0.0,0.0,0.0,0.0,0.0,0.0,0.0,0.0,0.0,0.0,0.0,0.0,0.0,0.0,0.0,0.0,0.0,0.0,0.0,0.0,0.0,0.0,0.0,0.0,0.0,0.0,0.0,0.0,0.0,0.0,0.0,0.0,0.0,0.0,0.0,0.0,0.0,0.0,0.0,0.0,0.0,0.0,0.0,0.0,0.0,0.0,0.0,0.0,0.0,0.0,-1.0648,-0.9948,-0.9679,-0.9591,-0.9419,0.0,-0.9975,-0.9861,-1.027,-1.0711,-1.0799,-1.0887,-1.0839,-1.0419,-1.0032,-0.9551,-0.8818,-0.8248,0.0,-0.7478,-0.7158,0.0,0.0,0.0,0.0,-0.0,-0.0,-0.0,0.0,-0.0,0.0,-0.0,0.3069,0.6186,0.0,0.8135,0.7893,0.9387,0.9506,0.9673,0.9815,0.9822,0.9883,1.0019,1.0127,1.0317,1.0595,1.0521,1.0575,1.0717,1.0629,1.0636,1.0717,0.0,1.0717,1.0717,1.0717,1.0717,1.0711,1.0622,1.0595,1.0575,1.0426,1.0317,1.0236,0.0,0.0,0.0,0.0,0.0,0.0,0.0,0.0,0.0,0.0,-1.0337,-0.9971,0.0,0.0,0.0,0.0,0.0,0.0,0.0,0.0,0.0,0.0,0.0,0.0,0.0,0.0,0.0,0.0,0.0,0.0,0.0,0.0,0.0,0.0,0.0,0.0,0.0,0.0,0.0,0.0,0.0,0.0,0.0,0.0,0.0,0.0,0.0,0.0,0.0,0.0,-1.1326,-1.0314,-0.9714,-0.9173,-0.8723,-0.9171,-0.9605,-1.0032,-1.0466,-1.0806,-1.1036,-1.1036,-1.0975,-1.0724,-0.9992,-0.953,-0.9008,-0.8106,0.0,-0.7279,-0.7069,-0.6776,-0.6741,-0.7044,0.0,-0.0817,-0.0114,-0.0,-0.0,-0.0,-0.0,-0.0,-0.0,-0.0,0.2231,0.7743,0.6163,0.6305,0.94,0.9639,0.9693,0.9815,0.9822,0.9971,1.0276,1.0148,1.0297,1.0717,1.0568,1.0575,1.0717,1.0697,1.0704,1.0717,1.0717,1.0717,1.0717,1.0717,1.0717,1.0717,1.0717,1.0717,1.0704,1.0568,1.0507,1.0473,0.0,0.0,0.0,0.0,0.0,0.0,0.0,0.0,0.0,0.0,-1.0897,-0.9936,0.0,0.0,0.0,0.0,0.0,0.0,0.0,0.0,0.0,0.0,0.0,0.0,0.0,0.0,0.0,0.0,0.0,0.0,0.0,0.0,0.0,0.0,0.0,0.0,0.0,0.0,0.0,0.0,0.0,0.0,0.0,0.0,0.0,0.0,0.0,0.0,0.0,0.0,-1.1828,-1.1401,-1.1098,-1.0254,-0.9503,-0.9951,-1.031,-1.0636,-1.0955,-1.1267,-1.1504,-1.1504,-1.1131,-1.0595,-0.9964,-0.9205,0.0,0.0,-0.7041,-0.6812,-0.651,-0.639,-0.6557,-0.705,0.0,0.0,0.0,-0.0,-0.0,0.0,-0.0,-0.0,-0.0,-0.0,0.0,0.0,0.3638,0.6311,0.9612,0.9808,0.9795,0.9822,0.9822,0.9971,1.0276,1.0256,1.0399,1.0717,1.0568,1.0575,1.0717,1.0588,1.0602,1.0717,1.0717,0.0,1.0717,1.0717,1.0717,1.0717,1.0717,1.0717,1.0717,1.069,1.0602,1.0487,0.0,0.0,0.0,0.0,0.0,0.0,0.0,-1.1822,-1.1736,-1.2793,-1.2301,-1.1279,-0.9892,-1.0561,-1.1336,0.0,0.0,0.0,0.0,0.0,0.0,0.0,0.0,0.0,0.0,0.0,0.0,0.0,0.0,0.0,0.0,0.0,0.0,0.0,0.0,0.0,0.0,0.0,0.0,0.0,0.0,0.0,0.0,0.0,0.0,0.0,0.0,0.0,0.0,0.0,-1.2618,-1.2363,-1.1655,-1.1197,-1.1019,-1.0628,-1.0717,-1.1016,-1.1321,-1.1619,-1.1809,-1.166,-1.1165,-1.048,-0.9571,0.0,0.0,0.0,-0.6573,-0.6482,-0.6339,-0.6139,0.0,-0.6643,0.0,0.0,0.0,-0.3485,0.0,-0.0253,-0.0,-0.0,0.0,-0.0,0.0657,0.2477,0.5698,0.8314,0.9757,0.9761,0.9822,0.9822,0.9897,1.0053,1.0276,1.0351,1.05,1.0717,1.0643,1.0649,1.0717,1.0643,1.0649,1.0717,1.0717,1.0717,1.0717,1.0717,1.0717,1.0717,1.0717,1.0717,1.0717,1.0717,1.0677,1.0609,0.0,0.0,0.0,0.0,0.0,0.0,-1.3064,-1.2312,-1.2232,-1.3931,-1.3571,-1.2705,-1.1369,-1.1071,-1.1279,0.0,0.0,0.0,0.0,0.0,0.0,0.0,0.0,0.0,0.0,0.0,0.0,-1.4622,0.0,0.0,0.0,0.0,0.0,0.0,0.0,0.0,0.0,0.0,0.0,0.0,0.0,0.0,0.0,0.0,0.0,0.0,0.0,0.0,0.0,0.0,-1.3074,-1.3059,-1.1962,-1.2153,-1.2471,-1.1177,-1.1199,-1.1607,-1.1708,-1.1857,-1.1999,-1.1728,-1.1145,-1.0324,-0.9157,-0.8255,0.0,0.0,-0.6186,-0.6201,-0.6307,0.0,-0.5984,0.0,-0.6548,-0.7145,0.0,0.0,-0.528,0.0,-0.0914,0.0,-0.0,-0.0,0.0,0.3715,0.7144,0.9392,0.9718,0.9854,0.9903,0.9869,1.0019,1.0175,1.0324,1.0432,1.0568,1.0717,1.0717,1.0717,1.0717,1.0717,1.0717,1.0717,1.0717,1.0717,1.0717,1.0717,1.0717,1.0717,1.0717,1.0717,1.0717,1.0717,1.0717,1.0717,0.0,0.0,0.0,0.0,0.0,0.0,-1.2145,-1.2262,-1.3112,-1.4994,-1.4015,-1.3253,-1.3347,-1.2487,-1.2072,0.0,0.0,0.0,0.0,0.0,0.0,0.0,0.0,0.0,0.0,0.0,0.0,-1.3727,-1.2916,0.0,0.0,0.0,0.0,0.0,0.0,-1.1035,0.0,0.0,0.0,0.0,0.0,0.0,0.0,0.0,0.0,0.0,0.0,0.0,0.0,0.0,0.0,-1.3028,-1.2326,-1.2751,-1.333,-1.1647,0.0,0.0,-1.1942,-1.1932,-1.202,-1.1857,-1.1063,-1.0039,-0.8974,0.0,0.0,-0.6207,-0.5942,-0.5913,-0.6273,-0.6264,-0.6166,-0.5891,0.0,-0.7128,0.0,0.0,-0.9039,-0.9652,0.0,0.0,-0.0,-0.0,0.0135,0.0403,0.384,0.7006,0.9718,1.0055,1.0175,1.0032,1.0181,1.0331,1.0473,1.0487,1.0568,1.0717,1.0717,1.0717,1.0717,1.0717,1.0717,1.0717,1.0717,1.0717,0.0,1.0717,1.0717,1.0717,1.0717,1.0717,1.0717,1.0717,1.0717,1.0717,0.0,0.0,0.0,0.0,0.0,0.0,-1.3572,-1.3005,-1.3293,-1.5866,-1.5226,-1.4509,-1.4442,-1.3396,-1.2401,-1.162,0.0,0.0,0.0,0.0,0.0,0.0,0.0,0.0,0.0,0.0,-1.3197,-1.2523,-1.2148,0.0,0.0,0.0,0.0,0.0,0.0,-1.0728,-1.0728,0.0,0.0,0.0,0.0,0.0,0.0,0.0,0.0,0.0,0.0,0.0,0.0,0.0,0.0,0.0,-1.1815,-1.2709,0.0,0.0,-1.1287,-1.2102,-1.1518,-1.1803,-1.2162,-1.2006,-1.1185,-1.0134,-0.9083,0.0,-0.6905,-0.6064,-0.584,-0.5772,-0.5761,-0.5725,-0.5861,-0.6076,-0.6159,0.0,-0.6898,0.0,-0.8668,-1.0011,-0.6118,0.0,0.0,0.0,-0.0,-0.0,0.3341,0.6872,1.0134,1.0317,1.0249,1.0188,1.0331,1.0432,1.0493,1.0582,1.0663,1.0717,1.0717,1.0717,1.0717,1.0717,1.0717,1.0717,1.0717,1.0717,0.0,1.0717,1.0717,1.0717,1.0717,1.0717,1.0717,1.0717,1.0717,1.0717,0.0,0.0,0.0,0.0,0.0,-1.2636,-1.4403,-1.38,-1.4041,-1.6593,-1.602,-1.5301,-1.526,-1.3777,-1.2322,-1.1113,-1.2204,0.0,0.0,0.0,0.0,0.0,0.0,0.0,0.0,0.0,-1.2321,-1.1551,-1.1551,-1.1389,0.0,0.0,-1.0795,-1.0982,0.0,0.0,0.0,0.0,0.0,0.0,0.0,0.0,0.0,0.0,0.0,0.0,0.0,0.0,0.0,0.0,0.0,0.0,0.0,0.0,0.0,0.0,-1.094,-1.1752,-1.103,-1.1382,-1.1918,-1.1769,-1.0975,-0.9971,0.0,0.0,-0.6722,-0.5962,-0.5732,-0.5644,-0.5467,-0.5418,-0.5601,-0.6075,-0.594,-0.6057,-0.6824,-0.7118,0.0,0.0,0.0,-0.4041,0.0,-0.0,-0.0,-0.0,0.242,0.5759,1.0392,1.0507,1.0399,1.0344,1.048,1.0561,1.0561,1.0663,1.0717,1.0717,1.0717,1.0717,1.0717,1.0717,1.0717,1.0717,1.0717,1.0717,0.0,1.0717,1.0717,1.0717,1.0717,1.0717,1.0717,1.0717,1.0717,1.0717,0.0,0.0,0.0,0.0,0.0,0.0,-1.4056,-1.4664,-1.5519,-1.6969,-1.5965,-1.5323,-1.5874,-1.3537,-1.1757,-1.1436,-1.1339,0.0,0.0,0.0,0.0,0.0,0.0,0.0,0.0,0.0,-1.1565,-1.0982,-1.0982,-1.1142,-1.141,-1.1129,-1.0995,-1.0982,0.0,0.0,0.0,0.0,0.0,0.0,0.0,0.0,0.0,0.0,0.0,0.0,0.0,0.0,0.0,0.0,0.0,0.0,0.0,0.0,0.0,0.0,-1.1363,-1.2447,-1.0623,-1.0609,-1.1138,-1.0995,-1.0283,-0.9381,0.0,0.0,-0.6349,-0.5895,-0.5569,-0.5432,-0.5432,-0.542,-0.5491,-0.5779,-0.6064,-0.6424,-0.6865,-0.7001,0.0,0.0,0.0,-0.397,-0.0384,-0.0,-0.0,-0.0,-0.0,0.0,1.029,1.0645,1.067,1.0493,1.0636,1.0717,1.0717,1.0717,1.0717,1.0717,1.0717,1.0717,1.0717,1.0717,1.0717,1.0717,1.0717,1.0717,0.0,1.0717,1.0717,1.0717,1.0717,1.0717,1.0717,1.0717,1.0717,1.0717,0.0,0.0,0.0,0.0,0.0,0.0,-1.4428,-1.4212,-1.4527,-1.6275,-1.5072,-1.4241,-1.4794,-1.3084,-1.1757,-1.145,-1.1553,0.0,0.0,0.0,0.0,0.0,0.0,0.0,0.0,0.0,-1.1354,-1.1597,-1.1784,-1.2037,-1.2318,-1.1824,-1.149,-1.1263,-1.0782,-1.0618,0.0,0.0,0.0,0.0,0.0,0.0,0.0,0.0,0.0,0.0,0.0,0.0,0.0,0.0,0.0,0.0,0.0,0.0,0.0,-1.0183,-1.107,-1.1994,-1.0425,-1.0401,-1.0733,-0.9975,-0.9205,-0.854,-0.795,0.0,-0.6376,-0.603,-0.5728,-0.5587,-0.5447,-0.5557,-0.5847,-0.636,-0.6506,-0.662,-0.68,0.0,0.0,-0.6797,-0.3809,-0.1209,0.0,0.0,-0.0,-0.0,-0.0,0.0941,0.3224,0.8081,1.0638,1.0677,1.0704,1.0717,1.0717,1.0717,1.0717,1.0717,1.0717,1.0717,1.0717,1.0717,1.0717,1.0717,1.0717,1.0717,1.0717,1.0717,1.0717,1.0717,1.0717,1.0717,1.0717,1.0717,1.0717,1.0717,0.0,0.0,0.0,0.0,0.0,0.0,-1.4382,-1.4304,-1.4577,-1.578,-1.4413,-1.3584,-1.4378,-1.26,-1.1383,-1.1423,-1.1395,0.0,0.0,0.0,0.0,0.0,0.0,0.0,-1.0792,-1.0795,-1.1276,-1.2271,-1.2385,-1.2732,-1.324,-1.2879,-1.2371,-1.173,-1.1263,-1.094,0.0,0.0,0.0,0.0,0.0,0.0,-1.0875,0.0,0.0,0.0,0.0,0.0,0.0,0.0,0.0,0.0,0.0,0.0,0.0,0.0,-1.0918,-1.1746,0.0,-1.0277,-1.0217,-0.9573,-0.8723,-0.7916,0.0,0.0,0.0,-0.6078,-0.5908,-0.5728,-0.5578,-0.5663,-0.5995,-0.6486,-0.6527,-0.6532,-0.6721,0.0,0.0,-0.699,0.0,0.0,0.0,-0.0,-0.0,-0.0,-0.0,-0.0,-0.0,0.4303,0.7947,1.0652,1.0751,1.0731,1.0717,1.0663,1.0636,1.0636,1.0582,1.0582,1.0636,1.0636,1.0663,1.0717,1.0717,1.0717,0.0,1.0717,1.0717,1.0717,1.0717,1.0717,1.0717,1.0717,1.0717,1.0717,0.0,0.0,0.0,0.0,0.0,0.0,0.0,-1.4731,-1.5332,-1.5274,-1.3939,-1.3309,-1.4228,-1.2123,-1.0782,-1.1316,-1.0875,0.0,0.0,0.0,0.0,0.0,0.0,0.0,-1.0955,-1.0742,-1.1384,-1.2822,-1.2889,-1.3293,-1.4148,-1.4122,-1.3494,-1.2358,-1.2037,-1.1423,0.0,0.0,0.0,0.0,-1.1316,-1.1423,0.0,0.0,0.0,0.0,0.0,0.0,0.0,0.0,0.0,0.0,0.0,0.0,0.0,0.0,0.0,0.0,0.0,-1.0108,-0.9689,-0.9705,-0.8571,-0.7428,-0.7143,0.0,0.0,0.0,0.0,-0.5985,-0.5847,-0.5861,-0.5915,-0.6071,-0.6163,-0.6418,-0.6655,-0.6911,0.0,0.0,-0.7413,0.0,-0.053,-0.0,-0.0,-0.0,-0.0,-0.0,-0.0,-0.0,0.309,0.974,1.0378,1.0744,1.0711,1.0568,1.0487,1.0473,1.0344,1.0351,1.048,1.0487,1.0568,0.0,1.0717,1.0717,0.0,1.0717,1.0717,1.0717,1.0717,1.0717,1.0717,1.0717,1.0717,1.0717,0.0,0.0,0.0,0.0,0.0,0.0,0.0,0.0,0.0,0.0,-1.3251,-1.2948,-1.2915,-1.1531,-1.0672,0.0,0.0,0.0,0.0,0.0,0.0,0.0,0.0,0.0,-1.0725,-1.1022,-1.1717,-1.2822,-1.344,-1.4108,-1.475,-1.4522,-1.3908,-1.2973,-1.2438,-1.1837,0.0,0.0,0.0,0.0,-1.1396,-1.1423,0.0,0.0,0.0,0.0,-1.0725,-1.0174,0.0,0.0,0.0,0.0,0.0,0.0,0.0,0.0,-0.9502,-0.9419,-1.0215,0.0,-0.8898,-0.841,-0.7461,-0.6559,0.0,0.0,0.0,0.0,0.0,0.0,0.0,-0.6157,-0.5652,-0.4134,-0.5214,-0.6524,-0.7278,-0.4167,0.0,-0.1918,-0.1925,-0.142,-0.0139,-0.0,-0.0,-0.0,-0.0,-0.0,-0.0,-0.0,0.0806,0.2417,0.7813,1.0611,1.0451,1.0417,1.046,1.0331,1.0297,1.0297,1.0331,1.0439,1.0514,1.0555,1.067,1.0717,1.0717,1.0717,1.0717,1.0717,1.0717,1.0717,1.0717,1.0717,1.0717,1.0717,0.0,0.0,0.0,0.0,0.0,0.0,0.0,0.0,0.0,0.0,-1.2093,-1.1905,-1.1715,-1.1024,-1.051,0.0,0.0,0.0,0.0,0.0,0.0,0.0,0.0,-1.0685,-1.0755,-1.1062,-1.1864,-1.316,-1.3788,-1.4522,-1.5364,-1.5337,-1.471,-1.3574,-1.2559,-1.185,0.0,0.0,0.0,-1.1637,-1.177,0.0,0.0,0.0,0.0,0.0,-1.0862,-1.0418,0.0,-1.0731,-1.0261,-0.9325,0.0,0.0,0.0,0.0,-0.8343,-0.8544,-0.928,-0.8867,-0.8125,-0.7888,-0.7019,-0.6338,-0.6338,0.0,0.0,0.0,0.0,0.0,0.0,0.0,-0.607,-0.4811,-0.5566,-0.6572,0.0,0.0,-0.0,-0.0,-0.0,-0.0,0.0,-0.0,-0.0,-0.0,-0.0,-0.0,-0.0,-0.0,-0.0,-0.0,0.3744,0.6506,0.8149,0.9546,1.0223,1.0188,1.0107,1.0107,1.0175,1.0256,1.0324,1.0405,1.0555,1.0616,1.0622,1.069,1.0717,1.0717,1.0717,1.0717,1.0717,1.0717,1.0717,1.0717,0.0,0.0,0.0,0.0,0.0,0.0,0.0,0.0,0.0,0.0,0.0,0.0,0.0,0.0,0.0,0.0,0.0,0.0,0.0,0.0,0.0,0.0,-1.0645,-1.0766,-1.0982,-1.1035,-1.1864,-1.3507,-1.3988,-1.479,-1.5912,-1.6286,-1.5671,-1.4162,-1.2759,-1.1931,0.0,0.0,-1.1931,-1.1957,-1.2211,0.0,0.0,0.0,0.0,0.0,0.0,0.0,0.0,-1.0929,-1.0233,-0.9142,-0.8658,0.0,0.0,0.0,0.0,0.0,-0.8157,-0.7771,-0.7426,-0.7702,-0.7019,-0.6288,-0.6345,0.0,0.0,0.0,0.0,0.0,0.0,-0.6464,0.0,-0.6401,-0.637,0.0,-0.5996,-0.2533,-0.0,-0.0,-0.0,0.0,-0.0,-0.0,-0.0,-0.0,-0.0,-0.0,-0.0,-0.0,-0.0,-0.0,-0.0,0.1445,0.458,0.7745,0.9557,1.0046,0.9897,0.989,1.0019,1.0039,1.012,1.0256,0.0,0.0,1.0473,1.0649,1.0704,1.0683,1.0711,1.0717,1.0717,1.0717,1.0717,1.0717,0.0,0.0,0.0,0.0,0.0,0.0,0.0,0.0,0.0,0.0,0.0,0.0,0.0,0.0,0.0,0.0,0.0,0.0,0.0,0.0,0.0,-1.0915,-1.0688,-1.0766,-1.0982,-1.1236,-1.1864,-1.2879,-1.4188,-1.5297,-1.6219,-1.7007,-1.6473,-1.479,-1.3801,-1.2919,-1.2171,-1.2211,-1.2238,-1.2238,-1.2278,0.0,0.0,0.0,0.0,0.0,0.0,0.0,0.0,-0.9621,-0.9026,-0.8083,-0.7259,0.0,0.0,0.0,0.0,0.0,-0.7199,-0.6978,-0.6652,-0.7352,-0.7019,-0.641,0.0,0.0,0.0,0.0,0.0,0.0,0.0,-0.6338,-0.6537,0.0,0.0,-0.5135,0.0,0.0,-0.0,-0.0,0.0,-0.0,-0.0,-0.0,-0.0,-0.0,-0.0,-0.0,-0.0,-0.0,-0.0,-0.0,-0.0,0.0262,0.0777,0.4068,0.7132,0.989,0.9842,0.9836,0.9863,0.9992,1.0059,1.01,0.0,1.0426,1.0331,1.0609,1.0643,1.0541,1.067,1.0717,1.0717,1.0717,1.0717,1.0717,0.0,0.0,0.0,0.0,0.0,0.0,0.0,0.0,0.0,0.0,0.0,0.0,0.0,0.0,0.0,0.0,0.0,0.0,0.0,0.0,-1.0755,-1.1209,-1.1102,-1.1169,-1.1463,-1.1904,-1.2732,-1.4032,-1.511,-1.6206,-1.7208,-1.6981,-1.6192,-1.4923,-1.3868,-1.2999,-1.2305,-1.2305,-1.2305,-1.2305,0.0,0.0,0.0,0.0,0.0,0.0,0.0,0.0,0.0,0.0,-0.8631,-0.7419,-0.7042,0.0,0.0,0.0,0.0,0.0,-0.6087,-0.6179,-0.6291,-0.6753,-0.6812,-0.6797,0.0,0.0,0.0,0.0,0.0,0.0,0.0,0.0,-0.5605,-0.3633,0.0,-0.2162,-0.0259,-0.0,-0.0,0.0,0.0,-0.0,-0.0,-0.0,-0.0,-0.0,-0.0,-0.0,-0.0,-0.0,-0.0,-0.0,-0.0,-0.0,-0.0,0.1509,0.4827,0.9761,0.9856,0.9836,0.9822,0.989,0.9924,0.9937,0.0,1.0215,1.0181,1.0473,1.0555,1.0507,1.0663,1.0717,1.0724,1.0731,1.0738,1.0738,0.0,0.0,0.0,0.0,0.0,0.0,0.0,0.0,0.0,0.0,0.0,0.0,0.0,0.0,0.0,0.0,0.0,0.0,0.0,0.0,-1.0889,-1.141,-1.1623,-1.1877,-1.2171,-1.2826,-1.3814,-1.5164,-1.6259,-1.7355,-1.841,-1.7235,-1.6139,-1.511,-1.3868,-1.2933,-1.2305,-1.2305,-1.2305,-1.2305,0.0,0.0,0.0,0.0,0.0,0.0,0.0,0.0,0.0,0.0,0.0,0.0,0.0,0.0,0.0,-0.5467,-0.5459,-0.5452,-0.5488,-0.5793,-0.6118,-0.6274,0.0,0.0,0.0,0.0,0.0,0.0,0.0,0.0,0.0,-0.5522,0.0,-0.0474,-0.0,-0.0,-0.0,-0.0,-0.0,-0.0,-0.0,-0.0,-0.0,-0.0,-0.0,-0.0,-0.0,-0.0,-0.0,-0.0,-0.0,-0.0,-0.0,-0.0,-0.0,-0.0,0.2471,0.7531,0.9123,0.9849,0.9829,0.9822,0.9822,0.9829,0.9985,1.0025,1.0019,1.0317,1.0439,1.046,1.0609,1.069,1.0731,1.0744,1.0212,0.9407,0.0,0.0,0.0,0.0,0.0,0.0,0.0,0.0,0.0,0.0,0.0,0.0,0.0,0.0,0.0,0.0,0.0,0.0,0.0,0.0,-1.1102,-1.141,-1.2211,-1.2799,-1.3106,-1.3948,-1.4843,-1.5765,-1.7488,-1.8798,-1.9653,-1.8464,-1.7154,-1.5698,-1.4255,-1.312,-1.2305,-1.2305,-1.2305,-1.2305,-1.2305,0.0,0.0,0.0,0.0,0.0,0.0,0.0,0.0,0.0,0.0,0.0,0.0,0.0,-0.542,-0.5535,-0.5474,-0.5454,-0.5867,-0.6112,-0.6281,-0.6424,-0.6491,0.0,0.0,0.0,0.0,-0.7648,0.0,0.0,0.0,-0.3109,-0.034,-0.0,-0.0,-0.0,-0.0,0.0,-0.0,-0.0,-0.0,-0.0,-0.0,-0.0,-0.0,-0.0,-0.0,-0.0,-0.0,-0.0,-0.0,-0.0,-0.0,-0.0,-0.0,-0.0,0.025,0.0738,0.6884,0.9856,0.9849,0.9829,0.9822,0.9829,0.9985,0.9971,0.9863,1.0168,1.0297,1.031,1.0453,1.0609,1.0751,1.0751,0.859,0.5767,0.0,0.0,0.0,0.0,0.0,0.0,0.0,0.0,0.0,0.0,0.0,0.0,0.0,0.0,0.0,0.0,0.0,0.0,0.0,-1.0728,-1.1209,-1.1677,-1.2198,-1.2786,-1.3467,-1.4883,-1.6233,-1.7488,-1.8704,-1.9386,-1.9492,-1.7943,-1.6526,-1.5231,-1.3948,-1.308,-1.2559,-1.2385,-1.2412,-1.2559,-1.1689,-1.1168,0.0,0.0,0.0,0.0,0.0,0.0,0.0,0.0,-0.6463,-0.5962,-0.5595,-0.5474,-0.5515,-0.5569,-0.5481,-0.544,-0.5793,-0.6071,-0.6315,-0.6552,0.0,0.0,0.0,0.0,0.0,-0.8297,-0.8142,0.0,0.0,0.0,-0.0,-0.0,-0.0,-0.0,-0.0,-0.0,-0.0,-0.0,-0.0,-0.0,-0.0,-0.0,-0.0,-0.0,-0.0,-0.0,-0.0,-0.0,-0.0,-0.0,-0.0,-0.0,-0.0,-0.0,-0.0,-0.0,0.2471,0.5896,0.9856,0.9849,0.9836,0.9822,0.9883,0.9876,0.9836,1.0053,1.0195,1.0304,1.0541,1.0683,1.0485,0.8184,0.7932,0.8086,0.0,0.0,0.0,0.0,0.0,0.0,0.0,0.0,0.0,0.0,0.0,0.0,0.0,0.0,0.0,0.0,0.0,0.0,-1.0274,-1.0808,-1.1303,-1.1717,-1.2278,-1.2959,-1.3761,-1.5324,-1.6767,-1.8063,-1.9145,-1.9372,-1.8771,-1.7275,-1.5893,-1.4539,-1.34,-1.2594,-1.2043,-1.1605,-1.1609,-1.1744,-1.0697,-1.011,0.0,0.0,0.0,0.0,0.0,0.0,0.0,0.0,-0.6,-0.5508,-0.5454,-0.5508,-0.5596,-0.5644,-0.5549,-0.5488,-0.5732,-0.5956,-0.6186,0.0,0.0,0.0,0.0,0.0,0.0,-0.9303,-0.9312,0.0,-0.1124,0.0,0.0,0.0,-0.0,-0.0,-0.0,-0.0,-0.0,-0.0,-0.0,-0.0,-0.0,-0.0,-0.0,-0.0,-0.0,-0.0,-0.0,-0.0,-0.0,-0.0,-0.0,-0.0,-0.0,-0.0,-0.0,-0.0,-0.0,0.2841,0.8244,0.9361,0.9842,0.9822,0.9822,0.9822,0.9836,0.9985,1.0168,1.0371,1.0629,1.0744,1.0365,0.7932,0.7139,0.661,0.0,0.0,0.0,0.0,0.0,0.0,0.0,0.0,-1.0114,-1.0114,-1.0114,0.0,0.0,0.0,0.0,0.0,0.0,0.0,-1.0618,-1.1102,-1.1423,-1.1423,-1.2572,-1.3467,-1.4055,-1.5217,-1.6246,-1.7154,-1.8624,-1.8731,-1.7542,-1.6673,-1.5312,-1.3634,-1.2626,-1.1435,-1.0365,-0.9898,-0.9705,-0.9666,-0.9396,-0.8694,-0.7761,0.0,0.0,0.0,0.0,0.0,0.0,0.0,-0.5488,-0.5452,-0.5542,-0.5589,-0.5616,-0.5766,-0.5705,-0.5623,-0.5766,-0.5806,-0.5808,0.0,0.0,0.0,0.0,0.0,-0.8671,-1.0215,0.0,-0.911,-0.1416,-0.0,0.0,-0.0,-0.0,-0.0,-0.0,-0.0,-0.0,-0.0,-0.0,-0.0,-0.0,-0.0,-0.0,-0.0,-0.0,-0.0,-0.0,-0.0,-0.0,-0.0,-0.0,-0.0,-0.0,-0.0,-0.0,-0.0,-0.0,0.1751,0.492,0.8244,0.9842,0.9822,0.9822,0.9822,0.9836,0.9985,1.0222,1.0507,1.0683,1.0638,1.0672,1.0699,0.6199,-0.0,0.0,0.0,0.0,0.0,0.0,0.0,0.0,0.0,-1.0566,-1.078,-1.0402,0.0,0.0,0.0,0.0,0.0,0.0,0.0,-1.0618,-1.1102,-1.1423,-1.1423,-1.2158,-1.2652,-1.2826,-1.4001,-1.5444,-1.7154,-1.7382,-1.7101,-1.6339,-1.5872,-1.4718,-1.2881,-1.2754,-1.1828,-1.0198,-0.9853,-0.9697,-0.9627,-0.8714,-0.8121,-0.7685,0.0,0.0,0.0,0.0,0.0,0.0,0.0,0.0,0.0,-0.5542,-0.5657,-0.5766,-0.5915,-0.5935,-0.5928,-0.6084,-0.6276,0.0,-0.6195,0.0,0.0,0.0,0.0,0.0,0.0,-0.3375,-0.274,-0.041,-0.0,0.0,-0.0,-0.0,-0.0,-0.0,-0.0,-0.0,-0.0,-0.0,-0.0,-0.0,-0.0,-0.0,-0.0,-0.0,-0.0,-0.0,-0.0,-0.0,-0.0,-0.0,-0.0,-0.0,-0.0,-0.0,-0.0,-0.0,0.0503,0.1624,0.7197,0.9767,0.9842,0.9842,0.9836,0.9836,0.9985,1.0114,1.0236,1.037,1.0636,1.069,1.0665,0.6199,-0.0,0.0,0.0,0.0,0.0,0.0,0.0,0.0,0.0,-1.0549,-1.0535,-1.0178,-1.006,0.0,0.0,0.0,0.0,0.0,0.0,0.0,-1.1102,-1.1423,-1.1423,-1.2104,-1.2532,-1.2665,-1.348,-1.4402,-1.5497,-1.5805,-1.5712,-1.5137,-1.463,-1.3664,-1.2183,-1.2036,-1.1007,-0.9319,-0.8965,-0.8785,-0.8608,-0.7821,-0.7461,-0.7273,0.0,0.0,0.0,0.0,0.0,0.0,0.0,0.0,0.0,-0.5562,-0.5732,-0.5908,-0.6003,-0.5983,-0.5922,-0.6119,-0.6251,0.0,-0.5957,-0.6659,-0.7709,-0.9349,0.0,0.0,0.0,-0.0,-0.0,-0.0,-0.0,0.0,-0.0,-0.0,-0.0,-0.0,-0.0,-0.0,-0.0,-0.0,-0.0,-0.0,-0.0,-0.0,-0.0,-0.0,-0.0,-0.0,-0.0,-0.0,-0.0,-0.0,-0.0,-0.0,-0.0,-0.0,-0.0,-0.0,-0.0,0.0127,0.5485,0.7905,0.7872,0.9246,0.9774,0.9821,0.9908,0.9995,1.0209,1.0405,1.0534,1.0353,0.7474,0.3751,-0.0,0.0,0.0,-1.1893,-1.3381,0.0,0.0,0.0,0.0,-1.0269,-0.9921,-0.9816,-0.982,0.0,0.0,0.0,0.0,0.0,0.0,0.0,-1.1102,-1.1423,-1.1423,-1.2278,-1.2893,-1.32,-1.344,-1.3214,-1.2669,-1.4122,-1.4536,-1.3847,-1.327,-1.2335,-1.1277,-1.0645,-0.9486,-0.7977,-0.7672,-0.7353,-0.7041,-0.6783,-0.6675,-0.6634,-0.6363,0.0,0.0,0.0,0.0,0.0,0.0,0.0,0.0,-0.5623,-0.5827,-0.6051,-0.6051,-0.5962,-0.5889,-0.6013,-0.5798,0.0,-0.5582,-0.6112,0.0,-1.1603,-0.6608,-0.0922,-0.0153,0.0,-0.0,-0.0,-0.0,-0.0,-0.0,-0.0,-0.0,-0.0,-0.0,-0.0,-0.0,-0.0,-0.0,-0.0,-0.0,-0.0,-0.0,-0.0,-0.0,-0.0,-0.0,-0.0,-0.0,-0.0,-0.0,-0.0,-0.0,-0.0,-0.0,-0.0,-0.0,0.0129,0.313,0.4441,0.4671,0.7899,0.9347,0.9331,0.9331,0.9664,1.0317,1.0486,1.0187,0.8967,0.2369,-0.0,-0.0,0.0,0.0,-1.2842,-1.3806,0.0,0.0,0.0,0.0,0.0,0.0,0.0,0.0,0.0,0.0,0.0,0.0,0.0,0.0,-1.0618,-1.1102,-1.1423,-1.1423,-1.2278,-1.2893,-1.32,-1.3026,-1.2479,-1.1504,-1.2907,-1.3101,-1.2083,-1.2475,-1.1805,-1.019,-1.0169,-0.9323,-0.7665,-0.7251,-0.6831,-0.6458,-0.6505,-0.6458,-0.6349,-0.6288,-0.6071,0.0,0.0,0.0,0.0,0.0,0.0,0.0,-0.5861,-0.6064,-0.6213,-0.6213,-0.6268,-0.6403,-0.6659,-0.5241,0.0,0.0,-0.8426,-1.0296,-1.2144,-1.1164,-0.7995,-0.1354,-0.0,-0.0,-0.0,-0.0,-0.0,-0.0,-0.0,-0.0,-0.0,-0.0,-0.0,-0.0,-0.0,-0.0,-0.0,-0.0,-0.0,-0.0,-0.0,-0.0,-0.0,-0.0,-0.0,-0.0,-0.0,-0.0,-0.0,-0.0,-0.0,-0.0,-0.0,-0.0,-0.0,0.076,0.0997,0.123,0.4551,0.5916,0.5933,0.5933,0.7454,0.9915,0.9916,0.6882,0.2173,0.0523,-0.0,-0.0,0.0,0.0,0.0,0.0,0.0,0.0,0.0,0.0,0.0,0.0,0.0,0.0,0.0,0.0,0.0,0.0,-1.0595,-1.0768,-1.0768,-1.1316,-1.177,-1.2051,-1.258,-1.2903,-1.2986,-1.2363,-1.1735,-1.1105,-1.1323,-1.1203,-1.0767,-1.0809,-1.0416,-0.9672,-0.9272,-0.8497,-0.7468,-0.7163,-0.681,-0.6478,-0.6552,-0.6539,-0.6464,-0.639,-0.6173,-0.5901,-0.5827,0.0,0.0,0.0,0.0,0.0,0.0,0.0,-0.6338,-0.6338,-0.6261,-0.6376,-0.6728,0.0,0.0,-0.4113,0.0,-1.0364,-0.7156,-0.6458,-0.5337,-0.0902,-0.0,-0.0,-0.0,-0.0,-0.0,-0.0,-0.0,-0.0,-0.0,-0.0,-0.0,-0.0,-0.0,-0.0,-0.0,-0.0,-0.0,-0.0,-0.0,-0.0,-0.0,-0.0,-0.0,-0.0,-0.0,-0.0,-0.0,-0.0,-0.0,-0.0,-0.0,-0.0,-0.0,-0.0,-0.0,0.0123,0.1847,0.2585,0.2585,0.2585,0.3574,0.507,0.5112,0.3011,-0.0,-0.0,-0.0,-0.0,0.0,0.0,0.0,0.0,0.0,0.0,0.0,0.0,0.0,0.0,0.0,0.0,0.0,0.0,0.0,0.0,0.0,0.0,-1.0995,-1.1543,-1.2204,-1.2795,-1.2822,-1.2849,-1.2903,-1.176,-1.1051,-1.0774,-0.9744,-0.9336,-0.946,-0.9121,-0.9015,-0.9196,-0.8322,-0.774,-0.736,-0.7149,-0.6892,-0.6627,-0.6627,-0.6641,-0.6647,-0.6519,-0.6302,-0.6057,-0.5956,-0.5867,-0.5813,-0.5861,0.0,0.0,0.0,0.0,-0.6338,-0.6338,-0.6186,-0.6183,-0.6708,0.0,-0.5574,-0.1108,-0.4861,0.0,-0.1448,-0.0,-0.0,-0.0,-0.0,-0.0,-0.0,-0.0,-0.0,-0.0,-0.0,-0.0,-0.0,-0.0,-0.0,-0.0,-0.0,-0.0,-0.0,-0.0,-0.0,-0.0,-0.0,-0.0,-0.0,-0.0,-0.0,-0.0,-0.0,-0.0,-0.0,-0.0,-0.0,-0.0,-0.0,-0.0,-0.0,-0.0,-0.0,-0.0,-0.0,-0.0,-0.0,-0.0,-0.0,-0.0,-0.0,-0.0,-0.0,-0.0,-0.0,-0.0,0.0,0.0,0.0,0.0,0.0,0.0,0.0,0.0,0.0,0.0,-1.0732,-1.0421,0.0,0.0,-1.0461,-1.0194,-1.0675,-1.0995,-1.0995,0.0,0.0,-1.2795,-1.2822,-1.2866,-1.3146,-1.1858,-1.0819,-1.0059,-0.8937,-0.8135,-0.7728,-0.8501,-0.8613,-0.8195,-0.7856,-0.755,-0.7346,-0.6932,-0.6586,-0.6322,-0.6322,-0.639,-0.6498,-0.6478,-0.6369,-0.624,-0.6342,-0.6132,-0.584,-0.6112,-0.6125,0.0,0.0,0.0,-0.6338,-0.6338,-0.6335,-0.6519,-0.6927,0.0,-0.4113,0.0,-0.0785,-0.1233,0.0,0.0,-0.0,0.0,-0.0,-0.0,-0.0,-0.0,-0.0,-0.0,-0.0,-0.0,-0.0,-0.0,-0.0,-0.0,-0.0,-0.0,-0.0,-0.0,-0.0,-0.0,-0.0,-0.0,-0.0,-0.0,-0.0,-0.0,-0.0,-0.0,-0.0,-0.0,-0.0,-0.0,-0.0,-0.0,-0.0,-0.0,-0.0,-0.0,-0.0,-0.0,-0.0,-0.0,-0.0,-0.0,-0.0,-0.0,-0.0,-0.0,-0.0,-0.0,0.0,0.0,0.0,0.0,0.0,0.0,0.0,0.0,0.0,0.0,0.0,-1.0514,0.0,-1.0488,-1.0577,-1.0381,-1.0755,-1.1129,-1.1463,-1.173,-1.2064,-1.2478,-1.2492,-1.2559,-1.2692,-1.103,-1.0009,-0.9677,-0.8114,-0.7397,-0.7502,-0.8139,-0.8279,-0.816,-0.7943,-0.7719,-0.7468,-0.7021,-0.6702,-0.6505,-0.6505,-0.6546,-0.66,-0.66,-0.6559,-0.6519,-0.6512,-0.6411,-0.6264,-0.6324,-0.6244,-0.6198,-0.6263,0.0,0.0,0.0,-0.6358,-0.6443,-0.6795,-0.6642,-0.5377,0.0,-0.0,-0.0,-0.0,-0.0,-0.0,-0.0,-0.0,-0.0,-0.0,-0.0,-0.0,-0.0,-0.0,-0.0,-0.0,-0.0,-0.0,-0.0,-0.0,-0.0,-0.0,-0.0,-0.0,-0.0,-0.0,-0.0,-0.0,-0.0,-0.0,-0.0,-0.0,-0.0,-0.0,-0.0,-0.0,-0.0,-0.0,-0.0,-0.0,-0.0,-0.0,-0.0,-0.0,-0.0,-0.0,-0.0,-0.0,-0.0,-0.0,-0.0,-0.0,-0.0,-0.0,-0.0,0.0,0.0,0.0,0.0,0.0,0.0,0.0,0.0,0.0,0.0,0.0,0.0,0.0,0.0,0.0,0.0,-1.0822,-1.1236,-1.1824,-1.1864,-1.1997,-1.2291,-1.207,-1.1922,-1.1922,-0.997,-0.9019,-0.9144,-0.7512,-0.7007,-0.7611,-0.7977,-0.8275,-0.8486,-0.8296,-0.8024,-0.7685,-0.7272,-0.7034,-0.6919,-0.677,-0.6729,-0.6763,-0.6726,-0.6713,-0.6686,-0.6746,-0.6285,-0.571,-0.5549,-0.5466,-0.5466,-0.5466,-0.5466,0.0,0.0,0.0,-0.6389,0.0,0.0,-0.6484,-0.1344,-0.0,-0.0,0.0,0.0,-0.0,0.0,-0.0,-0.0,-0.0,-0.0,-0.0,-0.0,-0.0,-0.0,-0.0,-0.0,-0.0,-0.0,-0.0,-0.0,-0.0,-0.0,-0.0,-0.0,-0.0,-0.0,-0.0,-0.0,-0.0,-0.0,-0.0,-0.0,-0.0,-0.0,-0.0,-0.0,-0.0,-0.0,-0.0,-0.0,-0.0,-0.0,-0.0,-0.0,-0.0,-0.0,-0.0,-0.0,-0.0,-0.0,-0.0,-0.0,-0.0,-0.0,0.0,0.0,0.0,0.0,0.0,0.0,0.0,0.0,0.0,0.0,0.0,0.0,-1.0618,-1.0618,-1.0618,-1.0618,-1.0822,-1.1236,-1.1824,-1.1864,-1.1997,-1.2291,-1.1391,0.0,-1.0858,-0.8912,-0.7949,-0.8049,-0.7193,-0.7007,-0.7611,-0.8187,-0.8689,-0.9096,-0.8804,-0.8431,-0.7997,-0.7692,-0.7563,-0.7602,-0.6867,-0.6719,-0.6761,-0.675,-0.6718,-0.6781,-0.7034,-0.5405,-0.3266,-0.3266,-0.3266,-0.3266,-0.3266,-0.3266,-0.3266,0.0,0.0,0.0,0.0,-0.7098,0.0,-0.1216,-0.0,0.0,0.0,0.0,-0.0,-0.0,-0.0,-0.0,-0.0,-0.0,-0.0,-0.0,-0.0,-0.0,-0.0,-0.0,-0.0,-0.0,-0.0,-0.0,-0.0,-0.0,-0.0,-0.0,-0.0,-0.0,-0.0,-0.0,-0.0,-0.0,-0.0,-0.0,-0.0,-0.0,-0.0,-0.0,-0.0,-0.0,-0.0,-0.0,-0.0,-0.0,-0.0,-0.0,-0.0,-0.0,-0.0,-0.0,-0.0,-0.0,-0.0,-0.0,-0.0,-0.0,0.0,0.0,0.0,0.0,0.0,0.0,0.0,0.0,0.0,0.0,0.0,0.0,0.0,-1.0618,-1.0618,-1.0618,-1.0712,-1.0679,-1.0517,-1.0486,-1.0393,-1.0233,-0.9889,-0.9733,-0.982,-0.8466,-0.7812,-0.788,-0.706,-0.6905,-0.7319,-0.7916,-0.8282,-0.8452,-0.873,-0.8716,-0.8431,-0.7848,-0.7543,-0.7519,-0.7115,-0.6011,-0.4942,-0.6376,-0.6076,-0.4963,-0.6533,-0.6521,-0.5204,-0.2155,-0.1072,-0.107,-0.1144,-0.1139,-0.1135,-0.1118,-0.3535,-0.6368,0.0,0.0,0.0,-0.0394,-0.0,-0.0,-0.0,-0.0,-0.0,-0.0,-0.0,-0.0,-0.0,-0.0,-0.0,-0.0,-0.0,-0.0,-0.0,-0.0,-0.0,-0.0,-0.0,-0.0,-0.0,-0.0,-0.0,-0.0,-0.0,-0.0,-0.0,-0.0,-0.0,-0.0,-0.0,-0.0,-0.0,-0.0,-0.0,-0.0,-0.0,-0.0,-0.0,-0.0,-0.0,-0.0,-0.0,-0.0,-0.0,-0.0,-0.0,-0.0,-0.0,-0.0,-0.0,-0.0,-0.0,-0.0,0.0,0.0,0.0,0.0,0.0,-1.0322,-1.0322,-1.0497,-1.0618,-1.0618,0.0,0.0,0.0,0.0,-1.0637,-1.0316,-0.9957,-0.9604,-0.9344,-0.9298,-0.9269,-0.9093,-0.8817,-0.8663,-0.8731,-0.7753,-0.7326,-0.7326,-0.6877,-0.6824,-0.7082,-0.7678,-0.8018,-0.8133,-0.8479,-0.8662,-0.8676,-0.8126,-0.7938,-0.7815,-0.7336,-0.6162,-0.4745,-0.4729,-0.478,-0.4814,-0.476,-0.4756,-0.4231,-0.1035,-0.0,-0.0,-0.0,-0.0,-0.0,-0.0,-0.2006,-0.4218,-0.4189,0.0,0.0,0.0,-0.0,-0.0,-0.0,0.0,-0.0,-0.0,-0.0,-0.0,-0.0,-0.0,-0.0,-0.0,-0.0,-0.0,-0.0,-0.0,-0.0,-0.0,-0.0,-0.0,-0.0,-0.0,-0.0,-0.0,-0.0,0.0,-0.0,-0.0,-0.0,-0.0,-0.0,-0.0,-0.0,-0.0,-0.0,-0.0,-0.0,-0.0,-0.0,-0.0,-0.0,-0.0,-0.0,-0.0,-0.0,-0.0,-0.0,-0.0,-0.0,-0.0,-0.0,-0.0,-0.0,-0.0,0.0,0.0,-0.9216,-0.9216,-0.9512,-0.9713,-0.9713,-1.0194,-1.0555,-1.0555,0.0,0.0,0.0,0.0,0.0,-0.9746,-0.8646,-0.8169,-0.8534,-0.8554,-0.8725,-0.902,-0.8196,-0.7685,-0.7434,-0.6714,-0.6338,-0.6338,-0.6552,-0.677,-0.6926,-0.7516,-0.795,-0.8235,-0.8092,-0.8275,-0.8669,-0.8513,-0.8668,-0.8737,-0.7563,-0.7058,-0.6345,-0.1758,-0.289,-0.6283,-0.1675,-0.0,-0.0,-0.0,-0.0,-0.0,-0.0,-0.0,-0.0,-0.0,-0.0,-0.0,0.0,0.0,0.0,-0.0,-0.0,0.0,-0.0,0.0,-0.0,-0.0,-0.0,-0.0,-0.0,-0.0,-0.0,-0.0,-0.0,-0.0,-0.0,-0.0,-0.0,-0.0,-0.0,-0.0,-0.0,-0.0,-0.0,-0.0,-0.0,-0.0,-0.0,-0.0,-0.0,-0.0,-0.0,-0.0,-0.0,-0.0,-0.0,-0.0,-0.0,-0.0,-0.0,-0.0,-0.0,-0.0,-0.0,-0.0,-0.0,-0.0,-0.0,-0.0,-0.0,-0.0,-0.0,-0.0,-0.0,-0.0,0.0,-0.9753,-1.0127,-0.9913,-1.0114,-1.0376,-1.0376,-1.051,-1.0364,0.0,0.0,0.0,-0.8942,-0.9098,-0.9193,-0.8908,-0.8644,-0.817,-0.7575,-0.7504,-0.7305,-0.6908,-0.6663,-0.6572,-0.6645,-0.6388,-0.6338,-0.6338,-0.6444,-0.6559,-0.6607,-0.7095,-0.7373,-0.7468,-0.7746,-0.7889,-0.7896,-0.7746,-0.7911,-0.8195,-0.7719,-0.5243,-0.185,-0.0505,-0.0829,-0.1838,-0.0428,-0.0,-0.0,-0.0,-0.0,-0.0,-0.0,-0.0,-0.0,-0.0,-0.0,-0.0,-0.0,0.0,0.0,0.0,0.0,0.0,-0.0,-0.0,-0.0,-0.0,-0.0,-0.0,-0.0,-0.0,-0.0,-0.0,-0.0,-0.0,-0.0,-0.0,-0.0,-0.0,-0.0,-0.0,-0.0,-0.0,-0.0,0.0,-0.0,-0.0,-0.0,-0.0,-0.0,-0.0,-0.0,-0.0,-0.0,-0.0,-0.0,-0.0,-0.0,-0.0,-0.0,-0.0,-0.0,-0.0,-0.0,-0.0,-0.0,-0.0,-0.0,-0.0,-0.0,-0.0,-0.0,-0.0,-0.0,-0.0,-0.9152,-0.9673,-1.01,-0.9806,-1.0194,-1.0618,-1.0618,-1.0432,-1.0114,0.0,0.0,0.0,-0.8483,-0.8297,-0.8171,-0.8162,-0.7785,-0.7302,-0.6695,-0.6622,-0.6449,-0.6023,-0.6091,-0.6139,-0.6166,-0.6227,-0.6338,-0.6338,-0.6403,-0.6505,0.0,-0.6898,-0.7082,-0.7149,-0.7421,-0.7502,-0.7421,-0.7309,-0.747,-0.7738,-0.6559,-0.3695,-0.0,-0.0,-0.0,-0.0,-0.0,-0.0,-0.0,-0.0,-0.0,-0.0,-0.0,-0.0,-0.0,-0.0,-0.0,-0.0,-0.0,-0.0,-0.0,-0.0,0.0,0.0,-0.0,-0.0,-0.0,-0.0,-0.0,-0.0,-0.0,-0.0,-0.0,-0.0,-0.0,-0.0,-0.0,-0.0,-0.0,-0.0,-0.0,-0.0,-0.0,-0.0,-0.0,-0.0,-0.0,-0.0,-0.0,-0.0,-0.0,-0.0,-0.0,-0.0,-0.0,-0.0,-0.0,-0.0,-0.0,-0.0,-0.0,-0.0,-0.0,-0.0,-0.0,-0.0,-0.0,-0.0,-0.0,-0.0,-0.0,-0.0,-0.0,-0.0,-0.0,-0.0,0.0,-0.9312,-0.9588,-0.921,-0.9853,-1.043,-1.0367,-1.0019,-0.9684,0.0,-0.8776,-0.8322,-0.8579,-0.7923,-0.7504,-0.7434,-0.6662,-0.6112,-0.6078,-0.6078,-0.6071,-0.6057,-0.62,-0.622,-0.6078,-0.6213,-0.6281,-0.6281,0.0,0.0,0.0,0.0,-0.7,-0.7034,-0.7068,-0.6917,-0.6751,-0.6709,-0.7001,-0.7343,-0.5191,-0.2581,-0.0,-0.0,-0.0,-0.0,-0.0,-0.0,-0.0,-0.0,-0.0,-0.0,-0.0,-0.0,-0.0,-0.0,-0.0,-0.0,-0.0,-0.0,-0.0,-0.0,-0.0,0.0,-0.0,-0.0,-0.0,-0.0,-0.0,-0.0,-0.0,-0.0,-0.0,-0.0,-0.0,-0.0,-0.0,-0.0,-0.0,-0.0,-0.0,-0.0,-0.0,-0.0,-0.0,-0.0,-0.0,-0.0,-0.0,-0.0,-0.0,-0.0,-0.0,-0.0,-0.0,-0.0,-0.0,-0.0,-0.0,-0.0,-0.0,-0.0,-0.0,-0.0,-0.0,-0.0,-0.0,-0.0,-0.0,-0.0,-0.0,-0.0,-0.0,-0.0,-0.0,-0.0,-0.8804,-0.9472,-0.9766,-0.8848,-0.9249,-0.9568,-0.9059,-0.8816,-0.8531,-0.8141,-0.7334,-0.7046,-0.7381,-0.7183,-0.7077,-0.7168,-0.6901,-0.6647,-0.6403,-0.6383,-0.6335,-0.622,-0.6356,-0.6417,-0.639,-0.6417,-0.643,-0.643,0.0,0.0,0.0,0.0,0.0,-0.69,-0.7027,-0.6054,-0.4306,-0.4322,-0.5437,-0.7152,-0.6691,-0.3918,-0.0,-0.0,-0.0,-0.0,-0.0,-0.0,-0.0,-0.0,-0.0,-0.0,-0.0,-0.0,-0.0,-0.0,-0.0,-0.0,-0.0,-0.0,-0.0,-0.0,-0.0,0.0,-0.0,-0.0,-0.0,-0.0,-0.0,-0.0,-0.0,-0.0,-0.0,-0.0,-0.0,-0.0,-0.0,-0.0,-0.0,-0.0,-0.0,-0.0,-0.0,-0.0,-0.0,-0.0,-0.0,-0.0,-0.0,-0.0,-0.0,-0.0,-0.0,-0.0,-0.0,-0.0,-0.0,-0.0,-0.0,-0.0,-0.0,-0.0,-0.0,-0.0,-0.0,-0.0,-0.0,-0.0,-0.0,-0.0,-0.0,-0.0,-0.0,-0.0,-0.0,-0.0,-0.8908,-0.8899,-0.878,-0.8783,-0.8953,-0.9023,-0.8901,-0.8449,-0.8107,-0.7936,-0.7171,-0.6783,-0.7007,-0.7034,-0.7,-0.6926,-0.6926,-0.6831,-0.66,-0.6586,-0.6552,-0.6485,-0.6546,-0.6586,-0.6586,-0.6586,-0.6586,-0.6586,0.0,0.0,0.0,0.0,0.0,-0.6959,-0.7025,-0.6485,-0.5294,-0.4137,-0.4992,-0.7136,-0.7095,-0.4256,-0.0,-0.0,-0.0,-0.0,-0.0,-0.0,-0.0,-0.0,-0.0,-0.0,-0.0,-0.0,-0.0,-0.0,-0.0,-0.0,-0.0,-0.0,-0.0,-0.0,-0.0,0.0,0.0,-0.0,-0.0,-0.0,-0.0,-0.0,-0.0,-0.0,-0.0,-0.0,-0.0,-0.0,-0.0,-0.0,-0.0,-0.0,-0.0,-0.0,-0.0,-0.0,-0.0,-0.0,-0.0,-0.0,-0.0,-0.0,-0.0,-0.0,-0.0,-0.0,-0.0,-0.0,-0.0,-0.0,-0.0,-0.0,-0.0,-0.0,-0.0,-0.0,-0.0,-0.0,-0.0,-0.0,-0.0,-0.0,-0.0,-0.0,-0.0,-0.0,-0.0,-0.0,-0.8877,-0.8196,-0.7777,-0.8689,-0.8528,-0.8423,-0.8579,-0.8164,-0.7781,-0.799,-0.7425,-0.7034,-0.7095,-0.7149,-0.7143,-0.7054,-0.7,-0.6966,-0.6966,-0.6851,-0.6763,-0.6709,-0.6783,-0.679,-0.6702,-0.6756,-0.677,-0.6742,-0.6742,0.0,0.0,0.0,0.0,-0.7102,-0.7067,-0.7139,-0.6917,-0.4131,-0.4023,-0.5743,-0.5765,-0.3406,-0.0,-0.0,-0.0,-0.0,-0.0,-0.0,-0.0,-0.0,-0.0,-0.0,-0.0,-0.0,-0.0,-0.0,-0.0,-0.0,-0.0,-0.0,-0.0,-0.0,-0.0,-0.0,0.0,0.0,0.0,-0.0,0.0,0.0,0.0,0.0,0.0,-0.0,0.0,0.0,0.0,-0.0,0.0,-0.0,-0.0,-0.0,-0.0,-0.0,-0.0,-0.0,-0.0,-0.0,-0.0,-0.0,-0.0,-0.0,-0.0,-0.0,-0.0,-0.0,-0.0,-0.0,-0.0,-0.0,-0.0,-0.0,-0.0,-0.0,-0.0,-0.0,-0.0,-0.0,-0.0,-0.0,-0.0,-0.0,-0.0,-0.0,-0.0,-0.0,-0.8246,-0.7946,-0.7628,-0.8046,-0.7769,-0.7334,-0.6979,-0.6908,-0.6937,0.0,0.0,-0.7421,-0.7685,-0.7495,-0.7597,-0.8221,-0.7563,-0.7255,-0.7784,-0.7309,-0.6893,-0.6659,-0.7095,-0.7109,-0.6709,-0.6959,-0.7027,-0.6905,-0.6826,-0.682,0.0,0.0,-0.7073,-0.7114,-0.7118,-0.712,-0.6851,-0.2308,-0.058,-0.0789,-0.0833,-0.0431,-0.0,-0.0,-0.0,-0.0,-0.0,-0.0,-0.0,-0.0,-0.0,-0.0,-0.0,-0.0,-0.0,-0.0,-0.0,-0.0,-0.0,-0.0,-0.0,-0.0,-0.0,-0.0,-0.0,0.0,-0.0,-0.0,0.0,-0.0,-0.0,0.0,0.0,0.0,0.0,0.0,-0.0,-0.0,-0.0,-0.0,-0.0,-0.0,-0.0,-0.0,-0.0,-0.0,-0.0,-0.0,-0.0,-0.0,-0.0,-0.0,-0.0,-0.0,-0.0,-0.0,-0.0,-0.0,-0.0,-0.0,-0.0,-0.0,-0.0,-0.0,-0.0,-0.0,-0.0,-0.0,-0.0,-0.0,-0.0,-0.0,-0.0,-0.0,-0.0,-0.0,-0.7716,-0.7076,-0.6597,-0.7328,-0.7049,-0.674,-0.6723,-0.6919,-0.7163,0.0,0.0,-0.7651,-0.8038,-0.77,-0.7635,-0.8323,-0.8259,-0.8069,-0.7831,-0.6643,-0.6338,-0.7175,-0.7329,-0.7336,-0.7258,-0.7184,-0.7034,-0.6976,-0.6982,-0.6265,0.0,-0.6392,-0.7088,-0.6976,-0.4238,-0.2949,-0.2803,-0.0872,-0.0,-0.0,-0.0,-0.0,-0.0,-0.0,-0.0,-0.0,-0.0,-0.0,-0.0,-0.0,-0.0,-0.0,-0.0,-0.0,-0.0,-0.0,-0.0,-0.0,-0.0,-0.0,-0.0,-0.0,-0.0,-0.0,-0.0,-0.0,-0.0,-0.0,0.0,0.0,0.0,0.0,0.0,0.0,-0.0,-0.0,0.0,0.0,-0.0,-0.0,0.0,0.0,-0.0,-0.0,-0.0,-0.0,-0.0,-0.0,-0.0,-0.0,-0.0,-0.0,-0.0,-0.0,-0.0,-0.0,-0.0,-0.0,-0.0,-0.0,-0.0,-0.0,-0.0,-0.0,-0.0,-0.0,-0.0,-0.0,-0.0,-0.0,-0.0,-0.0,-0.0,-0.0,-0.0,-0.0,-0.6963,-0.6261,-0.5937,-0.7033,-0.6745,-0.6451,-0.6824,-0.7163,-0.7441,-0.7631,-0.7658,-0.7848,-0.8336,-0.7853,-0.782,-0.8622,-0.8696,-0.8611,-0.8508,-0.6095,-0.5635,-0.7665,-0.687,-0.6463,-0.6338,-0.6306,-0.6227,-0.61,-0.6786,-0.6222,0.0,-0.5006,-0.5179,-0.5043,-0.1532,-0.0,-0.0,-0.0,-0.0,-0.0,-0.0,-0.0,-0.0,-0.0,-0.0,-0.0,-0.0,-0.0,-0.0,-0.0,-0.0,0.0,-0.0,-0.0,-0.0,-0.0,-0.0,-0.0,-0.0,-0.0,-0.0,-0.0,-0.0,-0.0,-0.0,-0.0,-0.0,-0.0,-0.0,0.0,0.0,0.0,-0.0,-0.0,0.0,-0.0,-0.0,-0.0,-0.0,-0.0,0.0,0.0,0.0,-0.0,-0.0,-0.0,-0.0,-0.0,-0.0,-0.0,-0.0,-0.0,-0.0,-0.0,-0.0,-0.0,-0.0,-0.0,-0.0,-0.0,-0.0,-0.0,-0.0,-0.0,-0.0,-0.0,-0.0,-0.0,-0.0,-0.0,-0.0,-0.0,-0.0,-0.0,-0.0,-0.0,-0.5851,-0.5748,-0.6008,-0.7358,-0.6984,-0.6668,-0.7258,-0.736,-0.7475,-0.7767,-0.7801,-0.8031,-0.8628,-0.8043,-0.8244,-0.9685,-0.866,-0.8725,-1.0484,-0.6284,-0.4932,-0.7903,-0.5527,-0.3881,-0.323,-0.383,-0.3967,-0.3701,-0.6021,-0.7075,-0.6905,-0.2355,-0.0198,-0.0201,-0.0099,-0.0,-0.0,-0.0,-0.0,-0.0,-0.0,-0.0,-0.0,0.0,-0.0,-0.0,-0.0,0.0,0.0,-0.0,-0.0,0.0,0.0,0.0,-0.0,-0.0,-0.0,-0.0,-0.0,-0.0,-0.0,-0.0,-0.0,-0.0,-0.0,-0.0,-0.0,-0.0,-0.0,-0.0,-0.0,-0.0,-0.0,-0.0,-0.0,0.0,0.0,-0.0,-0.0,-0.0,-0.0,0.0,0.0,-0.0,-0.0,-0.0,-0.0,-0.0,-0.0,-0.0,-0.0,-0.0,-0.0,-0.0,-0.0,-0.0,-0.0,-0.0,-0.0,-0.0,-0.0,-0.0,-0.0,-0.0,-0.0,-0.0,-0.0,-0.0,-0.0,-0.0,-0.0,-0.0,-0.0,-0.0,-0.0,-0.0,-0.6064,-0.6064,-0.6228,-0.6689,-0.6781,-0.6905,-0.7312,-0.7536,-0.7807,-0.8201,-0.804,-0.8252,-0.9162,-0.8389,-0.7562,-0.6643,-0.8527,-0.9655,-0.949,-0.8158,-0.5971,-0.2833,-0.5269,-0.4906,-0.1119,-0.1221,-0.1318,-0.121,-0.1994,-0.2386,-0.2402,-0.08,-0.0,-0.0,-0.0,-0.0,-0.0,-0.0,-0.0,-0.0,0.0,-0.0,-0.0,0.0,-0.0,-0.0,-0.0,-0.0,0.0,-0.0,-0.0,-0.0,-0.0,-0.0,-0.0,-0.0,-0.0,-0.0,0.0,0.0,-0.0,-0.0,0.0,-0.0,-0.0,-0.0,-0.0,-0.0,-0.0,-0.0,-0.0,-0.0,-0.0,-0.0,-0.0,-0.0,0.0,-0.0,-0.0,-0.0,-0.0,-0.0,0.0,0.0,-0.0,-0.0,-0.0,-0.0,-0.0,-0.0,-0.0,-0.0,-0.0,-0.0,-0.0,-0.0,-0.0,-0.0,-0.0,-0.0,-0.0,-0.0,-0.0,-0.0,-0.0,-0.0,-0.0,-0.0,-0.0,-0.0,-0.0,-0.0,-0.0,-0.0,-0.0,-0.0,-0.6376,-0.6464,-0.6498,-0.6498,-0.6824,-0.7183,-0.7482,-0.7634,-0.7877,-0.8315,-0.8375,-0.8304,-0.7638,-0.7846,-0.7687,-0.696,-0.6896,-0.7609,-0.9367,-0.7322,-0.4255,-0.0221,-0.3316,-0.351,-0.0108,-0.0,-0.0,-0.0,-0.0,-0.0,-0.0,-0.0,-0.0,-0.0,-0.0,-0.0,-0.0,-0.0,-0.0,-0.0,0.0,-0.0,0.0,0.0,-0.0,-0.0,0.0,-0.0,-0.0,-0.0,-0.0,-0.0,-0.0,-0.0,-0.0,-0.0,-0.0,0.0468,0.2894,0.3498,0.0,0.3445,0.3208,0.0,0.2799,0.2865,0.3026,0.3699,0.1764,0.0629,0.254,0.1285,-0.0,-0.0,-0.0,-0.0,0.0,-0.0,-0.0,-0.0,-0.0,-0.0,-0.0,-0.0,-0.0,-0.0,-0.0,-0.0,-0.0,-0.0,-0.0,-0.0,-0.0,-0.0,-0.0,-0.0,-0.0,-0.0,-0.0,-0.0,-0.0,-0.0,-0.0,-0.0,-0.0,-0.0,-0.0,-0.0,-0.0,-0.0,-0.0,-0.0,-0.0,-0.0,-0.0,-0.0,-0.6722,-0.6851,-0.6966,-0.6973,-0.7204,-0.7489,-0.7773,-0.7808,-0.7724,-0.7756,-0.8616,-0.7954,-0.4646,-0.6332,-0.8274,-0.9984,-0.3988,-0.2837,-0.9707,-0.4116,-0.0367,-0.0,-0.0,-0.0,-0.0,-0.0,-0.0,-0.0,-0.0,-0.0,-0.0,-0.0,0.0,-0.0,-0.0,-0.0,-0.0,-0.0,-0.0,-0.0,-0.0,-0.0,-0.0,-0.0,-0.0,-0.0,-0.0,-0.0,-0.0,-0.0,-0.0,-0.0,-0.0,-0.0,-0.0,-0.0,0.0235,0.1869,0.8082,0.9843,0.9802,0.9749,0.8897,0.0,0.0,0.0,0.8459,1.0184,0.516,0.2019,0.7034,0.3821,0.04,0.0392,0.0289,0.0187,0.0176,0.0174,0.0174,0.0174,0.0174,0.0174,-0.0,-0.0,-0.0,-0.0,-0.0,-0.0,0.0,-0.0,-0.0,-0.0,-0.0,-0.0,-0.0,-0.0,-0.0,-0.0,-0.0,-0.0,-0.0,-0.0,-0.0,-0.0,-0.0,-0.0,-0.0,-0.0,-0.0,-0.0,-0.0,-0.0,-0.0,-0.0,-0.0,-0.0,-0.6987,-0.7244,-0.7461,-0.7563,-0.7645,-0.7733,-0.7724,-0.8097,-0.758,-0.5378,-0.6239,-0.7551,-0.8859,-0.4895,-0.2257,-0.2689,-0.1072,-0.0794,-0.2583,-0.605,-0.5579,-0.0246,-0.0,-0.0,-0.0,-0.0,-0.0,-0.0,-0.0,-0.0,-0.0,-0.0,0.0,-0.0,0.0,-0.0,-0.0,-0.0,-0.0,-0.0,-0.0,-0.0,-0.0,0.0,-0.0,-0.0,-0.0,-0.0,-0.0,-0.0,-0.0,-0.0,-0.0,-0.0,-0.0,-0.0,0.35,0.7675,0.9327,0.9792,0.9849,0.9824,0.9523,0.9325,0.0,0.0,0.0,0.0,0.0,0.0,0.7861,0.7211,0.6507,0.6018,0.4091,0.2665,0.267,0.266,0.266,0.266,0.266,0.1953,0.0178,-0.0,-0.0,-0.0,-0.0,-0.0,-0.0,0.0,-0.0,-0.0,-0.0,-0.0,-0.0,-0.0,-0.0,-0.0,-0.0,-0.0,-0.0,-0.0,-0.0,-0.0,-0.0,-0.0,-0.0,-0.0,-0.0,-0.0,-0.0,-0.0,-0.0,-0.0,-0.0,-0.0,-0.721,-0.7482,-0.7719,-0.7794,-0.7832,-0.7909,-0.782,-0.8197,-0.7802,-0.6016,-0.4416,-0.5347,-1.0221,-0.4275,-0.0,-0.0,-0.0,-0.0,-0.0,-0.3803,-0.4169,-0.0128,-0.0,-0.0,-0.0,-0.0,-0.0,-0.0,-0.0,-0.0,-0.0,0.0,0.0,0.0,0.0,-0.0,-0.0,-0.0,-0.0,-0.0,-0.0,-0.0,0.0,-0.0,-0.0,-0.0,-0.0,-0.0,-0.0,-0.0,-0.0,-0.0,-0.0,-0.0,-0.0,-0.0,0.2661,0.6102,0.8995,0.9856,0.9781,0.9856,0.9815,0.9856,0.9788,0.9327,0.8819,0.0,0.9069,0.9126,0.0,0.8479,0.8411,0.8028,0.6513,0.5315,0.5344,0.5334,0.5319,0.5175,0.517,0.4611,0.323,0.1242,-0.0,-0.0,-0.0,0.0,0.0,0.0,-0.0,-0.0,-0.0,-0.0,-0.0,-0.0,-0.0,-0.0,-0.0,-0.0,-0.0,-0.0,-0.0,-0.0,-0.0,-0.0,-0.0,-0.0,-0.0,-0.0,-0.0,-0.0,-0.0,-0.0,-0.0,-0.0,-0.7434,-0.7658,-0.7848,-0.7848,-0.7924,-0.7991,-0.8047,-0.7662,-0.7647,-0.7982,-0.374,-0.2939,-0.8621,-0.4519,-0.1076,-0.0135,-0.0,-0.0,-0.0,-0.0,-0.0,-0.0,-0.0,-0.0,-0.0,-0.0,-0.0,-0.0,-0.0,-0.0,-0.0,0.0,0.0,0.0,0.0,0.0,0.0,-0.0,-0.0,-0.0,-0.0,-0.0,-0.0,-0.0,-0.0,-0.0,-0.0,-0.0,-0.0,-0.0,-0.0,-0.0,-0.0,-0.0,-0.0,-0.0,-0.0,0.1442,0.7955,0.9836,0.9822,0.9822,0.9822,0.9754,0.9738,0.9799,0.9764,0.9853,0.9831,0.9647,0.9064,0.8375,0.7985,0.8014,0.776,0.7665,0.7645,0.7645,0.7496,0.7178,0.7165,0.0,0.7141,0.3045,0.0355,-0.0,-0.0,0.0,0.0,0.0,-0.0,-0.0,-0.0,-0.0,-0.0,-0.0,-0.0,-0.0,-0.0,-0.0,-0.0,-0.0,-0.0,-0.0,-0.0,-0.0,-0.0,-0.0,-0.0,-0.0,-0.0,-0.0,-0.0,-0.0,-0.0,-0.0,-0.7637,-0.7805,-0.7932,-0.7932,-0.8027,-0.8017,-0.8002,-0.6124,-0.5436,-0.7671,-0.5972,-0.3853,-0.2004,-0.6049,-0.6472,-0.0538,-0.0,-0.0,-0.0,-0.0,-0.0,-0.0,-0.0,-0.0,-0.0,-0.0,-0.0,-0.0,-0.0,-0.0,-0.0,-0.0,-0.0,0.0,0.0,0.0,-0.0,-0.0,0.0,-0.0,-0.0,-0.0,-0.0,-0.0,-0.0,-0.0,-0.0,-0.0,-0.0,-0.0,-0.0,-0.0,-0.0,-0.0,-0.0,-0.0,-0.0,0.1442,0.7955,0.9836,0.9822,0.9822,0.9822,0.9808,0.9754,0.9747,0.9861,0.9834,0.9815,0.962,0.9037,0.0,0.8174,0.7771,0.7801,0.774,0.7624,0.7611,0.7597,0.7476,0.747,0.7423,0.7099,0.4606,0.214,0.0178,-0.0,0.0,0.0,0.0,-0.0,0.0,-0.0,0.0,0.0,0.0,-0.0,-0.0,-0.0,-0.0,-0.0,-0.0,-0.0,-0.0,-0.0,-0.0,-0.0,-0.0,-0.0,-0.0,-0.0,-0.0,-0.0,-0.0,-0.0,-0.0,-0.7628,-0.7925,-0.8046,-0.7956,-0.8047,-0.8014,-0.8038,-0.4567,-0.2334,-0.3717,-0.5558,-0.5089,-0.0526,-0.307,-0.377,-0.0269,-0.0,-0.0,-0.0,-0.0,-0.0,-0.0,-0.0,-0.0,-0.0,-0.0,-0.0,-0.0,-0.0,-0.0,-0.0,-0.0,-0.0,-0.0,0.0,-0.0,0.0,0.0,0.0,-0.0,-0.0,-0.0,-0.0,-0.0,-0.0,-0.0,-0.0,-0.0,-0.0,-0.0,-0.0,-0.0,-0.0,-0.0,-0.0,-0.0,0.246,0.5716,0.8973,0.9781,0.9822,0.9822,0.9822,0.9822,0.9822,0.9822,0.9822,0.9822,0.9834,0.9614,0.8997,0.8615,0.0,0.0,0.8031,0.7936,0.7943,0.7875,0.7801,0.7719,0.7645,0.7577,0.7416,0.6162,0.498,0.3771,0.137,0.0,0.0,0.0,-0.0,0.0,0.0,0.0,-0.0,0.0,-0.0,-0.0,-0.0,-0.0,-0.0,-0.0,-0.0,-0.0,-0.0,-0.0,-0.0,-0.0,-0.0,-0.0,-0.0,-0.0,-0.0,-0.0,-0.0,-0.0,-0.7616,-0.7968,-0.7982,-0.8041,-0.8008,-0.8027,-0.7942,-0.3406,-0.0,-0.0,-0.3739,-0.4631,-0.0521,-0.0,-0.0,-0.0,-0.0,-0.0,-0.0,-0.0,-0.0,-0.0,-0.0,-0.0,-0.0,-0.0,-0.0,-0.0,-0.0,-0.0,-0.0,-0.0,-0.0,0.0,0.0,0.0,0.0,0.0,-0.0,-0.0,-0.0,-0.0,-0.0,-0.0,-0.0,-0.0,-0.0,-0.0,-0.0,-0.0,-0.0,-0.0,-0.0,-0.0,-0.0,-0.0,0.4508,0.9669,0.9717,0.9827,0.9788,0.9815,0.9822,0.9822,0.9822,0.9822,0.9822,0.9822,0.9713,0.96,0.895,0.8669,0.0,0.0,0.8269,0.8153,0.8214,0.8147,0.8031,0.7875,0.776,0.7665,0.7604,0.7376,0.6999,0.6358,0.3347,0.0,0.0093,0.0,0.0,0.0,0.0,-0.0,-0.0,0.0,-0.0,-0.0,-0.0,-0.0,-0.0,-0.0,-0.0,-0.0,-0.0,-0.0,-0.0,-0.0,-0.0,-0.0,-0.0,-0.0,-0.0,-0.0,-0.0,-0.0,-0.7535,-0.8042,-0.8015,-0.8055,-0.795,-0.7969,-0.8001,-0.341,-0.0,-0.0,-0.0402,-0.0536,-0.0,-0.0,-0.0,-0.0,-0.0,-0.0,-0.0,-0.0,-0.0,-0.0,-0.0,-0.0,-0.0,-0.0,-0.0,-0.0,-0.0,-0.0,-0.0,-0.0,-0.0,0.0,0.0,0.0,0.0,-0.0,-0.0,-0.0,-0.0,-0.0,-0.0,-0.0,-0.0,-0.0,-0.0,-0.0,-0.0,-0.0,-0.0,-0.0,-0.0,-0.0,-0.0,-0.0,0.423,0.9151,0.9662,0.9744,0.9786,0.9788,0.9822,0.9822,0.9822,0.9822,0.9822,0.9822,0.9707,0.9392,0.8957,0.8876,0.875,0.0,0.0,0.835,0.8099,0.8167,0.8194,0.8038,0.8004,0.7896,0.7624,0.7751,0.6846,0.4154,0.547,0.0,0.0,0.0,0.0,-0.0,-0.0,-0.0,-0.0,-0.0,-0.0,-0.0,-0.0,-0.0,-0.0,-0.0,-0.0,-0.0,-0.0,-0.0,-0.0,-0.0,-0.0,-0.0,-0.0,-0.0,-0.0,-0.0,-0.0,-0.0,-0.295,-0.5769,-0.8046,0.0,0.0,0.0,0.0,-0.1332,-0.0,-0.0,-0.0,-0.0,-0.0,-0.0,-0.0,-0.0,-0.0,-0.0,-0.0,-0.0,-0.0,-0.0,-0.0,-0.0,-0.0,-0.0,-0.0,-0.0,-0.0,-0.0,-0.0,-0.0,0.0,0.0,0.0,-0.0,-0.0,-0.0,-0.0,-0.0,-0.0,-0.0,-0.0,-0.0,-0.0,-0.0,-0.0,0.2498,0.5899,0.5881,0.3317,-0.0,-0.0,-0.0,0.0678,0.4283,0.6982,0.8987,0.9202,0.9479,0.9754,0.9808,0.9822,0.9822,0.9822,0.9822,0.9822,0.9822,0.9707,0.9453,0.9332,0.9044,0.8906,0.8818,0.0,0.8343,0.8309,0.8208,0.8072,0.7923,0.7902,0.7855,0.774,0.7654,0.6801,0.4856,0.6549,0.0,0.0,0.0,0.0,-0.0,0.0,-0.0,-0.0,-0.0,-0.0,-0.0,-0.0,-0.0,-0.0,-0.0,-0.0,-0.0,-0.0,-0.0,-0.0,-0.0,-0.0,-0.0,-0.0,-0.0,-0.0,-0.0,-0.0,-0.0,-0.0,0.0,-0.5626,0.0,-0.2508,-0.0,-0.0,-0.0,-0.0,-0.0,-0.0,-0.0,-0.0,-0.0,-0.0,-0.0,-0.0,-0.0,-0.0,-0.0,-0.0,-0.0,-0.0,-0.0,-0.0,-0.0,-0.0,-0.0,-0.0,-0.0,-0.0,0.0,0.0,0.0,-0.0,-0.0,-0.0,-0.0,-0.0,-0.0,-0.0,-0.0,-0.0,-0.0,0.1134,0.2621,0.283,0.5279,0.8451,0.9504,0.6763,0.2896,0.2871,0.2744,0.3413,0.7644,0.8917,0.8987,0.9136,0.9446,0.9768,0.9808,0.9822,0.9822,0.9822,0.9822,0.9808,0.9768,0.9713,0.9646,0.9557,0.9286,0.9076,0.9089,0.0,0.8404,0.8418,0.8241,0.8052,0.7896,0.7875,0.7862,0.7814,0.7674,0.7131,0.6179,0.0,0.0,0.0,0.0,0.0,0.0,0.0,0.0,-0.0,-0.0,-0.0,-0.0,-0.0,-0.0,-0.0,-0.0,-0.0,-0.0,-0.0,-0.0,-0.0,-0.0,-0.0,-0.0,-0.0,-0.0,-0.0,-0.0,-0.0,-0.0,-0.0,-0.0,-0.013,-0.0134,-0.0,-0.0,-0.0,-0.0,-0.0,-0.0,-0.0,-0.0,-0.0,-0.0,-0.0,-0.0,-0.0,-0.0,-0.0,-0.0,-0.0,-0.0,-0.0,-0.0,-0.0,-0.0,-0.0,-0.0,-0.0,-0.0,-0.0,0.0,-0.0,-0.0,-0.0,-0.0,-0.0,-0.0,-0.0,-0.0,-0.0,-0.0,-0.0,-0.0,0.364,0.8825,0.9439,0.7601,0.541,0.8722,0.9779,0.9717,0.9666,0.9319,0.8811,0.8903,0.8943,0.9071,0.9578,0.9738,0.9772,0.9788,0.9822,0.9822,0.9822,0.9822,0.9781,0.952,0.96,0.9727,0.9435,0.9381,0.9279,0.8988,0.0,0.0,0.8316,0.8269,0.8208,0.8058,0.8038,0.7977,0.7828,0.7872,0.7905,0.766,0.0,0.0,0.0,0.0,0.0,-0.0,-0.0,0.0,-0.0,-0.0,-0.0,-0.0,-0.0,-0.0,-0.0,-0.0,-0.0,-0.0,-0.0,-0.0,-0.0,-0.0,-0.0,-0.0,-0.0,-0.0,-0.0,-0.0,-0.0,-0.0,-0.0,-0.0,-0.0,-0.0,-0.0,-0.0,-0.0,-0.0,-0.0,-0.0,-0.0,-0.0,-0.0,-0.0,-0.0,-0.0,-0.0,-0.0,0.0,-0.0,-0.0,-0.0,-0.0,-0.0,-0.0,-0.0,-0.0,-0.0,0.0,0.0,0.0,-0.0,-0.0,-0.0,-0.0,-0.0,-0.0,-0.0,-0.0,-0.0,-0.0,-0.0,-0.0,-0.0,0.3989,0.949,0.9676,0.9157,0.8426,0.9413,0.9827,0.9854,0.9787,0.9408,0.8935,0.8904,0.8843,0.9083,0.9606,0.9808,0.9768,0.9808,0.9822,0.9822,0.9822,0.9822,0.9808,0.9761,0.9788,0.9795,0.97,0.9517,0.9354,0.9252,0.8852,0.0,0.8425,0.8241,0.8058,0.7902,0.7977,0.7977,0.7828,0.7957,0.7932,0.0,0.0,0.0,0.0,0.0,0.0,0.0,-0.0,0.0,-0.0,-0.0,-0.0,-0.0,-0.0,-0.0,-0.0,-0.0,-0.0,-0.0,-0.0,-0.0,-0.0,-0.0,-0.0,-0.0,-0.0,-0.0,-0.0,-0.0,-0.0,-0.0,-0.0,-0.0,-0.0,-0.0,-0.0,-0.0,-0.0,-0.0,-0.0,-0.0,-0.0,-0.0,-0.0,-0.0,0.0,-0.0,-0.0,-0.0,-0.0,-0.0,-0.0,-0.0,-0.0,-0.0,-0.0,-0.0,0.0,-0.0,-0.0,-0.0,-0.0,-0.0,-0.0,-0.0,-0.0,-0.0,-0.0,-0.0,-0.0,-0.0,-0.0,-0.0,0.0238,0.2733,0.5483,0.8147,0.9321,0.9765,0.9754,0.9727,0.9761,0.9808,0.984,0.9585,0.9195,0.8928,0.8871,0.8987,0.9586,0.9765,0.9822,0.9822,0.9822,0.9822,0.9822,0.9822,0.9808,0.9754,0.9788,0.9788,0.968,0.9503,0.9361,0.9306,0.8838,0.8479,0.8479,0.8228,0.8004,0.7909,0.7984,0.8004,0.0,0.8038,0.8099,0.0,0.0,0.0,0.0,0.0,0.0,-0.0,-0.0,-0.0,-0.0,-0.0,-0.0,-0.0,-0.0,-0.0,-0.0,-0.0,-0.0,-0.0,-0.0,-0.0,-0.0,-0.0,-0.0,-0.0,-0.0,-0.0,-0.0,-0.0,-0.0,-0.0,-0.0,-0.0,-0.0,-0.0,-0.0,-0.0,-0.0,-0.0,-0.0,-0.0,-0.0,-0.0,-0.0,-0.0,-0.0,-0.0,0.0,0.0,-0.0,-0.0,-0.0,-0.0,-0.0,-0.0,-0.0,-0.0,-0.0,-0.0,-0.0,-0.0,-0.0,-0.0,-0.0,-0.0,-0.0,-0.0,-0.0,-0.0,-0.0,-0.0,-0.0,-0.0,0.0725,0.6784,0.7552,0.5663,0.876,0.9765,0.9646,0.9774,0.9822,0.9822,0.9822,0.9854,0.9717,0.9078,0.9013,0.9116,0.9612,0.9834,0.9822,0.9822,0.9822,0.9822,0.9822,0.9822,0.9788,0.9779,0.9854,0.9734,0.9449,0.9388,0.9327,0.9164,0.8771,0.8479,0.8465,0.8221,0.8038,0.8038,0.0,0.0,0.8038,0.818,0.8214,0.0,0.0,0.0,0.0,0.0,0.0421,-0.0,-0.0,-0.0,-0.0,-0.0,-0.0,-0.0,-0.0,-0.0,-0.0,-0.0,-0.0,-0.0,-0.0,-0.0,-0.0,-0.0,-0.0,-0.0,-0.0,-0.0,-0.0,-0.0,-0.0,-0.0,0.0,0.0,-0.0,-0.0,-0.0,-0.0,-0.0,-0.0,-0.0,-0.0,-0.0,-0.0,-0.0,-0.0,-0.0,-0.0,-0.0,-0.0,-0.0,-0.0,-0.0,-0.0,-0.0,-0.0,-0.0,-0.0,-0.0,-0.0,-0.0,-0.0,-0.0,-0.0,-0.0,-0.0,-0.0,-0.0,-0.0,-0.0,-0.0,-0.0,-0.0,-0.0,0.0123,0.1715,0.5011,0.8684,0.9552,0.9788,0.9774,0.9808,0.9822,0.9822,0.9822,0.9802,0.9741,0.9598,0.9585,0.9612,0.9731,0.9834,0.9822,0.9822,0.9822,0.9822,0.9822,0.9822,0.9815,0.9781,0.9802,0.9768,0.9591,0.9462,0.9293,0.9035,0.8703,0.8445,0.8336,0.816,0.8038,0.0,0.8147,0.8167,0.8052,0.818,0.8303,0.0,0.0,0.8196,0.7818,0.6769,0.4279,0.0109,-0.0,-0.0,-0.0,-0.0,-0.0,-0.0,-0.0,-0.0,-0.0,-0.0,-0.0,-0.0,-0.0,-0.0,-0.0,-0.0,-0.0,-0.0,-0.0,-0.0,-0.0,-0.0,-0.0,-0.0,-0.0,-0.0,-0.0,-0.0,-0.0,-0.0,-0.0,-0.0,-0.0,-0.0,-0.0,-0.0,-0.0,-0.0,-0.0,-0.0,-0.0,-0.0,-0.0,-0.0,-0.0,-0.0,-0.0,-0.0,-0.0,-0.0,-0.0,-0.0,-0.0,-0.0,-0.0,-0.0,-0.0,-0.0,-0.0,-0.0,-0.0,-0.0,-0.0,0.0247,0.3211,0.4447,0.4444,0.4429,0.6644,0.9754,0.9849,0.9829,0.9822,0.9822,0.9822,0.9822,0.9822,0.9822,0.9808,0.9854,0.9827,0.9827,0.9827,0.9768,0.9822,0.9822,0.9822,0.9822,0.9822,0.9822,0.9822,0.9822,0.9822,0.9774,0.9639,0.9429,0.9205,0.8974,0.8628,0.8357,0.8282,0.814,0.8065,0.814,0.8275,0.8364,0.835,0.8547,0.8648,0.8594,0.871,0.0,0.8622,0.8527,0.5847,0.0223,-0.0,-0.0,-0.0,-0.0,-0.0,-0.0,-0.0,-0.0,-0.0,-0.0,-0.0,-0.0,-0.0,-0.0,-0.0,-0.0,-0.0,-0.0,-0.0,-0.0,-0.0,-0.0,-0.0,-0.0,-0.0,-0.0,-0.0,-0.0,-0.0,-0.0,-0.0,-0.0,-0.0,-0.0,-0.0,-0.0,-0.0,-0.0,-0.0,-0.0,-0.0,-0.0,-0.0,-0.0,-0.0,-0.0,-0.0,-0.0,-0.0,-0.0,-0.0,-0.0,-0.0,-0.0,-0.0,-0.0,-0.0,-0.0,-0.0,-0.0,-0.0,-0.0,-0.0,0.0617,0.7182,0.9814,0.9814,0.9781,0.9767,0.989,0.989,0.989,0.989,0.989,0.9876,0.9863,0.9883,0.9856,0.9829,0.9754,0.9876,0.9856,0.9978,0.9856,0.9863,0.9883,0.9856,0.9829,0.9849,0.9856,0.9856,0.9856,0.9856,0.9815,0.9666,0.9374,0.9096,0.8933,0.8547,0.8262,0.8241,0.0,0.8106,0.8282,0.8431,0.8574,0.873,0.8994,0.9055,0.8832,0.9164,0.9232,0.8893,0.8949,0.6465,0.0814,0.0239,-0.0,-0.0,-0.0,-0.0,-0.0,-0.0,-0.0,-0.0,-0.0,-0.0,-0.0,-0.0,-0.0,-0.0,-0.0,-0.0,-0.0,-0.0,-0.0,-0.0,-0.0,-0.0,-0.0,-0.0,-0.0,-0.0,-0.0,-0.0,-0.0,-0.0,-0.0,-0.0,-0.0,-0.0,-0.0,-0.0,-0.0,-0.0,-0.0,-0.0,-0.0,-0.0,-0.0,-0.0,-0.0,-0.0,-0.0,-0.0,-0.0,-0.0,-0.0,-0.0,-0.0,-0.0,-0.0,-0.0,-0.0,-0.0,-0.0,-0.0,-0.0,-0.0,0.0617,0.7182,0.9814,0.9821,0.9771,0.9921,1.0066,1.0168,1.0209,1.0209,1.0209,1.012,1.0039,1.0168,1.0032,0.9747,0.9745,0.9988,1.0273,1.0528,1.0143,0.9915,1.0175,1.0012,0.9856,0.9854,1.0019,1.0143,1.0143,1.0012,0.9971,0.9815,0.9442,0.9062,0.8791,0.8479,0.8221,0.8092,0.0,0.814,0.8418,0.8581,0.8737,0.8886,0.9055,0.9191,0.9273,0.934,0.9462,0.9639,0.9632,0.7851,0.3959,0.1373,-0.0,-0.0,-0.0,-0.0,-0.0,-0.0,-0.0,-0.0,-0.0,-0.0,-0.0,-0.0,-0.0,-0.0,-0.0,-0.0,-0.0,-0.0,-0.0,-0.0,-0.0,-0.0,-0.0,-0.0,-0.0,-0.0,-0.0,-0.0,-0.0,-0.0,-0.0,-0.0,-0.0,-0.0,-0.0,-0.0,-0.0,-0.0,-0.0,-0.0,-0.0,-0.0,-0.0,-0.0,-0.0,-0.0,-0.0,-0.0,-0.0,-0.0,-0.0,-0.0,-0.0,-0.0,-0.0,-0.0,-0.0,-0.0,-0.0,-0.0,-0.0,0.2248,0.5882,0.6934,0.8483,1.0148,1.0049,1.0055,1.0069,1.0263,1.041,1.041,1.0283,1.0236,1.0188,1.0256,1.0181,1.0093,0.9976,1.0229,1.0559,1.0566,1.0307,1.0062,1.0263,1.0175,1.0086,1.0029,1.0175,1.0301,1.0301,1.0175,1.0127,0.9971,0.9578,0.9259,0.9205,0.8676,0.8303,0.8391,0.833,0.8357,0.8581,0.8879,0.9164,0.9395,0.9551,0.9666,0.9734,0.9815,0.989,0.9937,0.9982,0.9348,0.774,0.2709,-0.0,-0.0,-0.0,-0.0,-0.0,-0.0,-0.0,-0.0,-0.0,-0.0,-0.0,-0.0,-0.0,-0.0,-0.0,-0.0,-0.0,-0.0,-0.0,-0.0,-0.0,-0.0,-0.0,-0.0,-0.0,-0.0,-0.0,-0.0,-0.0,-0.0,-0.0,-0.0,-0.0,-0.0,-0.0,-0.0,-0.0,-0.0,-0.0,-0.0,-0.0,-0.0,-0.0,-0.0,-0.0,-0.0,-0.0,-0.0,-0.0,-0.0,-0.0,-0.0,-0.0,-0.0,-0.0,-0.0,-0.0,-0.0,0.0866,0.2484,0.2513,0.5189,0.9298,0.7306,0.8103,1.0317,1.0196,1.0196,1.0203,1.0371,1.0513,1.0513,1.0385,1.0358,1.0337,1.0371,1.0337,1.0424,1.023,1.0513,1.0649,1.0513,1.0358,1.0337,1.0371,1.0331,1.029,1.0189,1.0331,1.0458,1.0458,1.0331,1.029,1.0175,0.9788,0.951,0.9598,0.0,0.8547,0.8737,0.8662,0.8669,0.8893,0.9225,0.9564,0.9897,1.0032,1.01,1.01,1.0243,1.0276,1.0161,1.0317,1.0078,0.9144,0.3175,-0.0,-0.0,-0.0,-0.0,-0.0,-0.0,-0.0,-0.0,-0.0,-0.0,-0.0,-0.0,-0.0,-0.0,-0.0,-0.0,-0.0,-0.0,-0.0,-0.0,-0.0,-0.0,-0.0,-0.0,-0.0,-0.0,-0.0,-0.0,-0.0,-0.0,-0.0,-0.0,-0.0,-0.0,-0.0,-0.0,-0.0,-0.0,-0.0,-0.0,-0.0,-0.0,-0.0,-0.0,-0.0,-0.0,-0.0,-0.0,-0.0,-0.0,-0.0,-0.0,-0.0,-0.0,-0.0,-0.0,-0.0,-0.0,0.3733,0.9883,0.9896,0.8281,0.603,0.8881,1.0183,1.0458,1.0432,1.0344,1.0364,1.0636,1.069,1.069,1.069,1.0595,1.05,1.0643,1.05,1.0337,1.0609,1.069,1.069,1.069,1.0582,1.0377,1.0649,1.048,1.0317,1.0582,1.061,1.061,1.048,1.0473,1.0473,1.046,1.0093,0.9747,0.9632,0.0,0.0,0.894,0.8913,0.9062,0.9496,0.9571,0.9768,1.0202,1.0256,1.0263,1.0263,1.0392,1.0473,1.046,1.0609,0.9221,0.5893,0.2012,-0.0,-0.0,-0.0,-0.0,-0.0,-0.0,-0.0,-0.0,-0.0,-0.0,-0.0,-0.0,-0.0,-0.0,-0.0,-0.0,-0.0,-0.0,-0.0,-0.0,-0.0,-0.0,-0.0,-0.0,-0.0,-0.0,-0.0,-0.0,-0.0,-0.0,-0.0,-0.0,-0.0,-0.0,-0.0,-0.0,-0.0,-0.0,-0.0,-0.0,-0.0,-0.0,-0.0,-0.0,-0.0,-0.0,-0.0,-0.0,-0.0,-0.0,-0.0,-0.0,-0.0,-0.0,-0.0,-0.0,-0.0,-0.0,0.4019,1.0692,1.0756,0.9916,0.8739,1.0019,1.0582,1.0568,1.0616,1.0636,1.0643,1.0697,1.0717,1.0717,1.0717,1.0683,1.0643,1.0704,1.0643,1.0575,1.0683,1.0717,1.0717,1.0717,1.0677,1.0649,1.0704,1.0636,1.0568,1.0622,1.0636,1.0636,1.0636,1.0636,1.0602,1.0507,1.0283,1.012,1.0154,0.0,0.9483,0.9612,0.9544,0.9551,0.972,0.991,1.0127,1.0385,1.0412,1.0453,1.0548,1.0602,1.0636,1.0636,1.0704,1.0079,0.875,0.2978,-0.0,-0.0,-0.0,-0.0,-0.0,-0.0,-0.0,-0.0,-0.0,-0.0,-0.0,-0.0,-0.0,-0.0,-0.0,-0.0,-0.0,-0.0,-0.0,-0.0,-0.0,-0.0,-0.0,-0.0,-0.0,-0.0,-0.0,-0.0,-0.0,-0.0,-0.0,-0.0,-0.0,-0.0,-0.0,-0.0,-0.0,-0.0,-0.0,-0.0,-0.0,-0.0,-0.0,-0.0,-0.0,-0.0,-0.0,-0.0,-0.0,-0.0,-0.0,-0.0,-0.0,-0.0,0.2362,0.2119,-0.0,0.1137,0.4455,0.9124,1.0234,1.0719,1.0733,1.0704,1.0731,1.0717,1.0717,1.0717,1.0717,1.0717,1.0717,1.0717,1.0717,1.0717,1.0717,1.0717,1.0717,1.0717,1.0717,1.0717,1.0717,1.0717,1.0717,1.0717,1.0717,1.0717,1.0717,1.0717,1.0717,1.0717,1.0717,1.0717,1.069,1.0582,1.0487,1.0432,1.048,1.0154,0.9944,1.01,1.0032,0.9985,1.0025,1.0215,1.0405,1.0548,1.0561,1.0609,1.0711,1.0717,1.0717,1.0717,1.0738,1.0778,1.0725,0.5311,0.2199,0.1806,0.0556,-0.0,-0.0,-0.0,-0.0,-0.0,-0.0,-0.0,-0.0,-0.0,-0.0,-0.0,-0.0,-0.0,-0.0,-0.0,-0.0,-0.0,-0.0,-0.0,-0.0,-0.0,-0.0,-0.0,-0.0,-0.0,-0.0,-0.0,-0.0,-0.0,-0.0,-0.0,-0.0,-0.0,-0.0,-0.0,-0.0,-0.0,-0.0,-0.0,-0.0,-0.0,-0.0,-0.0,-0.0,-0.0,-0.0,-0.0,-0.0,-0.0,-0.0,0.0253,0.734,0.6887,0.0258,0.3858,0.544,0.5646,0.9205,1.074,1.0717,1.0717,1.0717,1.0717,1.0717,1.0717,1.0717,1.0717,1.0717,1.0717,1.0717,1.0717,1.0717,1.0717,1.0717,1.0717,1.0717,1.0717,1.0717,1.0717,1.0717,1.0717,1.0717,1.0717,1.0717,1.0717,1.0717,1.0717,1.0717,1.0717,1.0717,1.0717,1.0717,1.067,1.0521,1.0493,1.0446,1.0304,1.0283,1.0337,1.048,1.0493,1.0555,1.0704,1.0717,1.0717,1.0717,1.0717,1.0717,1.0717,1.0724,1.0806,1.0982,0.8622,0.6923,0.5838,0.1999,-0.0,-0.0,-0.0,-0.0,-0.0,-0.0,-0.0,-0.0,-0.0,-0.0,-0.0,-0.0,-0.0,-0.0,-0.0,-0.0,-0.0,-0.0,-0.0,-0.0,-0.0,-0.0,-0.0,-0.0,-0.0,-0.0,-0.0,-0.0,-0.0,-0.0,-0.0,-0.0,-0.0,-0.0,-0.0,-0.0,-0.0,-0.0,-0.0,-0.0,-0.0,-0.0,-0.0,-0.0,-0.0,-0.0,-0.0,-0.0,-0.0,0.2389,0.6962,0.9519,0.9532,0.7506,0.6082,0.6801,0.9211,1.0241,1.0697,1.0717,1.0717,1.0717,1.0717,1.0717,1.0717,1.0717,1.0717,1.0717,1.0717,1.0717,1.0717,1.0717,1.0717,1.0717,1.0717,1.0717,1.0717,1.0717,1.0717,1.0717,1.0717,1.0717,1.0717,1.0717,1.0717,1.0717,1.0717,1.0717,1.0717,1.0717,1.0717,1.0717,1.0704,1.0656,1.0649,1.0636,1.0595,1.0588,1.0602,1.0649,1.0649,1.067,1.0717,1.0717,1.0717,1.0717,1.0717,1.0717,1.0717,1.0819,1.0914,1.0982,1.0474,1.0052,0.9871,0.599,0.4011,0.4047,0.1306,-0.0,-0.0,-0.0,-0.0,-0.0,-0.0,-0.0,-0.0,-0.0,-0.0,-0.0,-0.0,-0.0,-0.0,-0.0,-0.0,-0.0,-0.0,-0.0,-0.0,-0.0,-0.0,-0.0,-0.0,-0.0,-0.0,-0.0,-0.0,-0.0,-0.0,-0.0,-0.0,-0.0,-0.0,-0.0,-0.0,-0.0,-0.0,-0.0,-0.0,-0.0,-0.0,-0.0,-0.0,-0.0,0.2809,0.6121,0.9862,1.0417,1.07,1.0579,0.8399,0.8738,1.0761,1.0704,1.0731,1.0717,1.0717,1.0717,1.0717,1.0717,1.0717,1.0717,1.0717,1.0717,1.0717,1.0717,1.0717,1.0717,1.0717,1.0717,1.0717,1.0717,1.0765,1.0799,1.0738,1.0806,1.088,1.0826,1.0765,1.0738,1.0799,1.0812,1.0812,1.0812,1.0812,1.0792,1.0731,1.0717,1.0717,1.0717,1.0717,1.0717,1.0717,1.0717,1.0717,1.0717,1.0717,1.0717,1.0717,1.0717,1.0717,1.0717,1.0778,1.0812,1.0812,1.0955,1.107,1.1145,1.1314,1.145,1.1538,0.9336,0.8074,0.8005,0.567,0.3778,0.2323,0.2485,0.2503,0.2376,0.0756,-0.0,-0.0,-0.0,-0.0,-0.0,-0.0,-0.0,-0.0,-0.0,-0.0,-0.0,-0.0,-0.0,-0.0,-0.0,-0.0,-0.0,-0.0,-0.0,-0.0,-0.0,-0.0,-0.0,-0.0,-0.0,-0.0,-0.0,-0.0,-0.0,-0.0,-0.0,-0.0,-0.0,-0.0,0.0251,0.0866,0.0251,0.0253,0.0891,0.7468,1.0385,0.9851,1.048,1.0678,1.0713,1.0677,1.0731,1.0751,1.0731,1.0717,1.0717,1.0717,1.0717,1.0717,1.0717,1.0717,1.0717,1.0717,1.0717,1.0717,1.0717,1.0717,1.0717,1.0717,1.0717,1.0717,1.0717,1.0826,1.0921,1.0778,1.0948,1.1131,1.1002,1.086,1.0799,1.0934,1.0968,1.0968,1.0968,1.0968,1.0921,1.0785,1.0758,1.0758,1.0758,1.0751,1.0744,1.0744,1.0731,1.0717,1.0717,1.0717,1.0717,1.0717,1.0731,1.0744,1.0744,1.088,1.0968,1.0968,1.1104,1.1246,1.1389,1.1402,1.1477,1.1619,1.1619,1.1647,1.1556,1.1556,0.9775,0.6402,0.6624,0.6817,0.6689,0.2739,0.0923,0.0462,0.0156,-0.0,-0.0,-0.0,-0.0,-0.0,-0.0,-0.0,-0.0,-0.0,-0.0,-0.0,-0.0,-0.0,-0.0,-0.0,-0.0,-0.0,-0.0,-0.0,-0.0,-0.0,-0.0,-0.0,-0.0,-0.0,-0.0,-0.0,-0.0,-0.0,-0.0,-0.0,0.2396,0.7566,0.2648,0.254,0.7735,0.9716,1.05,1.0068,1.0466,1.0658,1.0514,1.0656,1.0724,1.0724,1.0724,1.0717,1.0717,1.0717,1.0717,1.0717,1.0717,1.0717,1.0717,1.0717,1.0717,1.0717,1.0717,1.0717,1.0717,1.0717,1.0717,1.0717,1.0717,1.0826,1.0941,1.0907,1.1029,1.1158,1.1124,1.109,1.0933,1.1111,1.1118,1.1118,1.1118,1.1118,1.1104,1.107,1.107,1.107,1.107,1.0975,1.09,1.09,1.0799,1.0717,1.0717,1.0717,1.0717,1.0717,1.0826,1.09,1.09,1.1036,1.1118,1.1118,1.126,1.1355,1.1389,1.1504,1.1586,1.1619,1.1619,1.1626,1.164,1.1653,1.1279,1.0639,1.0688,1.0977,1.1036,1.0162,0.7894,0.4673,0.1407,-0.0,-0.0,-0.0,-0.0,-0.0,-0.0,-0.0,-0.0,-0.0,-0.0,-0.0,-0.0,-0.0,-0.0,-0.0,-0.0,-0.0,-0.0,-0.0,-0.0,-0.0,-0.0,-0.0,-0.0,-0.0,-0.0,-0.0,-0.0,-0.0,-0.0,0.325,0.6717,1.0121,0.6792,0.5736,0.7404,0.9601,1.0412,1.0062,1.0521,1.0575,1.05,1.0649,1.0717,1.0717,1.0717,1.0717,1.0717,1.0717,1.0717,1.0717,1.0717,1.0717,1.0717,1.0717,1.0717,1.0717,1.0717,1.0717,1.0731,1.0806,1.0778,1.0731,1.0806,1.0934,1.1036,1.0968,1.1158,1.1362,1.1287,1.1321,1.1214,1.1287,1.1274,1.1274,1.1413,1.1274,1.1246,1.1179,1.1165,1.1165,1.1165,1.1097,1.105,1.105,1.0982,1.0928,1.0928,1.0928,1.0928,1.0928,1.1002,1.105,1.105,1.1185,1.1274,1.1274,1.1416,1.1497,1.1497,1.1579,1.1619,1.1619,1.1619,1.1653,1.1721,1.166,1.1714,1.1864,1.1952,1.2271,1.2345,1.2427,1.1238,0.908,0.6889,0.4849,0.2814,0.0783,-0.0,-0.0,-0.0,-0.0,-0.0,-0.0,-0.0,-0.0,-0.0,-0.0,-0.0,-0.0,-0.0,-0.0,-0.0,-0.0,-0.0,-0.0,-0.0,-0.0,-0.0,-0.0,-0.0,-0.0,-0.0,0.0538,0.1744,0.7578,1.0747,1.0602,1.046,0.8869,0.58,0.8957,1.0344,1.0216,1.0471,1.0649,1.0534,1.0663,1.0717,1.0717,1.0717,1.0717,1.0717,1.0717,1.0717,1.0717,1.0717,1.0717,1.0717,1.0717,1.0717,1.0717,1.0717,1.0717,1.0744,1.0867,1.0839,1.0785,1.0914,1.107,1.1179,1.1056,1.1314,1.1592,1.1463,1.1525,1.1586,1.1457,1.1288,1.143,1.1578,1.1571,1.1389,1.1267,1.124,1.124,1.124,1.1219,1.1199,1.1199,1.1179,1.1165,1.1165,1.1165,1.1165,1.1165,1.1185,1.1199,1.1199,1.1341,1.143,1.143,1.1552,1.1619,1.1619,1.164,1.1653,1.1653,1.1681,1.1755,1.187,1.1755,1.1769,1.1911,1.204,1.2182,1.2332,1.2481,1.2542,1.2549,1.2427,1.052,0.7037,0.3439,0.1731,0.0953,0.0319,-0.0,-0.0,-0.0,-0.0,-0.0,-0.0,-0.0,-0.0,-0.0,-0.0,-0.0,-0.0,-0.0,-0.0,-0.0,-0.0,-0.0,-0.0,-0.0,-0.0,-0.0,-0.0,0.2811,0.903,1.0221,1.0595,1.0424,1.0397,1.0174,0.9634,1.0317,1.0637,1.0473,1.0643,1.0711,1.069,1.0711,1.0717,1.0717,1.0717,1.0717,1.0717,1.0717,1.0717,1.0717,1.0717,1.0717,1.0717,1.0717,1.0717,1.0717,1.0717,1.0717,1.0724,1.0744,1.0826,1.0921,1.0941,1.1145,1.1355,1.1335,1.147,1.1613,1.1592,1.1606,1.1613,1.1592,1.1586,1.1586,1.1586,1.1586,1.1586,1.1558,1.1558,1.1558,1.1558,1.145,1.1362,1.1362,1.1246,1.1165,1.1165,1.1165,1.1165,1.1165,1.128,1.1362,1.1362,1.1504,1.1586,1.1586,1.1606,1.1619,1.1619,1.1735,1.1803,1.1803,1.1938,1.2013,1.2033,1.2013,1.2081,1.223,1.225,1.2338,1.2474,1.2494,1.2508,1.2515,1.2549,1.2238,1.1604,1.0999,0.8632,0.5022,0.1269,-0.0,-0.0,-0.0,-0.0,-0.0,-0.0,-0.0,-0.0,-0.0,-0.0,-0.0,-0.0,-0.0,-0.0,-0.0,-0.0,-0.0,-0.0,-0.0,-0.0,-0.0,0.377,0.7402,1.0611,1.0711,1.0683,1.0531,1.0518,1.0609,1.0541,1.0521,1.0507,1.0493,1.0649,1.0717,1.0717,1.0717,1.0717,1.0717,1.0717,1.0717,1.0717,1.0717,1.0717,1.0717,1.0717,1.0717,1.0717,1.0717,1.0717,1.0717,1.0717,1.0717,1.0738,1.0685,1.0759,1.0962,1.1043,1.1219,1.1389,1.1389,1.1504,1.1619,1.1619,1.1619,1.1619,1.1619,1.1619,1.1619,1.1619,1.1619,1.1619,1.1619,1.1619,1.1619,1.1619,1.1565,1.1518,1.1518,1.1457,1.1416,1.1416,1.1416,1.1416,1.1416,1.1477,1.1518,1.1518,1.1653,1.1701,1.1619,1.1694,1.1701,1.1619,1.1755,1.183,1.183,1.1986,1.2101,1.2189,1.2189,1.2223,1.2291,1.2291,1.2366,1.2501,1.2501,1.2501,1.2501,1.2522,1.2522,1.2528,1.2562,1.1311,0.8954,0.2377,-0.0,-0.0]},{"header":{"parameterUnit":"m.s-1","parameterCategory":1,"la1":30.6,"la2":28.766,"lo1":-90.7593,"lo2":-88.6598,"dy":0.0162,"dx":0.0183,"nx":116,"ny":114,"refTime":"2024-04-05T00:00:00:Z","depth":0,"parameterNumber":3,"parameterNumberName":"V-component_of_WINDS"},"data":[0.0,0.0,0.0,0.0,0.0,0.0,0.0,0.0,0.0,0.0,0.0,0.0,0.0,0.0,0.0,0.0,0.0,0.0,0.0,0.0,0.0,0.0,0.0,0.0,0.0,0.0,0.0,0.0,0.0,0.0,0.0,0.0,0.0,0.0,0.0,0.0,0.0,0.0,0.0,0.0,0.0,0.0,0.0,0.0,0.0,0.0,0.0,0.0,0.0,0.0,0.0,0.0,0.0,0.0,0.0,0.0,0.0,0.0,0.0,0.0,0.0,0.0,0.0,0.0,0.0,0.0,0.0,0.0,0.0,0.0,0.0,0.0,0.0,0.0,0.0,0.0,0.0,0.0,0.0,0.0,0.0,0.0,0.0,0.0,0.0,0.0,0.0,0.0,0.0,0.0,0.0,0.0,0.0,0.0,0.0,0.0,0.0,0.0,0.0,0.0,0.0,0.0,0.0,0.0,0.0,0.0,0.0,0.0,0.0,0.0,0.0,0.0,0.0,0.0,0.0,0.0,0.0,0.0,0.0,0.0,0.0,0.0,0.0,0.0,0.0,0.0,0.0,0.0,0.0,0.0,0.0,0.0,0.0,0.0,0.0,0.0,0.0,0.0,0.0,0.0,0.0,0.0,0.0,0.0,0.0,0.0,0.0,0.0,0.0,0.0,0.0,0.0,0.0,0.0,0.0,0.0,0.0,0.0,0.0,0.0,0.0,0.0,0.0,0.0,0.0,0.0,0.0,0.0,0.0,0.0,0.0,0.0,0.0,0.0,0.0,0.0,0.0,0.0,0.0,0.0,0.0,0.0,0.0,0.0,0.0,0.0,0.0,0.0,0.0,0.0,0.0,0.0,0.0,0.0,0.0,0.0,0.0,0.0,0.0,0.0,0.0,0.0,0.0,0.0,0.0,0.0,0.0,0.0,0.0,0.0,0.0,0.0,0.0,0.0,0.0,0.0,0.0,0.0,0.0,0.0,0.0,0.0,0.0,0.0,0.0,0.0,0.0,0.0,0.0,0.0,0.0,0.0,0.0,0.0,0.0,0.0,0.0,0.0,0.0,0.0,0.0,0.0,0.0,0.0,0.0,0.0,0.0,0.0,0.0,0.0,0.0,0.0,0.0,0.0,0.0,0.0,0.0,0.0,0.0,0.0,0.0,0.0,0.0,0.0,0.0,0.0,0.0,0.0,0.0,0.0,0.0,0.0,0.0,0.0,0.0,0.0,0.0,0.0,0.0,0.0,0.0,0.0,0.0,0.0,0.0,0.0,0.0,0.0,0.0,0.0,0.0,0.0,0.0,0.0,0.0,0.0,0.0,0.0,0.0,0.0,0.0,0.0,0.0,0.0,0.0,0.0,0.0,0.0,0.0,0.0,0.0,0.0,0.0,0.0,0.0,0.0,0.0,0.0,0.0,0.0,0.0,0.0,0.0,0.0,0.0,0.0,0.0,0.0,0.0,0.0,0.0,0.0,0.0,0.0,0.0,0.0,0.0,0.0,0.0,0.0,0.0,0.0,0.0,0.0,0.0,0.0,0.0,0.0,0.0,0.0,0.0,0.0,0.0,0.0,0.0,0.0,0.0,0.0,0.0,0.0,0.0,0.0,0.0,0.0,0.0,0.0,0.0,0.0,0.0,0.0,0.0,0.0,0.0,0.0,0.0,0.0,0.0,0.0,0.0,0.0,0.0,0.0,0.0,0.0,0.0,0.0,0.0,0.0,0.0,0.0,0.0,0.0,0.0,0.0,0.0,0.0,0.0,0.0,0.0,0.0,0.0,0.0,0.0,0.0,0.0,0.0,0.0,0.0,0.0,0.0,0.0,0.0,0.0,0.0,0.0,0.0,0.0,0.0,0.0,0.0,0.0,0.0,0.0,0.0,0.0,0.0,0.0,0.0,0.0,0.0,0.0,0.0,0.0,0.0,0.0,0.0,0.0,0.0,0.0,0.0,0.0,0.0,0.0,0.0,0.0,0.0,0.0,0.0,0.0,0.0,0.0,0.0,0.0,0.0,0.0,0.0,0.0,0.0,0.0,0.0,0.0,0.0,0.0,0.0,0.0,0.0,0.0,0.0,0.0,0.0,0.0,0.0,0.0,0.0,0.0,0.0,0.0,0.0,0.0,0.0,0.0,0.0,0.0,0.0,0.0,0.0,0.0,0.0,0.0,0.0,0.0,0.0,0.0,0.0,0.0,0.0,0.0,0.0,0.0,0.0,0.0,0.0,0.0,0.0,0.0,0.0,0.0,0.0,0.0,0.0,0.0,0.0,0.0,0.0,0.0,0.0,0.0,0.0,0.0,0.0,0.0,0.0,0.0,0.0,0.0,0.0,0.0,0.0,0.0,0.0,0.0,0.0,0.0,0.0,0.0,0.0,0.0,0.0,0.0,0.0,0.0,0.0,0.0,0.0,0.0,0.0,0.0,0.0,0.0,0.0,0.0,0.0,0.0,0.0,0.0,0.0,0.0,0.0,0.0,0.0,0.0,0.0,0.0,0.0,0.0,0.0,0.0,0.0,0.0,0.0,0.0,0.0,0.0,0.0,0.0,0.0,0.0,0.0,0.0,0.0,0.0,0.0,0.0,0.0,0.0,0.0,0.0,0.0,0.0,0.0,0.0,0.0,0.0,0.0,0.0,0.0,0.0,0.0,0.0,0.0,0.0,0.0,0.0,0.0,0.0,0.0,0.0,0.0,0.0,0.0,0.0,0.0,0.0,0.0,0.0,0.0,0.0,0.0,0.0,0.0,0.0,0.0,0.0,0.0,0.0,0.0,0.0,0.0,0.0,0.0,0.0,0.0,0.0,0.0,0.0,0.0,0.0,0.0,0.0,0.0,0.0,0.0,0.0,0.0,0.0,0.0,0.0,0.0,0.0,0.0,0.0,0.0,0.0,0.0,0.0,0.0,0.0,0.0,0.0,0.0,0.0,0.0,0.0,0.0,0.0,0.0,0.0,0.0,0.0,0.0,0.0,0.0,0.0,0.0,0.0,0.0,0.0,0.0,0.0,0.0,0.0,0.0,0.0,0.0,0.0,0.0,0.0,0.0,0.0,0.0,0.0,0.0,0.0,0.0,0.0,0.0,0.0,0.0,0.0,0.0,0.0,0.0,0.0,0.0,0.0,0.0,0.0,0.0,0.0,0.0,0.0,0.0,0.0,0.0,0.0,0.0,0.0,0.0,0.0,0.0,0.0,0.0,0.0,0.0,0.0,0.0,0.0,0.0,0.0,0.0,0.0,0.0,0.0,0.0,0.0,0.0,0.0,0.0,0.0,0.0,0.0,0.0,0.0,0.0,0.0,0.0,0.0,0.0,0.0,0.0,0.0,0.0,0.0,0.0,0.0,0.0,0.0,0.0,0.0,0.0,0.0,0.0,0.0,0.0,0.0,0.0,0.0,0.0,0.0,0.0,0.0,0.0,0.0,0.0,0.0,0.0,0.0,0.0,0.0,0.0,0.0,0.0,0.0,0.0,0.0,0.0,0.0,0.0,0.0,0.0,0.0,0.0,0.0,0.0,0.0,0.0,0.0,0.0,0.0,0.0,0.0,0.0,0.0,0.0,0.0,0.0,0.0,0.0,0.0,0.0,0.0,0.0,0.0,0.0,0.0,0.0,0.0,0.0,0.0,0.0,0.0,0.0,0.0,0.0,0.0,0.0,0.0,0.0,0.0,0.0,0.0,0.0,0.0,0.0,0.0,0.0,0.0,0.0,0.0,0.0,0.0,0.0,0.0,0.0,0.0,0.0,0.0,0.0,0.0,0.0,0.0,0.0,0.0,0.0,0.0,0.0,0.0,0.0,0.0,0.0,0.0,0.0,0.0,0.0,0.0,0.0,0.0,0.0,0.0,0.0,0.0,0.0,0.0,0.0,0.0,0.0,0.0,0.0,0.0,0.0,0.0,0.0,0.0,0.0,0.0,0.0,0.0,0.0,0.0,0.0,0.0,0.0,0.0,0.0,0.0,0.0,0.0,0.0,0.0,0.0,0.0,0.0,0.0,0.0,0.0,0.0,0.0,0.0,0.0,0.0,0.0,0.0,0.0,0.0,0.0,0.0,0.0,0.0,0.0,0.0,0.0,0.0,0.0,0.0,0.0,0.0,0.0,0.0,0.0,0.0,0.0,0.0,0.0,0.0,0.0,0.0,0.0,0.0,0.0,0.0,0.0,0.0,0.0,0.0,0.0,0.0,0.0,0.0,0.0,0.0,0.0,0.0,0.0,0.0,0.0,0.0,0.0,0.0,0.0,0.0,0.0,0.0,0.0,0.0,0.0,0.0,0.0,0.0,0.0,0.0,0.0,0.0,0.0,0.0,0.0,0.0,0.0,0.0,0.0,0.0,0.0,0.0,0.0,0.0,0.0,0.0,0.0,0.0,0.0,0.0,0.0,0.0,0.0,0.0,0.0,0.0,0.0,0.0,0.0,0.0,0.0,0.0,0.0,0.0,0.0,0.0,0.0,0.0,0.0,0.0,0.0,0.0,0.0,0.0,0.0,0.0,0.0,0.0,0.0,0.0,0.0,0.0,0.0,0.0,0.0,0.0,0.0,0.0,0.0,0.0,0.0,0.0,0.0,0.0,0.0,0.0,0.0,0.0,0.0,0.0,0.0,0.0,0.0,0.0,0.0,0.0,0.0,0.0,0.0,0.0,0.0,0.0,0.0,0.0,0.0,0.0,0.0,0.0,0.0,0.0,0.0,0.0,0.0,0.0,0.0,0.0,0.0,0.0,0.0,0.0,0.0,0.0,0.0,0.0,0.0,0.0,0.0,0.0,0.0,0.0,0.0,0.0,0.0,0.0,0.0,0.0,0.0,0.0,0.0,0.0,0.0,0.0,0.0,0.0,0.0,0.0,0.0,0.0,0.0,0.0,0.0,0.0,0.0,0.0,0.0,0.0,0.0,0.0,0.0,0.0,0.0,0.0,0.0,0.0,0.0,0.0,0.0,0.0,0.0,0.0,0.0,0.0,0.0,0.0,0.0,0.0,0.0,0.0,0.0,0.0,0.0,0.0,0.0,0.0,0.0,0.0,0.0,0.0,0.0,0.0,0.0,0.0,0.0,0.0,0.0,0.0,0.0,0.0,0.0,0.0,0.0,0.0,0.0,0.0,0.0,0.0,0.0,0.0,0.0,0.0,0.0,0.0,0.0,0.0,0.0,0.0,0.0,0.0,0.0,0.0,0.0,0.0,0.0,0.0,0.0,0.0,0.0,0.0,0.0,0.0,0.0,0.0,0.0,0.0,0.0,0.0,0.0,0.0,0.0,0.0,0.0,0.0,0.0,0.0,0.0,0.0,0.0,0.0,0.0,0.0,0.0,0.0,0.0,0.0,0.0,0.0,0.0,0.0,0.0,0.0,0.0,0.0,0.0,0.0,0.0,0.0,0.0,0.0,0.0,0.0,0.0,0.0,0.0,0.0,0.0,0.0,0.0,0.0,0.0,0.0,0.0,0.0,0.0,0.0,0.0,0.0,0.0,0.0,0.0,0.0,0.0,0.0,0.0,0.0,0.0,0.0,0.0,0.0,0.0,0.0,0.0,0.0,0.0,0.0,0.0,0.0,0.0,0.0,0.0,0.0,0.0,0.0,0.0,0.0,0.0,0.0,0.0,0.0,0.0,0.0,0.0,0.0,0.0,0.0,0.0,0.0,0.0,0.0,0.0,0.0,0.0,0.0,0.0,0.0,0.0,0.0,0.0,0.0,0.0,0.0,0.0,0.0,0.0,0.0,0.0,0.0,0.0,0.0,0.0,0.0,0.0,0.0,0.0,0.0,0.0,0.0,0.0,0.0,0.0,0.0,0.0,0.0,0.0,0.0,0.0,0.0,0.0,0.0,0.0,0.0,0.0,0.0,0.0,0.0,0.0,0.0,0.0,0.0,0.0,0.0,0.0,0.0,0.0,0.0,0.0,0.0,0.0,0.0,0.0,0.0,0.0,0.0,0.0,0.0,0.0,0.0,0.0,0.0,0.0,0.0,0.0,0.0,0.0,0.0,0.0,0.0,0.0,0.0,0.0,0.0,0.0,0.0,0.0,0.0,0.0,0.0,0.0,0.0,0.0,0.0,0.0,0.0,0.0,0.0,0.0,0.0,0.0,0.0,0.0,0.0,-2.6649,0.0,0.0,0.0,0.0,0.0,0.0,0.0,0.0,0.0,0.0,0.0,0.0,0.0,0.0,0.0,0.0,0.0,0.0,0.0,0.0,0.0,0.0,0.0,0.0,-2.7264,-2.8019,-2.8664,-2.8503,-2.8558,-2.8975,0.0,0.0,0.0,0.0,0.0,-2.7787,-2.8154,-2.8962,-3.021,-2.9402,-2.9182,-2.9596,-3.1172,-3.1861,-3.1911,0.0,0.0,0.0,0.0,0.0,0.0,0.0,0.0,0.0,0.0,0.0,0.0,0.0,0.0,0.0,0.0,0.0,0.0,0.0,0.0,0.0,0.0,0.0,0.0,0.0,0.0,0.0,0.0,0.0,0.0,0.0,0.0,0.0,0.0,0.0,0.0,0.0,0.0,0.0,0.0,0.0,0.0,0.0,0.0,0.0,0.0,0.0,0.0,0.0,0.0,0.0,0.0,0.0,0.0,0.0,0.0,0.0,0.0,0.0,0.0,0.0,0.0,0.0,0.0,0.0,0.0,0.0,0.0,0.0,0.0,0.0,-2.8621,0.0,0.0,0.0,0.0,0.0,0.0,0.0,0.0,0.0,0.0,0.0,0.0,0.0,0.0,0.0,0.0,0.0,0.0,0.0,0.0,0.0,-2.6407,-2.6661,-2.769,-2.8458,-2.8876,-2.9089,-2.9269,-2.9439,-2.8815,0.0,0.0,-2.8411,-2.8338,-2.8227,-2.9659,-3.0356,-3.021,-2.9843,-3.0123,-3.1078,-3.4104,-3.4585,-3.308,-3.5555,0.0,0.0,0.0,0.0,0.0,0.0,0.0,0.0,0.0,0.0,0.0,0.0,0.0,0.0,0.0,0.0,0.0,0.0,0.0,0.0,0.0,0.0,0.0,0.0,0.0,0.0,0.0,0.0,0.0,0.0,0.0,0.0,0.0,0.0,0.0,0.0,0.0,0.0,0.0,0.0,0.0,0.0,0.0,0.0,0.0,0.0,0.0,0.0,0.0,0.0,0.0,0.0,0.0,0.0,0.0,0.0,0.0,0.0,0.0,0.0,0.0,0.0,0.0,-3.5622,-3.6199,-3.6738,-3.7608,-3.7608,-3.6762,-3.416,-3.1583,-2.939,-3.1737,0.0,0.0,0.0,0.0,0.0,0.0,0.0,0.0,0.0,0.0,0.0,0.0,0.0,0.0,0.0,0.0,0.0,0.0,0.0,-2.7154,-2.8553,-2.8244,-2.8793,-3.0844,-3.0406,-3.0356,-3.1017,-3.098,-3.0907,-3.0907,-3.0907,-3.0577,-2.9916,-3.076,-3.0907,-3.021,-3.1494,-3.2889,-3.4394,-3.6535,0.0,-3.7036,-3.5341,-3.6076,-3.8412,0.0,0.0,0.0,0.0,0.0,0.0,0.0,0.0,0.0,0.0,0.0,0.0,0.0,0.0,0.0,0.0,0.0,0.0,0.0,0.0,0.0,0.0,0.0,0.0,0.0,0.0,0.0,0.0,0.0,0.0,0.0,0.0,0.0,0.0,0.0,0.0,0.0,0.0,0.0,0.0,0.0,-2.8239,-2.8359,0.0,0.0,0.0,0.0,0.0,0.0,0.0,0.0,0.0,0.0,0.0,0.0,0.0,-3.6433,-3.7011,-3.7887,-3.804,-3.7525,-3.7602,-3.7319,-3.6727,-3.7593,-3.7947,-3.7832,-3.8146,0.0,-3.4353,-3.2583,0.0,0.0,0.0,0.0,0.0,0.0,0.0,0.0,0.0,0.0,0.0,0.0,0.0,0.0,0.0,0.0,0.0,0.0,0.0,0.0,0.0,-3.0066,-3.1369,-3.2402,-3.4832,-3.5312,-3.2889,-3.4468,-3.4284,-3.1494,-3.1384,-3.1237,-3.087,-3.1201,-3.1678,-3.2228,-3.5238,-3.6817,-3.7147,0.0,0.0,0.0,-3.9937,-3.9746,-3.9835,-3.7624,0.0,0.0,0.0,0.0,0.0,0.0,0.0,0.0,0.0,0.0,0.0,0.0,0.0,0.0,0.0,0.0,0.0,0.0,0.0,0.0,0.0,0.0,0.0,0.0,0.0,0.0,0.0,0.0,0.0,0.0,0.0,0.0,0.0,0.0,0.0,0.0,0.0,0.0,0.0,-3.0547,-3.0931,-3.0497,-3.1932,-3.2799,0.0,0.0,0.0,0.0,0.0,0.0,0.0,0.0,0.0,-3.4558,-3.6948,-3.8376,-3.8738,-3.9554,-4.0492,-4.1562,-4.2048,-4.2333,-4.2464,-4.3278,-4.3684,-4.3705,-4.4068,-4.3085,-4.0893,-3.7392,-3.6045,-3.6108,0.0,0.0,0.0,0.0,-3.606,-3.6124,0.0,0.0,0.0,0.0,0.0,0.0,0.0,0.0,0.0,0.0,0.0,0.0,-2.991,-3.2348,-3.4365,-3.5508,-3.8967,-3.9753,-3.6486,-3.7404,-3.656,-3.3109,-3.2339,-3.1898,-3.1715,-3.2118,-3.3403,-3.5679,-3.9129,-4.0818,0.0,0.0,0.0,0.0,0.0,0.0,0.0,0.0,-3.9433,0.0,0.0,0.0,0.0,0.0,0.0,0.0,0.0,0.0,0.0,0.0,0.0,0.0,0.0,0.0,0.0,0.0,0.0,0.0,0.0,0.0,0.0,0.0,0.0,0.0,0.0,0.0,0.0,0.0,0.0,0.0,0.0,0.0,0.0,0.0,0.0,0.0,0.0,-3.1953,-3.2606,-3.2234,-3.386,-3.4637,0.0,0.0,0.0,0.0,0.0,0.0,-3.5147,-3.7063,-3.7962,-3.7681,-3.9778,-4.1016,-4.1221,-4.2026,-4.3404,-4.5281,-4.5945,-4.6579,-4.7219,-4.7835,-4.8086,-4.8125,-4.8086,-4.7394,-4.5893,-4.1662,-3.9315,-3.83,-3.8065,-3.8379,-3.8917,-3.8753,-3.8909,-3.9089,0.0,0.0,0.0,0.0,0.0,0.0,0.0,0.0,0.0,0.0,0.0,-2.9105,-3.3713,-3.5028,-3.7285,-4.1482,-4.1372,-4.1662,-4.291,-3.8872,-3.6633,-3.7177,-3.4945,-3.333,-3.2559,-3.4037,-3.6751,-4.0744,0.0,0.0,0.0,0.0,0.0,0.0,0.0,0.0,0.0,0.0,0.0,-4.202,0.0,0.0,0.0,0.0,0.0,0.0,0.0,0.0,0.0,0.0,0.0,0.0,0.0,0.0,0.0,0.0,0.0,0.0,0.0,0.0,0.0,0.0,0.0,0.0,0.0,0.0,0.0,0.0,0.0,0.0,0.0,0.0,0.0,0.0,0.0,0.0,0.0,0.0,0.0,-3.1991,-3.4257,0.0,0.0,0.0,0.0,-3.7785,-3.8524,-3.8628,-3.7833,-4.02,-4.1162,-4.0352,-4.3559,-4.5665,-4.6506,-4.7318,-4.778,-4.7895,-4.7953,-4.7991,-4.8068,-4.8087,-4.8106,-4.8106,-4.8125,-4.8048,-4.7663,-4.3431,-4.2124,-4.2547,-4.0146,-4.0684,-4.2574,-4.0616,-3.9946,-3.9619,0.0,0.0,0.0,0.0,0.0,0.0,0.0,-2.6582,-2.7422,-2.8375,-3.0031,-3.2624,-3.6403,-3.9607,-4.2736,-4.592,-4.8306,-4.8783,-4.6728,-4.4488,-4.247,-4.0671,-3.7734,-3.6266,-3.6523,-3.8615,-4.0928,-4.3424,0.0,0.0,0.0,0.0,0.0,0.0,0.0,0.0,0.0,0.0,0.0,-4.3792,-4.0172,-3.8716,0.0,0.0,0.0,0.0,0.0,0.0,0.0,0.0,0.0,0.0,0.0,0.0,0.0,0.0,0.0,0.0,0.0,0.0,0.0,0.0,0.0,0.0,0.0,0.0,0.0,0.0,0.0,0.0,0.0,0.0,0.0,0.0,0.0,0.0,0.0,0.0,0.0,-3.6055,-3.7969,0.0,-3.8606,-3.8835,-3.9183,-3.9627,-3.9938,-4.0677,-4.2002,-4.3436,-4.461,-4.5372,-4.6565,-4.7625,-4.8509,-4.8779,-4.9202,-4.9798,-5.0317,-5.0547,-5.0547,-5.0567,-5.0529,-5.0529,-5.001,-5.0087,-5.0394,-4.8355,-4.674,-4.5376,-4.3694,-4.3599,-4.4304,-4.3668,-4.3554,-4.363,0.0,0.0,0.0,0.0,-2.5224,-2.5406,-2.5913,-2.6536,-2.733,-2.8561,-3.1392,-3.4764,-3.87,-4.2919,-4.6838,-5.0068,-5.2344,-5.2454,-4.9738,-4.7021,-4.4415,-4.1992,-3.957,-3.8946,-4.0304,-4.2947,-4.5259,0.0,0.0,0.0,0.0,0.0,0.0,0.0,0.0,0.0,0.0,0.0,0.0,0.0,-4.2661,-4.1837,-4.2412,0.0,0.0,0.0,0.0,0.0,0.0,0.0,0.0,0.0,0.0,0.0,0.0,0.0,0.0,0.0,0.0,0.0,0.0,0.0,0.0,0.0,0.0,0.0,0.0,0.0,0.0,0.0,0.0,0.0,0.0,0.0,0.0,0.0,0.0,0.0,-3.7109,-3.9961,-4.1445,-4.2208,-4.2096,-4.1737,-4.1831,-4.2595,-4.2915,-4.4047,-4.6355,-4.7242,-4.8222,-4.9356,-4.9683,-5.0106,-5.0682,-5.0663,-5.0836,-5.1106,-5.1951,-5.2182,-5.1933,-5.2202,-5.2356,-5.2318,-5.1779,-5.1856,-5.2318,-5.1741,-5.0394,-4.8491,-4.7432,-4.6623,-4.6178,-4.6581,-4.6665,-4.6563,0.0,0.0,0.0,-2.5372,-2.4932,-2.4963,-2.6387,-2.6399,-2.6894,-2.8818,-3.1613,-3.5399,-4.0606,-4.482,-4.9224,-5.4106,-5.3004,-5.205,-5.205,-4.5957,-4.1992,-4.1222,-4.0487,-4.1222,-4.3644,0.0,0.0,0.0,0.0,0.0,0.0,0.0,0.0,0.0,0.0,0.0,0.0,0.0,0.0,0.0,-4.6366,-4.6352,-4.7703,0.0,0.0,0.0,0.0,0.0,0.0,0.0,0.0,0.0,0.0,0.0,0.0,0.0,0.0,0.0,0.0,0.0,0.0,0.0,0.0,0.0,0.0,0.0,0.0,0.0,0.0,0.0,0.0,0.0,0.0,0.0,0.0,0.0,-3.4766,-3.7109,-3.9961,-4.3398,-4.4414,-4.4821,-4.4822,-4.5381,-4.611,-4.6935,-4.778,-4.9009,-5.0702,-5.151,-5.1951,-5.1949,-5.2781,-5.3186,-5.3184,-5.32,-5.2777,-5.1934,-5.2818,-5.2797,-5.201,-5.2856,-5.3241,-5.3241,-5.3203,-5.3241,-5.3241,-5.3241,-5.2741,-5.1895,-5.1048,-4.9702,-4.8279,-4.9212,-4.8975,-4.8115,0.0,0.0,-2.3022,-2.3412,-2.3585,-2.4019,-2.4932,-2.5747,-2.6775,-2.846,-3.2894,-3.7805,-4.2741,-4.7675,-5.238,-5.6638,-5.4473,-5.3115,-5.3702,-4.7095,-4.3057,0.0,0.0,0.0,0.0,0.0,0.0,0.0,0.0,0.0,0.0,0.0,0.0,0.0,0.0,0.0,0.0,0.0,0.0,0.0,-5.0392,-4.86,-4.8197,0.0,0.0,0.0,0.0,0.0,0.0,0.0,0.0,0.0,0.0,0.0,0.0,0.0,0.0,0.0,0.0,0.0,0.0,0.0,0.0,0.0,0.0,0.0,0.0,0.0,0.0,0.0,0.0,0.0,0.0,0.0,-3.7269,-3.8398,-3.9297,-4.0547,-4.2422,-4.5234,-4.668,-4.744,-4.7471,-4.8587,-4.9413,-4.9644,-5.099,-5.201,-5.2472,-5.2741,-5.2856,-5.2818,-5.3087,-5.3203,-5.3203,-5.3182,-5.3067,-5.2856,-5.3741,-5.401,-5.378,-5.4049,-5.4126,-5.4126,-5.3472,-5.3549,-5.4126,-5.4126,-5.401,-5.3626,-5.2164,-5.0933,-4.9971,-4.9945,-4.9614,-4.9077,0.0,-2.2764,-2.2576,-2.2939,-2.3215,-2.3748,-2.4797,-2.5828,-2.7011,-2.8553,-3.4231,-3.9607,-4.3433,-4.8703,-5.3078,-5.5757,-5.3665,-5.183,-5.0912,-4.6214,0.0,0.0,0.0,0.0,0.0,0.0,0.0,0.0,0.0,0.0,0.0,0.0,0.0,0.0,0.0,0.0,0.0,0.0,0.0,0.0,0.0,-5.3225,-5.2219,-4.8376,-4.7494,-4.7966,-4.5591,-4.4786,-4.4547,-4.2701,0.0,0.0,0.0,0.0,0.0,0.0,0.0,0.0,0.0,0.0,0.0,0.0,0.0,0.0,0.0,0.0,0.0,0.0,0.0,0.0,0.0,0.0,0.0,0.0,-3.9902,-4.1758,-4.4101,-4.4219,-4.5117,-4.8086,-4.8789,-4.9474,-5.0528,-5.0988,-5.1508,-5.2241,-5.3203,-5.3895,-5.4241,-5.4241,-5.4241,-5.4262,-5.4241,-5.4241,-5.4241,-5.4241,-5.4066,-5.3759,-5.4587,-5.4818,-5.4511,-5.4857,-5.5011,-5.4972,-5.4472,-5.4511,-5.5011,-5.5011,-5.478,0.0,0.0,0.0,0.0,0.0,-5.1281,-5.0705,0.0,-2.2581,-2.2832,-2.3197,-2.3274,-2.3782,-2.527,-2.6085,-2.707,-2.8653,-3.4997,-4.0288,-4.2697,-4.7972,-5.1825,-5.2968,-5.1353,-4.8967,-4.5957,-4.4599,0.0,0.0,0.0,0.0,0.0,0.0,0.0,0.0,0.0,0.0,0.0,0.0,0.0,0.0,0.0,0.0,0.0,0.0,0.0,0.0,0.0,-5.8461,-5.7514,-5.2811,-5.2151,-5.3297,-5.0025,-4.7837,-4.6339,-4.5071,0.0,0.0,0.0,0.0,0.0,0.0,0.0,0.0,0.0,0.0,0.0,0.0,0.0,0.0,0.0,0.0,0.0,0.0,0.0,0.0,0.0,0.0,0.0,0.0,-4.2978,-4.457,-4.875,-4.8086,-4.8242,-5.1211,-5.0661,-5.0991,-5.3379,-5.2682,-5.2721,-5.4395,-5.4587,-5.4934,-5.5665,0.0,0.0,0.0,0.0,-5.5703,-5.5703,-5.5703,-5.5318,-5.4626,-5.5357,-5.5395,-5.478,-5.5434,-5.5742,-5.5818,-5.5742,-5.5703,-5.5703,-5.5703,-5.528,-5.4703,-5.5203,-5.4511,-5.3238,-5.358,-5.3264,-5.2577,0.0,-2.2848,-2.266,-2.2519,-2.253,-2.3004,-2.4492,-2.4849,-2.5483,-2.6989,-3.2546,-3.7177,-3.9372,-4.4288,-4.8712,-5.1935,-4.893,-4.6287,-4.5039,0.0,0.0,0.0,0.0,0.0,0.0,0.0,0.0,0.0,0.0,0.0,0.0,0.0,0.0,0.0,0.0,0.0,0.0,0.0,0.0,0.0,0.0,-5.9035,-5.7226,-5.4597,-5.344,-5.2899,-5.0191,-5.0513,-5.1662,-4.8075,-4.7238,-4.7124,-4.4047,0.0,0.0,0.0,0.0,0.0,0.0,0.0,0.0,0.0,0.0,0.0,0.0,0.0,0.0,0.0,0.0,0.0,0.0,0.0,0.0,-4.5043,-4.6716,-4.8633,-5.1562,-5.2266,-5.25,-5.2461,-5.2056,-5.2326,-5.3649,-5.3261,-5.3433,-5.457,-5.5147,-5.5549,-5.5703,-5.5703,-5.5703,-5.5703,-5.5703,-5.5703,-5.5703,-5.5703,-5.5626,-5.5472,0.0,0.0,-5.6511,-5.5934,-5.6088,-5.6703,-5.6011,-5.5703,-5.5703,-5.5703,-5.5588,-5.5357,-5.4164,-5.351,-5.3203,-5.3294,-5.3234,-5.2954,0.0,-2.2923,-2.2643,-2.2527,-2.2677,-2.3105,-2.3816,-2.4743,-2.575,-2.6914,-3.1847,-3.5826,-3.729,-4.1163,-4.4237,-4.5747,-4.387,-4.314,0.0,0.0,0.0,0.0,0.0,0.0,0.0,0.0,0.0,0.0,0.0,0.0,0.0,0.0,0.0,0.0,0.0,0.0,0.0,0.0,0.0,0.0,0.0,-6.0157,-5.8695,-5.6837,-5.5771,-5.4984,-5.2891,-5.2473,-5.2456,-4.9955,-4.8656,-4.7724,-4.5395,-4.3216,-4.1206,0.0,0.0,0.0,0.0,0.0,0.0,0.0,0.0,0.0,0.0,0.0,0.0,0.0,0.0,-4.2026,-4.3389,0.0,-4.6304,-4.8514,-4.9961,-5.1406,-5.3125,-5.3711,-5.3984,-5.3984,-5.2986,-5.3051,-5.4902,-5.3936,-5.378,-5.5186,-5.557,-5.5703,-5.5703,-5.5703,-5.5703,-5.5703,-5.5703,-5.5703,-5.5703,-5.5703,-5.5703,-5.5703,-5.6126,-5.6357,-5.6357,-5.678,-5.7011,-5.6973,-5.6549,-5.6357,-5.6319,-5.5857,-5.5703,-5.5626,-5.478,-5.4434,-5.4434,-5.4434,-5.4203,-5.3733,0.0,-2.2873,-2.2625,-2.2625,-2.2931,-2.3241,-2.3376,-2.4795,-2.6139,-2.6961,-3.1144,-3.4341,-3.5084,-3.7749,-3.9316,-3.8895,-3.9337,0.0,0.0,0.0,0.0,0.0,0.0,0.0,0.0,0.0,0.0,0.0,0.0,0.0,0.0,0.0,0.0,0.0,0.0,0.0,0.0,0.0,0.0,0.0,0.0,0.0,-6.0272,-5.8951,-5.8047,-5.7245,-5.5354,-5.3418,-5.1613,-5.0485,-4.8671,-4.6759,-4.5746,-4.4691,-4.346,-4.1399,-4.0488,0.0,0.0,0.0,0.0,0.0,0.0,0.0,0.0,0.0,-4.1814,-4.3466,-4.4766,-4.6211,-4.8203,-4.9453,-5.0625,-5.2148,-5.3008,-5.3711,-5.4414,-5.4375,-5.4453,-5.4961,-5.3428,-5.3365,-5.5962,-5.44,-5.3976,-5.584,-5.578,-5.5703,-5.5703,-5.5703,-5.5703,-5.5703,-5.5703,-5.5703,-5.5703,-5.5703,-5.5703,-5.5703,-5.6588,-5.6703,-5.6242,-5.7665,-5.8011,-5.7473,-5.7319,-5.7242,-5.7203,-5.6472,-5.6126,-5.5934,-5.5934,-5.5857,-5.5703,-5.5703,-5.528,-5.4639,0.0,-2.2738,-2.2349,-2.2349,-2.2389,-2.2632,-2.3308,-2.4147,-2.4958,-2.5705,-2.8626,-3.0825,-3.1462,-3.2965,-3.437,-3.5474,0.0,0.0,0.0,0.0,0.0,0.0,0.0,0.0,0.0,0.0,0.0,0.0,0.0,0.0,0.0,0.0,0.0,0.0,0.0,0.0,0.0,0.0,0.0,0.0,0.0,0.0,-6.0382,-6.0199,-5.9218,-5.7537,-5.4485,-5.2564,-5.1106,-4.8828,-4.7582,-4.7057,-4.6841,-4.5682,-4.407,-4.2322,0.0,-3.869,-3.7697,-3.6549,-3.6507,-4.0046,-3.9567,-3.9547,0.0,0.0,-4.7967,-4.8938,-5.1094,-5.2695,-5.2226,-5.3476,-5.4883,-5.5859,-5.6094,-5.6211,-5.6289,-5.5625,-5.4883,-5.4219,-5.3161,-5.3234,-5.5228,-5.4178,-5.4153,-5.6036,-5.5857,-5.5703,-5.5703,-5.5703,-5.5703,-5.5703,-5.5703,-5.5703,-5.5703,-5.5703,-5.5703,-5.5703,-5.6588,-5.7357,-5.8011,-5.8204,-5.8627,-5.9165,-5.8473,-5.8165,-5.8165,-5.805,-5.755,-5.6857,-5.6857,-5.6357,-5.5703,-5.5703,-5.5626,-5.5506,0.0,0.0,-2.2473,-2.2321,-2.2327,-2.2429,-2.2733,-2.3376,-2.412,-2.4864,-2.6793,-2.8387,-2.9007,-3.0071,-3.1179,-3.2406,0.0,0.0,0.0,0.0,0.0,0.0,0.0,0.0,0.0,0.0,0.0,0.0,0.0,0.0,0.0,0.0,0.0,0.0,0.0,0.0,0.0,0.0,0.0,0.0,0.0,0.0,-6.0236,-5.8841,-5.7042,-5.4987,-5.3151,-5.1256,0.0,0.0,-4.5449,-4.5599,-4.4832,-4.4449,-4.3924,-4.2485,-4.1411,0.0,-3.9299,-3.9099,0.0,0.0,-4.3316,-4.5001,-4.8594,-5.0212,-5.1479,-5.3436,-5.4726,-5.5703,-5.6367,-5.707,-5.7695,0.0,-5.7695,-5.7187,-5.668,-5.4961,-5.3476,-5.2578,-5.125,-5.1474,-5.4266,-5.3443,-5.3486,-5.5301,-5.5241,-5.528,-5.5665,-5.5703,-5.5703,-5.5703,-5.5703,-5.5703,-5.5703,-5.5703,-5.5703,-5.5703,-5.6588,-5.7165,-5.7588,-5.855,-5.9165,-5.9473,-5.9127,-5.8742,-5.828,-5.7742,-5.7319,-5.6934,-5.6434,-5.6011,-5.5703,-5.5703,-5.5703,-5.5621,0.0,0.0,0.0,-2.2554,-2.2561,-2.248,-2.2321,-2.2936,-2.3579,-2.412,-2.5304,-2.6353,-2.7131,-2.8078,-2.9,-2.9799,0.0,0.0,0.0,0.0,0.0,0.0,0.0,0.0,0.0,0.0,0.0,0.0,0.0,0.0,0.0,0.0,0.0,0.0,0.0,0.0,0.0,0.0,0.0,0.0,0.0,0.0,-5.9171,-5.6969,-5.4363,-5.1756,-5.0949,-4.8783,0.0,0.0,-4.2763,-4.2684,-4.2483,-4.2612,-4.2642,-4.1472,-4.1142,-4.1033,-4.086,0.0,0.0,-4.4393,-4.6952,-4.9622,-5.1891,-5.333,-5.4831,-5.7148,-5.7773,-5.8281,-5.9336,-5.9531,-5.9453,-5.9258,-5.8476,-5.75,-5.6406,-5.4219,-5.2305,-5.1211,-4.9805,-4.9883,-5.2344,-5.2239,-5.2637,-5.4119,-5.4535,-5.4912,-5.5395,-5.5588,-5.5703,-5.5703,-5.5703,-5.5703,-5.5703,-5.5703,-5.5818,-5.6049,-5.6934,-5.7473,-5.7742,-5.9204,-5.9858,-5.9858,-5.9858,-5.9511,-5.8934,-5.805,-5.755,-5.728,-5.6395,-5.5895,-5.5703,-5.5703,-5.5703,-5.5682,0.0,0.0,0.0,0.0,-2.3165,-2.2982,-2.2405,-2.2936,-2.341,-2.3444,-2.4086,-2.4831,-2.5609,-2.6996,-2.7875,0.0,0.0,0.0,0.0,-4.5326,0.0,0.0,0.0,0.0,0.0,0.0,0.0,0.0,0.0,0.0,0.0,0.0,0.0,0.0,0.0,0.0,0.0,0.0,0.0,0.0,0.0,0.0,-5.6748,-5.5097,-5.1977,-4.8343,-4.7572,0.0,0.0,0.0,-3.9643,-3.8102,-4.0414,-4.063,0.0,-3.905,-3.867,-3.9104,-4.1795,0.0,-4.4047,-4.8163,-5.001,-5.1684,-5.5014,-5.7179,-5.8792,-5.9878,-6.0742,-6.1133,-6.0508,-6.0351,-6.0117,-5.9336,-5.8476,-5.7305,-5.5586,-5.3828,-5.2109,-5.043,-4.9453,-4.8945,0.0,-5.039,-5.1601,-5.2499,-5.3895,-5.472,-5.472,-5.5357,-5.5703,-5.5703,-5.5703,-5.5703,-5.5703,-5.5703,-5.6126,-5.6973,-5.7857,-5.8665,-5.9435,-6.0358,-6.0742,-6.0742,-6.0742,-6.0742,-6.0666,-5.9781,-5.8973,-5.8165,-5.728,-5.6434,-5.5703,-5.5703,-5.5703,-5.5703,0.0,0.0,0.0,0.0,0.0,-2.2797,-2.2599,-2.2787,-2.3192,-2.368,-2.4785,0.0,0.0,0.0,0.0,0.0,0.0,0.0,0.0,-4.3353,0.0,0.0,0.0,0.0,0.0,0.0,0.0,0.0,0.0,0.0,0.0,0.0,0.0,0.0,0.0,0.0,0.0,0.0,0.0,0.0,0.0,0.0,-5.484,-5.161,-4.8159,-4.4929,0.0,0.0,0.0,0.0,0.0,0.0,-3.7,-3.7257,-3.761,-3.8053,-3.9064,-4.0549,-4.2845,0.0,-4.8048,-5.1125,-5.3433,-5.557,-5.7956,-5.9395,-6.019,-6.0088,-5.9443,-5.8672,-5.789,-5.7344,-5.7109,-5.7422,-5.7226,-5.6836,-5.625,-5.4648,-5.2734,-5.0469,-4.9414,0.0,0.0,0.0,0.0,-5.1523,-5.2005,-5.2972,-5.4626,-5.4857,-5.5164,-5.5665,-5.5703,-5.5703,-5.5703,-5.5703,-5.6126,-5.7011,-5.8434,-5.9242,-5.9511,-6.0396,-6.0781,-6.0781,-6.0781,-6.0781,-6.0742,-5.9858,-5.9358,-5.8973,-5.755,-5.6819,-5.6472,-5.5895,-5.5703,-5.5703,0.0,0.0,0.0,0.0,0.0,0.0,0.0,0.0,0.0,0.0,0.0,0.0,0.0,0.0,0.0,0.0,0.0,0.0,0.0,0.0,0.0,0.0,0.0,0.0,0.0,0.0,0.0,0.0,0.0,0.0,0.0,0.0,0.0,0.0,0.0,0.0,0.0,0.0,0.0,0.0,0.0,0.0,-5.0582,-4.7388,-4.4342,0.0,0.0,0.0,0.0,0.0,0.0,-3.5376,-3.5229,-3.5621,-3.6408,-3.7679,-3.9708,-4.2145,-4.4946,-4.8161,-5.1433,-5.4318,-5.6703,-5.8665,-5.9881,-6.0573,-6.0573,-5.9287,-5.7688,-5.614,-5.4743,-5.3395,-5.2851,-5.4062,-5.375,-5.3828,-5.5039,-5.3711,-5.2148,-5.0781,-4.9609,-4.8476,0.0,0.0,0.0,-5.0212,-5.1014,-5.2266,-5.4126,-5.4395,-5.4857,-5.5665,-5.5703,-5.5703,-5.5703,-5.6011,-5.6742,-5.7896,-5.8973,-5.9665,-5.9973,-6.055,-6.0781,-6.0781,-6.0781,-6.0781,-6.0742,-5.9858,-5.9511,-5.9358,-5.8011,-5.7473,-5.7357,-5.6472,-5.6165,-5.6126,0.0,0.0,0.0,0.0,0.0,0.0,0.0,0.0,0.0,0.0,0.0,0.0,0.0,0.0,0.0,0.0,0.0,0.0,0.0,0.0,0.0,0.0,0.0,0.0,0.0,-4.8217,-5.0152,-5.248,0.0,0.0,0.0,0.0,0.0,0.0,0.0,0.0,0.0,0.0,0.0,0.0,0.0,0.0,-4.4342,-4.2727,0.0,0.0,0.0,0.0,0.0,0.0,0.0,0.0,0.0,-3.5912,-3.6491,-3.8228,-4.0777,-4.3902,-4.8012,-5.1267,-5.4318,-5.7627,-5.9665,-6.0858,-6.0819,-6.0704,-5.9919,-5.7439,-5.5535,-5.3584,0.0,0.0,-4.785,-4.9648,-4.875,-4.9062,-5.2461,-5.1601,-5.0859,0.0,0.0,0.0,0.0,0.0,0.0,-4.8875,0.0,-5.2576,-5.3415,-5.4126,-5.4857,-5.5665,-5.5703,-5.5703,-5.5703,-5.6588,-5.7896,-5.9511,-5.9511,-5.9973,-6.0781,-6.0742,-6.0742,-6.0781,-6.0781,-6.0781,-6.0742,-5.9896,-5.9588,-5.9473,-5.8665,-5.8357,-5.828,-5.7396,-5.7049,-5.6857,0.0,0.0,0.0,0.0,0.0,0.0,0.0,0.0,0.0,0.0,0.0,0.0,0.0,0.0,0.0,0.0,0.0,0.0,0.0,0.0,0.0,0.0,0.0,0.0,0.0,0.0,0.0,0.0,0.0,0.0,0.0,0.0,0.0,0.0,0.0,0.0,0.0,0.0,0.0,0.0,0.0,0.0,-4.1846,0.0,0.0,0.0,0.0,0.0,0.0,0.0,0.0,0.0,0.0,-3.8622,-4.0192,-4.2705,-4.5311,-4.8094,-5.1233,-5.4929,-5.8242,-5.9781,-6.0973,-6.1589,-6.0935,-5.9319,-5.7049,-5.3895,-5.0952,-4.8179,0.0,0.0,0.0,-4.863,-5.0312,0.0,-5.6094,-5.6211,0.0,-5.4453,0.0,-5.2891,-5.0937,-5.1319,0.0,0.0,-5.1259,-5.2183,-5.4398,-5.4531,-5.4857,-5.5665,-5.5703,-5.5703,-5.5703,-5.7203,-5.8473,-5.9511,-5.9511,-5.9973,-6.0781,-6.0127,-6.0204,-6.0781,-6.0781,-6.0781,-6.0781,-6.055,-6.0473,-6.0396,-5.9511,-5.9204,-5.9088,-5.828,-5.755,-5.6973,0.0,0.0,0.0,0.0,0.0,0.0,0.0,0.0,0.0,0.0,0.0,0.0,0.0,0.0,0.0,0.0,0.0,0.0,0.0,0.0,0.0,0.0,0.0,0.0,0.0,0.0,0.0,0.0,0.0,0.0,0.0,0.0,0.0,0.0,0.0,0.0,0.0,0.0,0.0,0.0,0.0,0.0,0.0,0.0,0.0,0.0,0.0,0.0,0.0,0.0,0.0,-3.8395,-4.0274,-4.2345,-4.4645,-4.7353,0.0,-5.2538,-5.522,-5.8242,-6.0742,-6.1243,-6.1743,-6.1473,-5.9088,-5.6896,-5.4164,-5.001,-4.6778,0.0,-4.1876,-4.1655,0.0,0.0,0.0,0.0,-5.4922,-5.5898,-5.6094,0.0,-5.5859,0.0,-5.3828,-5.4053,-5.4297,0.0,-5.2854,-5.2812,-5.4629,-5.4608,-5.4857,-5.5665,-5.5703,-5.6049,-5.6819,-5.7434,-5.8511,-6.0089,-5.9665,-5.9973,-6.0781,-6.0281,-6.0319,-6.0781,0.0,-6.0781,-6.0781,-6.0781,-6.0781,-6.0742,-6.0242,-6.0089,-5.9973,-5.9127,-5.8511,-5.805,0.0,0.0,0.0,0.0,0.0,0.0,0.0,0.0,0.0,0.0,-2.3916,-2.4071,0.0,0.0,0.0,0.0,0.0,0.0,0.0,0.0,0.0,0.0,0.0,0.0,0.0,0.0,0.0,0.0,0.0,0.0,0.0,0.0,0.0,0.0,0.0,0.0,0.0,0.0,0.0,0.0,0.0,0.0,0.0,0.0,0.0,0.0,0.0,0.0,0.0,0.0,-3.9177,-4.0988,-4.3819,-4.6646,-4.9471,-5.201,-5.4472,-5.6896,-5.9358,-6.1281,-6.2589,-6.2589,-6.2243,-6.0819,-5.6665,-5.4049,-5.1087,-4.597,0.0,-4.0761,-3.9092,-3.843,-3.923,-4.2665,0.0,-4.679,-5.2109,-5.3711,-5.4961,-5.6758,-5.7031,-5.707,-5.6953,-5.6836,-5.6792,-5.6897,-5.5164,-5.4283,-5.4706,-5.4664,-5.4972,-5.5665,-5.5703,-5.6549,-5.828,-5.755,-5.8396,-6.0781,-5.9935,-5.9973,-6.0781,-6.0666,-6.0704,-6.0781,-6.0781,-6.0781,-6.0781,-6.0781,-6.0781,-6.0781,-6.0781,-6.0781,-6.0704,-5.9935,-5.9588,-5.9396,0.0,0.0,0.0,0.0,0.0,0.0,0.0,0.0,0.0,0.0,-2.6309,-2.4592,0.0,0.0,0.0,0.0,0.0,0.0,0.0,0.0,0.0,0.0,0.0,0.0,0.0,0.0,0.0,0.0,0.0,0.0,0.0,0.0,0.0,0.0,0.0,0.0,0.0,0.0,0.0,0.0,0.0,0.0,0.0,0.0,0.0,0.0,0.0,0.0,0.0,0.0,-4.1593,-4.5306,-4.8071,-5.0971,-5.3895,-5.6434,-5.8473,-6.0319,-6.2127,-6.3897,-6.5243,-6.5243,-6.3128,-6.0089,-5.6511,-5.2202,0.0,0.0,-3.9931,-3.8146,-3.6454,-3.7189,-3.9182,-4.2703,0.0,0.0,0.0,-5.543,-5.668,0.0,-5.9336,-5.9492,-5.8828,-5.8711,0.0,0.0,-5.7424,-5.6484,-5.5938,-5.5626,-5.5549,-5.5703,-5.5703,-5.6549,-5.828,-5.8165,-5.8973,-6.0781,-5.9935,-5.9973,-6.0781,-6.005,-6.0127,-6.0781,-6.0781,0.0,-6.0781,-6.0781,-6.0781,-6.0781,-6.0781,-6.0781,-6.0781,-6.0627,-6.0127,-5.9473,0.0,0.0,0.0,0.0,0.0,0.0,0.0,-2.7189,-2.9047,-3.1864,-3.1428,-2.9771,-2.6995,-2.5814,-2.5312,0.0,0.0,0.0,0.0,0.0,0.0,0.0,0.0,0.0,0.0,0.0,0.0,0.0,0.0,0.0,0.0,0.0,0.0,0.0,0.0,0.0,0.0,0.0,0.0,0.0,0.0,0.0,0.0,0.0,0.0,0.0,0.0,0.0,0.0,0.0,-4.0952,-4.5741,-4.9987,-5.3249,-5.6036,-5.8773,-6.0781,-6.2474,-6.4205,-6.5897,-6.6974,-6.6128,-6.332,-5.9435,-5.428,0.0,0.0,0.0,-3.7276,-3.6301,-3.5056,-3.6202,0.0,-4.0791,0.0,0.0,0.0,-5.3167,0.0,-5.8085,-5.9922,-6.0859,0.0,-6.0508,-6.027,-5.9714,-5.9179,-5.8237,-5.6785,-5.6071,-5.5703,-5.5703,-5.6126,-5.7011,-5.828,-5.8704,-5.955,-6.0781,-6.0358,-6.0396,-6.0781,-6.0358,-6.0396,-6.0781,-6.0781,-6.0781,-6.0781,-6.0781,-6.0781,-6.0781,-6.0781,-6.0781,-6.0781,-6.0781,-6.055,-6.0165,0.0,0.0,0.0,0.0,0.0,0.0,-2.7699,-2.9909,-3.2501,-3.5824,-3.6296,-3.4908,-3.1237,-2.847,-2.6572,0.0,0.0,0.0,0.0,0.0,0.0,0.0,0.0,0.0,0.0,0.0,0.0,-2.8543,0.0,0.0,0.0,0.0,0.0,0.0,0.0,0.0,0.0,0.0,0.0,0.0,0.0,0.0,0.0,0.0,0.0,0.0,0.0,0.0,0.0,0.0,-3.8793,-4.339,-4.8427,-5.2639,-5.6251,-5.887,-6.1171,-6.3399,-6.5564,-6.7244,-6.8052,-6.6513,-6.3205,-5.855,-5.1933,-4.6817,0.0,0.0,-3.5084,-3.4724,-3.403,0.0,-3.6742,0.0,-3.9658,-4.2133,0.0,0.0,-5.3608,0.0,-5.9837,0.0,-6.168,-6.1719,0.0,-6.0746,-6.036,-5.93,-5.7307,-5.6609,-5.6165,-5.5972,-5.6819,-5.7703,-5.855,-5.9165,-5.9935,-6.0781,-6.0781,-6.0781,-6.0781,-6.0781,-6.0781,-6.0781,-6.0781,-6.0781,-6.0781,-6.0781,-6.0781,-6.0781,-6.0781,-6.0781,-6.0781,-6.0781,-6.0781,-6.0781,0.0,0.0,0.0,0.0,0.0,0.0,-2.8963,-3.0351,-3.3502,-4.0643,-3.8505,-3.6413,-3.667,-3.232,-2.8612,0.0,0.0,0.0,0.0,0.0,0.0,0.0,0.0,0.0,0.0,0.0,0.0,-2.8941,-2.9354,0.0,0.0,0.0,0.0,0.0,0.0,-3.032,0.0,0.0,0.0,0.0,0.0,0.0,0.0,0.0,0.0,0.0,0.0,0.0,0.0,0.0,0.0,-3.7571,-4.0632,-4.7174,-5.3964,-5.539,0.0,0.0,-6.6038,-6.7667,-6.8167,-6.7244,-6.2743,-5.6934,-5.0894,0.0,0.0,-3.5199,-3.3699,-3.3109,-3.3042,-3.3799,-3.4968,-3.6678,0.0,-4.0947,0.0,0.0,-5.3301,-5.6169,0.0,0.0,-6.168,-6.1719,-6.1679,-6.16,-6.0621,-5.9196,-5.7307,-5.7764,-5.7703,-5.6896,-5.7742,-5.8588,-5.9396,-5.9473,-5.9935,-6.0781,-6.0781,-6.0781,-6.0781,-6.0781,-6.0781,-6.0781,-6.0781,-6.0781,0.0,-6.0781,-6.0781,-6.0781,-6.0781,-6.0781,-6.0781,-6.0781,-6.0781,-6.0781,0.0,0.0,0.0,0.0,0.0,0.0,-2.9272,-3.1397,-3.4856,-4.1065,-4.0723,-3.9863,-3.968,-3.6069,-3.1683,-2.6724,0.0,0.0,0.0,0.0,0.0,0.0,0.0,0.0,0.0,0.0,-2.7982,-2.8631,-2.8792,0.0,0.0,0.0,0.0,0.0,0.0,-2.9475,-2.9475,0.0,0.0,0.0,0.0,0.0,0.0,0.0,0.0,0.0,0.0,0.0,0.0,0.0,0.0,0.0,-3.4807,-3.9407,0.0,0.0,-5.4866,-5.9484,-6.3693,-6.6936,-6.8975,-6.809,-6.3435,-5.7473,-5.151,0.0,-3.9161,-3.4391,-3.3122,-3.2737,-3.2263,-3.2468,-3.3237,-3.4905,-3.493,0.0,-4.1224,0.0,-4.7933,-5.3366,-5.7016,0.0,0.0,0.0,-6.2265,-6.1758,-6.1198,-6.0313,-5.8979,-5.8511,-5.8127,-5.778,-5.8588,-5.9165,-5.9511,-6.0012,-6.0473,-6.0781,-6.0781,-6.0781,-6.0781,-6.0781,-6.0781,-6.0781,-6.0781,-6.0781,0.0,-6.0781,-6.0781,-6.0781,-6.0781,-6.0781,-6.0781,-6.0781,-6.0781,-6.0781,0.0,0.0,0.0,0.0,0.0,-2.6345,-2.9047,-3.1739,-3.5193,-4.0059,-4.0669,-4.0653,-4.0544,-3.7344,-3.3176,-2.8034,-2.6934,0.0,0.0,0.0,0.0,0.0,0.0,0.0,0.0,0.0,-2.8336,-2.8953,-2.8953,-2.9478,0.0,0.0,-2.9659,-3.0173,0.0,0.0,0.0,0.0,0.0,0.0,0.0,0.0,0.0,0.0,0.0,0.0,0.0,0.0,0.0,0.0,0.0,0.0,0.0,0.0,0.0,0.0,-5.0388,-5.5887,-6.0248,-6.4551,-6.759,-6.6744,-6.2243,-5.6549,0.0,0.0,-3.8123,-3.3814,-3.2506,-3.2006,-3.1403,-3.153,-3.2172,-3.3596,-3.3263,-3.4353,-3.87,-4.1424,0.0,0.0,0.0,-5.7788,0.0,-6.2539,-6.2656,-6.1758,-6.1593,-6.1214,-6.0481,-5.9588,-5.8973,-5.8665,-5.9435,-5.9896,-5.9896,-6.0473,-6.0781,-6.0781,-6.0781,-6.0781,-6.0781,-6.0781,-6.0781,-6.0781,-6.0781,-6.0781,0.0,-6.0781,-6.0781,-6.0781,-6.0781,-6.0781,-6.0781,-6.0781,-6.0781,-6.0781,0.0,0.0,0.0,0.0,0.0,0.0,-2.8347,-3.0917,-3.4052,-3.8112,-3.7611,-3.7455,-3.9045,-3.5264,-3.2302,-3.1421,-2.8785,0.0,0.0,0.0,0.0,0.0,0.0,0.0,0.0,0.0,-2.8989,-3.0173,-3.0173,-3.0613,-3.1347,-3.0577,-3.021,-3.0173,0.0,0.0,0.0,0.0,0.0,0.0,0.0,0.0,0.0,0.0,0.0,0.0,0.0,0.0,0.0,0.0,0.0,0.0,0.0,0.0,0.0,0.0,-4.5155,-5.1847,-5.5953,-6.0165,-6.3166,-6.2358,-5.8319,-5.3203,0.0,0.0,-3.6007,-3.343,-3.1583,-3.0417,-3.0417,-3.1133,-3.1954,-3.2776,-3.4391,-3.643,-3.8931,-4.2988,0.0,0.0,0.0,-5.5052,-5.867,-6.1445,-6.2656,-6.1758,-6.1562,0.0,-6.1489,-6.1151,-6.0512,-5.9511,-6.0319,-6.0781,-6.0781,-6.0781,-6.0781,-6.0781,-6.0781,-6.0781,-6.0781,-6.0781,-6.0781,-6.0781,-6.0781,-6.0781,0.0,-6.0781,-6.0781,-6.0781,-6.0781,-6.0781,-6.0781,-6.0781,-6.0781,-6.0781,0.0,0.0,0.0,0.0,0.0,0.0,-2.6436,-2.8662,-3.1154,-3.3741,-3.4253,-3.5028,-3.6616,-3.4308,-3.2302,-3.1458,-2.933,0.0,0.0,0.0,0.0,0.0,0.0,0.0,0.0,0.0,-3.0369,-3.1861,-3.2375,-3.3073,-3.3844,-3.2485,-3.1568,-3.0944,-2.9622,-2.8975,0.0,0.0,0.0,0.0,0.0,0.0,0.0,0.0,0.0,0.0,0.0,0.0,0.0,0.0,0.0,0.0,0.0,0.0,0.0,-3.3568,-3.925,-4.5557,-4.958,-5.2893,-5.5216,-5.516,-5.2202,-4.8432,-4.5086,0.0,-3.6161,-3.4199,-3.2904,-3.2095,-3.2119,-3.2338,-3.316,-3.5172,-3.5979,-3.707,-3.9061,0.0,0.0,-4.9141,-5.6238,-6.159,0.0,0.0,-6.3515,-6.2656,-6.1992,-6.1594,-6.1517,-6.1384,-6.1112,-6.055,-6.0704,-6.0781,-6.0781,-6.0781,-6.0781,-6.0781,-6.0781,-6.0781,-6.0781,-6.0781,-6.0781,-6.0781,-6.0781,-6.0781,-6.0781,-6.0781,-6.0781,-6.0781,-6.0781,-6.0781,-6.0781,-6.0781,-6.0781,-6.0781,0.0,0.0,0.0,0.0,0.0,0.0,-2.5164,-2.6902,-2.861,-2.9834,-3.0733,-3.2002,-3.3872,-3.2402,-3.1274,-3.1384,-2.9685,0.0,0.0,0.0,0.0,0.0,0.0,0.0,-2.9452,-2.9659,-3.098,-3.3486,-3.4027,-3.4981,-3.6376,-3.5385,-3.399,-3.2228,-3.0944,-2.9855,0.0,0.0,0.0,0.0,0.0,0.0,-2.9879,0.0,0.0,0.0,0.0,0.0,0.0,0.0,0.0,0.0,0.0,0.0,0.0,0.0,-3.4894,-3.9338,0.0,-4.7335,-4.9663,-4.9831,-4.7645,-4.4893,0.0,0.0,0.0,-3.4468,-3.3506,-3.2904,-3.289,-3.2954,-3.357,-3.5427,-3.6094,-3.7046,-3.9114,0.0,0.0,-5.1362,0.0,0.0,0.0,-6.4336,-6.4297,-6.3086,-6.25,-6.1992,-6.1601,-6.1529,-6.1402,-6.1189,-6.0973,-6.0858,-6.0781,-6.0473,-6.0319,-6.0319,-6.0012,-6.0012,-6.0319,-6.0319,-6.0473,-6.0781,-6.0781,-6.0781,0.0,-6.0781,-6.0781,-6.0781,-6.0781,-6.0781,-6.0781,-6.0781,-6.0781,-6.0781,0.0,0.0,0.0,0.0,0.0,0.0,0.0,-2.5775,-2.6691,-2.6589,-2.7357,-2.8705,-3.0863,-2.9817,-2.9622,-3.1091,-2.9879,0.0,0.0,0.0,0.0,0.0,0.0,0.0,-3.0099,-2.9512,-3.1066,-3.499,-3.5174,-3.6523,-3.8872,-3.8799,-3.7074,-3.3954,-3.3073,-3.1384,0.0,0.0,0.0,0.0,-3.1091,-3.1384,0.0,0.0,0.0,0.0,0.0,0.0,0.0,0.0,0.0,0.0,0.0,0.0,0.0,0.0,0.0,0.0,0.0,-4.2927,-4.5583,-4.566,-4.4096,-4.2124,-4.0508,0.0,0.0,0.0,0.0,-3.3096,-3.316,-3.3237,-3.3545,-3.443,-3.5405,-3.6867,-3.9244,-4.3636,0.0,0.0,-5.9304,0.0,-6.0779,-6.3711,-6.5,-6.332,-6.3086,-6.2656,-6.1836,-6.1601,-6.1524,-6.1499,-6.1196,-6.0935,-6.0742,-5.9935,-5.9473,-5.9396,-5.8665,-5.8704,-5.9435,-5.9473,-5.9935,0.0,-6.0781,-6.0781,0.0,-6.0781,-6.0781,-6.0781,-6.0781,-6.0781,-6.0781,-6.0781,-6.0781,-6.0781,0.0,0.0,0.0,0.0,0.0,0.0,0.0,0.0,0.0,0.0,-2.6871,-2.7926,-2.7855,-2.854,-2.9122,0.0,0.0,0.0,0.0,0.0,0.0,0.0,0.0,0.0,-2.9269,-3.0283,-3.2192,-3.499,-3.6927,-3.8762,-4.0524,-3.99,-3.8212,-3.5642,-3.4174,-3.2522,0.0,0.0,0.0,0.0,-3.1311,-3.1384,0.0,0.0,0.0,0.0,-2.9269,-2.9134,0.0,0.0,0.0,0.0,0.0,0.0,0.0,0.0,-3.108,-3.1798,-3.4211,0.0,-3.671,-3.7546,-3.7507,-3.7199,0.0,0.0,0.0,0.0,0.0,0.0,0.0,-3.5366,-3.5688,-3.7743,-3.8949,-4.0058,-4.1277,-4.763,0.0,-5.8601,-6.3017,-6.5062,-6.3515,-6.5312,-6.6133,-6.5078,-6.375,-6.289,-6.2695,-6.2031,-6.1596,-6.1515,-6.1419,-6.0958,-6.0035,-5.9842,-5.9319,-5.8588,-5.8396,-5.8396,-5.8588,-5.9204,-5.9627,-5.9858,-6.0512,-6.0781,-6.0781,-6.0781,-6.0781,-6.0781,-6.0781,-6.0781,-6.0781,-6.0781,-6.0781,-6.0781,0.0,0.0,0.0,0.0,0.0,0.0,0.0,0.0,0.0,0.0,-2.6083,-2.6897,-2.6468,-2.7985,-2.8682,0.0,0.0,0.0,0.0,0.0,0.0,0.0,0.0,-2.9159,-2.9549,-3.0393,-3.2596,-3.6156,-3.7881,-3.99,-4.2213,-4.2139,-4.0414,-3.7294,-3.4504,-3.2559,0.0,0.0,0.0,-3.1971,-3.2339,0.0,0.0,0.0,0.0,0.0,-2.9843,-2.9421,0.0,-2.989,-3.0013,-3.0031,0.0,0.0,0.0,0.0,-3.0602,-3.1073,-3.1839,-3.2807,-3.3843,-3.4861,-3.5285,-3.5493,-3.5493,0.0,0.0,0.0,0.0,0.0,0.0,0.0,-3.6768,-3.8489,-4.0242,-4.27,0.0,0.0,-5.6484,-6.1562,-6.4258,-6.582,0.0,-6.6562,-6.6523,-6.5664,-6.4375,-6.3437,-6.3008,-6.2187,-6.168,-6.1601,-6.1214,-6.0628,-5.9878,-5.9433,-5.8726,-5.778,-5.7319,-5.7319,-5.7703,-5.8165,-5.855,-5.9011,-5.9858,-6.0204,-6.0242,-6.0627,-6.0781,-6.0781,-6.0781,-6.0781,-6.0781,-6.0781,-6.0781,-6.0781,0.0,0.0,0.0,0.0,0.0,0.0,0.0,0.0,0.0,0.0,0.0,0.0,0.0,0.0,0.0,0.0,0.0,0.0,0.0,0.0,0.0,0.0,-2.9049,-2.9379,-3.0173,-3.032,-3.2596,-3.711,-3.8432,-4.0634,-4.3718,-4.4745,-4.3057,-3.8909,-3.5055,-3.2779,0.0,0.0,-3.2779,-3.2852,-3.355,0.0,0.0,0.0,0.0,0.0,0.0,0.0,0.0,-3.0649,-3.0806,-3.0617,-3.1487,0.0,0.0,0.0,0.0,0.0,-3.1258,-3.2683,-3.4203,-3.4742,-3.5285,-3.5661,-3.5532,0.0,0.0,0.0,0.0,0.0,0.0,-3.6661,0.0,-3.8772,-4.1388,0.0,-5.2628,-5.5254,-5.8359,-6.3476,-6.4687,0.0,-6.7422,-6.7305,-6.6758,-6.5859,-6.4883,-6.3984,-6.3242,-6.2265,-6.1719,-6.1719,-6.0859,-6.0217,-5.9864,-5.8828,-5.7888,-5.6973,-5.6126,-5.6088,-5.6819,-5.6934,-5.7396,-5.8165,0.0,0.0,-5.9396,-6.0396,-6.0704,-6.0589,-6.0742,-6.0781,-6.0781,-6.0781,-6.0781,-6.0781,0.0,0.0,0.0,0.0,0.0,0.0,0.0,0.0,0.0,0.0,0.0,0.0,0.0,0.0,0.0,0.0,0.0,0.0,0.0,0.0,0.0,-2.9989,-2.9365,-2.9379,-3.0173,-3.087,-3.2596,-3.5385,-3.8982,-4.2029,-4.4562,-4.6728,-4.5259,-4.0634,-3.7918,-3.5495,-3.344,-3.355,-3.3623,-3.3623,-3.3733,0.0,0.0,0.0,0.0,0.0,0.0,0.0,0.0,-2.9609,-2.9755,-2.9903,-3.0235,0.0,0.0,0.0,0.0,0.0,-3.2813,-3.4297,-3.5038,-3.4219,-3.5285,-3.6353,0.0,0.0,0.0,0.0,0.0,0.0,0.0,-3.8387,-3.9066,0.0,0.0,-5.0992,0.0,0.0,-6.2148,-6.3086,0.0,-6.7695,-6.5156,-6.6797,-6.7656,-6.6758,-6.5195,-6.4258,-6.4101,-6.2578,-6.1719,-6.1719,-6.0859,-6.0038,-5.9331,-5.8178,-5.7056,-5.6088,-5.5818,-5.578,-5.5934,-5.6665,-5.7049,-5.728,0.0,-5.9127,-5.8588,-6.0165,-6.0358,-5.9781,-6.0512,-6.0781,-6.0781,-6.0781,-6.0781,-6.0781,0.0,0.0,0.0,0.0,0.0,0.0,0.0,0.0,0.0,0.0,0.0,0.0,0.0,0.0,0.0,0.0,0.0,0.0,0.0,0.0,-2.9549,-3.0797,-3.0503,-3.0687,-3.1494,-3.2706,-3.4981,-3.8291,-4.1515,-4.4525,-4.7278,-4.6654,-4.4488,-4.1001,-3.8102,-3.5716,-3.3807,-3.3807,-3.3807,-3.3807,0.0,0.0,0.0,0.0,0.0,0.0,0.0,0.0,0.0,0.0,-3.0603,-3.12,-3.0807,0.0,0.0,0.0,0.0,0.0,-3.1686,-3.3338,-3.4787,-3.474,-3.6757,-3.8546,0.0,0.0,0.0,0.0,0.0,0.0,0.0,0.0,-4.4059,-4.8889,0.0,-5.5036,-5.9257,-6.0859,-6.2305,0.0,0.0,-6.6601,-6.6445,-6.707,-6.7344,-6.6914,-6.5273,-6.4297,-6.4297,-6.2656,-6.1719,-6.1719,-6.043,-5.957,-5.9219,-5.7636,-5.6591,-5.6071,-5.5895,-5.578,-5.5703,-5.6088,-5.628,-5.6357,0.0,-5.7934,-5.7742,-5.9396,-5.9858,-5.9588,-6.0473,-6.0781,-6.0819,-6.0858,-6.0896,-6.0896,0.0,0.0,0.0,0.0,0.0,0.0,0.0,0.0,0.0,0.0,0.0,0.0,0.0,0.0,0.0,0.0,0.0,0.0,0.0,0.0,-2.9916,-3.1347,-3.1935,-3.2632,-3.344,-3.5238,-3.7955,-4.1662,-4.4672,-4.7682,-5.0582,-4.7352,-4.4342,-4.1515,-3.8102,-3.5532,-3.3807,-3.3807,-3.3807,-3.3807,0.0,0.0,0.0,0.0,0.0,0.0,0.0,0.0,0.0,0.0,0.0,0.0,0.0,0.0,0.0,-3.1006,-3.0571,-3.0533,-3.1121,-3.2852,-3.4699,-3.5584,0.0,0.0,0.0,0.0,0.0,0.0,0.0,0.0,0.0,-4.4975,0.0,-5.4295,-5.664,-5.8672,-6.125,-6.1953,-6.3125,-6.5625,-6.5508,-6.5937,-6.7734,-6.7305,-6.6836,-6.6601,-6.5156,-6.4219,-6.4023,-6.2539,-6.1719,-6.1719,-6.0273,-5.9375,-5.9219,-5.7578,-5.6587,-5.6256,-5.602,-5.5857,-5.5742,-5.5703,-5.5703,-5.5742,-5.6626,-5.6857,-5.6819,-5.8511,-5.9204,-5.9319,-6.0165,-6.0627,-6.0858,-6.0935,-6.1026,-6.1116,0.0,0.0,0.0,0.0,0.0,0.0,0.0,0.0,0.0,0.0,0.0,0.0,0.0,0.0,0.0,0.0,0.0,0.0,0.0,0.0,-3.0503,-3.1347,-3.355,-3.5165,-3.6009,-3.8322,-4.0781,-4.3314,-4.8049,-5.1646,-5.3995,-5.0729,-4.7131,-4.313,-3.9166,-3.6046,-3.3807,-3.3807,-3.3807,-3.3807,-3.3807,0.0,0.0,0.0,0.0,0.0,0.0,0.0,0.0,0.0,0.0,0.0,0.0,0.0,-3.0737,-3.1391,-3.1044,-3.0929,-3.3276,-3.4661,-3.5622,-3.643,-3.6815,0.0,0.0,0.0,0.0,-4.6959,0.0,0.0,0.0,-4.9081,-5.1874,-5.4805,-5.8672,-6.2226,-6.4844,0.0,-6.7422,-6.6875,-6.7461,-6.7695,-6.7031,-6.6953,-6.6562,-6.5742,-6.4844,-6.3945,-6.3125,-6.2226,-6.1719,-6.1719,-6.0781,-5.9961,-5.9219,-5.8242,-5.7304,-5.6362,-5.6063,-5.5895,-5.5857,-5.5742,-5.5703,-5.5742,-5.6626,-5.6549,-5.5934,-5.7665,-5.8396,-5.8473,-5.9281,-6.0165,-6.0973,-6.0973,-6.1118,-6.1292,0.0,0.0,0.0,0.0,0.0,0.0,0.0,0.0,0.0,0.0,0.0,0.0,0.0,0.0,0.0,0.0,0.0,0.0,0.0,-2.9475,-3.0797,-3.2082,-3.3513,-3.5128,-3.7,-4.0891,-4.4599,-4.8049,-5.1389,-5.3261,-5.3555,-4.9297,-4.5406,-4.1846,-3.8322,-3.5936,-3.4504,-3.4027,-3.41,-3.4504,-3.419,-3.4117,0.0,0.0,0.0,0.0,0.0,0.0,0.0,0.0,-3.0734,-3.1034,-3.0943,-3.1044,-3.1275,-3.1583,-3.1083,-3.0852,-3.2852,-3.443,-3.5815,-3.7161,0.0,0.0,0.0,0.0,0.0,-5.0257,-5.2141,0.0,0.0,0.0,-5.4805,-5.7969,-6.0742,-6.3242,-6.5312,-6.664,-6.7265,-6.6953,-6.7187,-6.7265,-6.6914,-6.6914,-6.6523,-6.5664,-6.4805,-6.3906,-6.3047,-6.2187,-6.1719,-6.1719,-6.0859,-6.0234,-5.9961,-5.8594,-5.7695,-5.7305,-5.6587,-5.6097,-5.5895,-5.5857,-5.578,-5.5703,-5.6049,-5.6011,-5.578,-5.7011,-5.7819,-5.8434,-5.9781,-6.0589,-6.102,-6.1134,-6.1286,-6.1423,0.0,0.0,0.0,0.0,0.0,0.0,0.0,0.0,0.0,0.0,0.0,0.0,0.0,0.0,0.0,0.0,0.0,0.0,-2.8227,-2.9696,-3.1054,-3.2192,-3.3733,-3.5605,-3.7808,-4.2103,-4.6067,-4.9627,-5.2601,-5.3225,-5.1573,-4.7462,-4.4265,-4.1926,-3.8641,-3.71,-3.679,-3.5454,-3.5206,-3.5614,-3.4717,-3.4405,0.0,0.0,0.0,0.0,0.0,0.0,0.0,0.0,-3.0868,-3.1237,-3.0929,-3.1237,-3.1737,-3.2006,-3.1468,-3.1121,-3.2506,-3.3776,-3.5084,0.0,0.0,0.0,0.0,0.0,0.0,-5.5594,-5.7176,0.0,-5.7215,0.0,0.0,0.0,-6.2305,-6.4336,-6.5781,-6.6523,-6.6914,-6.6914,-6.6914,-6.6914,-6.6914,-6.664,-6.6133,-6.5273,-6.4375,-6.3515,-6.2656,-6.2031,-6.1719,-6.1719,-6.1133,-6.0664,-6.039,-5.9258,-5.8555,-5.8281,-5.7344,-5.6569,-5.5998,-5.5941,-5.5818,-5.5703,-5.5703,-5.5703,-5.578,-5.6626,-5.7665,-5.8819,-6.0281,-6.0935,-6.1119,-6.1286,-6.1462,-6.1599,0.0,0.0,0.0,0.0,0.0,0.0,0.0,0.0,-2.7787,-2.7787,-2.7787,0.0,0.0,0.0,0.0,0.0,0.0,0.0,-2.8975,-3.0503,-3.1384,-3.1384,-3.4541,-3.7,-3.8615,-4.1809,-4.4635,-4.7131,-5.1169,-5.1463,-4.8196,-4.581,-4.4469,-4.3908,-4.0663,-3.9877,-4.0814,-3.8272,-3.7192,-3.7041,-3.5375,-3.487,-3.5009,0.0,0.0,0.0,0.0,0.0,0.0,0.0,-3.1121,-3.0533,-3.1429,-3.1698,-3.1852,-3.2699,-3.2352,-3.1891,-3.2699,-3.2929,-3.3365,0.0,0.0,0.0,0.0,0.0,-5.4747,-6.3599,0.0,-5.9186,-5.9006,-5.7695,0.0,-6.0,-6.332,-6.5898,-6.6758,-6.6875,-6.6914,-6.6914,-6.6875,-6.6875,-6.6875,-6.6094,-6.5234,-6.4336,-6.3476,-6.2617,-6.1758,-6.1719,-6.1719,-6.1719,-6.1719,-6.1289,-6.043,-6.039,-6.0,-5.9219,-5.832,-5.7317,-5.623,-5.5998,-5.5818,-5.5703,-5.5703,-5.5703,-5.578,-5.6626,-5.7973,-5.9588,-6.0589,-6.1112,-6.1304,-6.1458,-6.1564,-6.1719,0.0,0.0,0.0,0.0,0.0,0.0,0.0,0.0,-2.6822,-2.7367,-2.7638,0.0,0.0,0.0,0.0,0.0,0.0,0.0,-2.8975,-3.0503,-3.1384,-3.1384,-3.3403,-3.4761,-3.5238,-3.8469,-4.2433,-4.7131,-4.7755,-4.6985,-4.4892,-4.3608,-4.2442,-4.1484,-4.1073,-4.0251,-3.9082,-3.7759,-3.6831,-3.6243,-3.5951,-3.5529,-3.5026,0.0,0.0,0.0,0.0,0.0,0.0,0.0,0.0,0.0,-3.1429,-3.2083,-3.2699,-3.3545,-3.366,-3.3622,-3.4507,-3.5147,0.0,-3.8568,0.0,0.0,0.0,0.0,0.0,0.0,-6.4404,-6.2753,-6.2577,-6.1758,0.0,-6.1289,-6.3203,-6.5,-6.5859,-6.6523,-6.6914,-6.6914,-6.6367,-6.5976,-6.5976,-6.5195,-6.4336,-6.3437,-6.3164,-6.2617,-6.1758,-6.1719,-6.1719,-6.1719,-6.1719,-6.1562,-6.1328,-6.0703,-6.0273,-6.0039,-5.8594,-5.7654,-5.7242,-5.6575,-5.6109,-5.5818,-5.5818,-5.578,-5.578,-5.6626,-5.7357,-5.805,-5.9573,-6.0319,-6.0627,-6.1266,-6.1564,-6.1719,0.0,0.0,0.0,0.0,0.0,0.0,0.0,0.0,-2.5945,-2.6918,-2.7222,-2.764,0.0,0.0,0.0,0.0,0.0,0.0,0.0,-3.0503,-3.1384,-3.1384,-3.3256,-3.4431,-3.4798,-3.7037,-3.957,-4.2289,-4.3424,-4.3167,-4.1589,-4.1894,-4.2054,-4.2141,-4.3401,-4.2948,-4.1185,-4.0024,-3.8823,-3.7661,-3.7194,-3.6671,-3.6151,0.0,0.0,0.0,0.0,0.0,0.0,0.0,0.0,0.0,-3.1545,-3.2506,-3.3506,-3.4045,-3.393,-3.402,-3.5611,-3.6381,0.0,-4.1725,-4.5926,-5.0825,-5.7408,0.0,0.0,0.0,-6.6914,-6.582,-6.5742,-6.4531,0.0,-6.3281,-6.4414,-6.5508,-6.6055,-6.6562,-6.6758,-6.6406,-6.5937,-6.5469,-6.5117,-6.4297,-6.3555,-6.3047,-6.2695,-6.2265,-6.1719,-6.1719,-6.1719,-6.1719,-6.1719,-6.1719,-6.1719,-6.1172,-6.0937,-6.0898,-5.9531,-5.8672,-5.8242,-5.6963,-5.6244,-5.6012,-5.6,-5.6148,-5.6417,-5.6917,-5.7418,-5.7896,-5.9011,-5.9742,-6.025,-6.0871,-6.1331,-6.1719,0.0,0.0,-2.4795,-2.5843,0.0,0.0,0.0,0.0,-2.5258,-2.6359,-2.6606,-2.6979,0.0,0.0,0.0,0.0,0.0,0.0,0.0,-3.0503,-3.1384,-3.1384,-3.3733,-3.5422,-3.6266,-3.6927,-3.6552,-3.5046,-3.8799,-3.9937,-3.8566,-4.054,-4.2667,-4.4814,-4.6572,-4.6623,-4.524,-4.3508,-4.17,-3.9931,-3.8469,-3.7853,-3.7623,-3.6084,0.0,0.0,0.0,0.0,0.0,0.0,0.0,0.0,-3.1891,-3.3045,-3.4314,-3.4314,-3.3814,-3.3827,-3.6421,-3.7128,0.0,-4.4652,-4.9782,0.0,-6.1851,-6.7097,-7.0463,-7.0312,0.0,-6.8398,-6.832,-6.6328,-6.4883,-6.5586,-6.6367,-6.6914,-6.6914,-6.6836,-6.6484,-6.5703,-6.5469,-6.5039,-6.4258,-6.3398,-6.289,-6.289,-6.2148,-6.1719,-6.1719,-6.1719,-6.1719,-6.1719,-6.1719,-6.1719,-6.1719,-6.1719,-6.164,-6.1562,-6.0781,-5.9961,-5.914,-5.7336,-5.6427,-5.6212,-5.6205,-5.6616,-5.7292,-5.7292,-5.7752,-5.8511,-5.8719,-5.9287,-5.9998,-6.0305,-6.0898,-6.1601,0.0,0.0,-2.4934,-2.4906,0.0,0.0,0.0,0.0,0.0,0.0,0.0,0.0,0.0,0.0,0.0,0.0,0.0,0.0,-2.8975,-3.0503,-3.1384,-3.1384,-3.3733,-3.5422,-3.6266,-3.5789,-3.5487,-3.5404,-3.6703,-3.7256,-3.7188,-3.9564,-4.2208,-4.5033,-4.5398,-4.4822,-4.347,-4.1123,-3.8738,-3.6622,-3.6892,-3.6622,-3.6007,-3.5661,-3.443,0.0,0.0,0.0,0.0,0.0,0.0,0.0,-3.3237,-3.4391,-3.5238,-3.5238,-3.5545,-3.6315,-3.8253,-3.9813,0.0,0.0,-5.4746,-6.1527,-6.5525,-6.855,-7.0171,-6.8932,-6.9492,-6.9961,-6.9336,-6.8203,-6.7187,-6.6719,-6.6797,-6.6914,-6.6914,-6.6328,-6.582,-6.5625,-6.4375,-6.3476,-6.3281,-6.25,-6.1992,-6.1992,-6.1797,-6.1719,-6.1719,-6.1719,-6.1719,-6.1719,-6.1719,-6.1719,-6.1719,-6.1719,-6.1367,-6.0664,-6.0508,-5.9961,-5.914,-5.8081,-5.714,-5.6354,-5.6261,-5.6291,-5.6447,-5.6447,-5.6621,-5.6956,-5.7709,-5.8149,-5.8553,-5.9919,-6.0508,-6.0781,0.0,0.0,0.0,0.0,0.0,0.0,0.0,0.0,0.0,0.0,0.0,0.0,0.0,0.0,0.0,0.0,-2.9108,-2.9586,-2.9586,-3.1091,-3.2339,-3.3109,-3.433,-3.521,-3.5679,-3.5403,-3.5328,-3.5491,-3.5913,-3.636,-3.6939,-3.9647,-4.217,-4.4548,-4.5072,-4.423,-4.2354,-4.0623,-3.8623,-3.6738,-3.7161,-3.7084,-3.6661,-3.6238,-3.5007,-3.3468,-3.3045,0.0,0.0,0.0,0.0,0.0,0.0,0.0,-3.5493,-3.5493,-3.5507,-3.6161,-3.9153,0.0,0.0,-5.226,0.0,-6.4524,-6.6687,-6.8642,-6.9757,-6.8939,-6.9805,-7.0312,-6.9101,-6.8164,-6.7305,-6.6406,-6.5937,-6.5664,-6.5664,-6.5273,-6.4805,-6.4414,-6.3555,-6.2851,-6.2422,-6.1953,-6.1719,-6.1719,-6.1719,-6.1719,-6.1719,-6.1719,-6.1719,-6.1719,-6.1719,-6.1719,-6.1719,-6.1289,-6.1055,-6.1015,-6.0195,-5.9375,-5.8555,-5.8125,-5.7383,-5.6484,-5.6415,-5.6386,-5.6386,-5.6386,-5.641,-5.6531,-5.6998,-5.746,-5.8047,-5.9336,-6.0078,-6.0508,0.0,0.0,0.0,0.0,0.0,0.0,0.0,0.0,0.0,0.0,0.0,0.0,0.0,0.0,0.0,0.0,0.0,0.0,-3.021,-3.1715,-3.3303,-3.4917,-3.499,-3.5064,-3.521,-3.5403,-3.5589,-3.5797,-3.605,-3.6763,-3.794,-4.0309,-4.2412,-4.421,-4.4899,-4.3893,-4.1739,-4.0546,-3.9084,-3.7584,-3.7584,-3.7661,-3.77,-3.6969,-3.5738,-3.4353,-3.3776,-3.3276,-3.2968,-3.3237,0.0,0.0,0.0,0.0,-3.5493,-3.5493,-3.5084,-3.552,-3.9552,0.0,-4.7093,-5.6434,-6.1762,0.0,-6.6351,-6.7734,-6.875,-6.875,-6.957,-6.9805,-6.8242,-6.7265,-6.6406,-6.5508,-6.4765,-6.4297,-6.4297,-6.418,-6.3828,-6.3086,-6.2851,-6.25,-6.1758,-6.1719,-6.1719,-6.1719,-6.1719,-6.164,-6.1484,-6.1484,-6.1406,-6.1289,-6.1289,-6.1328,-6.1484,-6.0625,-6.0547,-6.125,-5.9726,-5.8594,-5.789,-5.789,-5.7422,-5.6601,-5.6601,-5.6601,-5.6601,-5.6601,-5.6601,-5.6601,-5.6601,-5.7031,-5.7812,-5.8828,-5.9609,-6.0351,0.0,0.0,0.0,0.0,0.0,0.0,0.0,0.0,0.0,0.0,-2.814,-2.8631,0.0,0.0,-2.8741,-2.8007,-2.9329,-3.021,-3.021,0.0,0.0,-3.4917,-3.499,-3.5349,-3.6119,-3.5699,-3.5946,-3.6895,-3.7223,-3.8685,-4.1195,-4.1322,-4.2814,-4.532,-4.3991,-4.2816,-4.1662,-3.9315,-3.7353,-3.5853,-3.5853,-3.6238,-3.6853,-3.6738,-3.6122,-3.5391,-3.5968,-3.4776,-3.3122,-3.4661,-3.4737,0.0,0.0,0.0,-3.5493,-3.5493,-3.593,-3.6969,-3.9792,0.0,-5.226,0.0,-5.9995,-6.28,0.0,0.0,-6.6094,0.0,-6.7383,-6.8242,-6.7265,-6.6367,-6.5508,-6.4609,-6.4375,-6.4297,-6.4297,-6.3633,-6.3125,-6.3008,-6.2344,-6.1836,-6.1719,-6.1719,-6.1719,-6.1719,-6.1719,-6.1367,-6.0625,-6.0586,-6.0234,-5.957,-5.9531,-5.9883,-6.0586,-5.9765,-5.9414,-5.9531,-5.8555,-5.8008,-5.789,-5.789,-5.7422,-5.6601,-5.6601,-5.6601,-5.6601,-5.6601,-5.6601,-5.6601,-5.6601,-5.668,-5.6953,-5.8594,-5.9258,-5.957,0.0,0.0,0.0,0.0,0.0,0.0,0.0,0.0,0.0,0.0,0.0,-2.8888,0.0,-2.8815,-2.8865,-2.8521,-2.9549,-3.0577,-3.1494,-3.2228,-3.3146,-3.4284,-3.4321,-3.4504,-3.4871,-3.4982,-3.549,-3.6432,-3.7371,-3.9429,-4.2547,-4.3384,-4.4669,-4.6278,-4.5047,-4.3778,-4.2354,-3.9815,-3.8007,-3.6892,-3.6892,-3.7123,-3.743,-3.743,-3.7199,-3.6969,-3.7406,-3.6829,-3.5982,-3.6804,-3.6818,-3.6548,-3.6934,0.0,0.0,0.0,-3.6521,-3.7497,-4.0607,-4.581,-5.1163,0.0,-5.7969,-6.082,-6.2812,-6.4101,-6.4883,-6.4883,-6.5469,-6.5898,-6.5508,-6.4726,-6.4023,-6.3633,-6.3164,-6.2851,-6.2851,-6.25,-6.2265,-6.2265,-6.1914,-6.1719,-6.1719,-6.125,-6.0976,-6.0976,-6.0547,-6.0117,-5.9765,-5.9726,-5.957,-5.9219,-5.9219,-5.9375,-5.9726,-5.8906,-5.8242,-5.7734,-5.7851,-5.7656,-5.7187,-5.7187,-5.6953,-5.6601,-5.6601,-5.6601,-5.6601,-5.6601,-5.6601,-5.6601,-5.6601,-5.6601,-5.6797,-5.8555,-5.9219,-5.9453,0.0,0.0,0.0,0.0,0.0,0.0,0.0,0.0,0.0,0.0,0.0,0.0,0.0,0.0,0.0,0.0,-2.9732,-3.087,-3.2485,-3.2596,-3.2963,-3.377,-3.385,-3.3902,-3.3902,-3.4486,-3.5191,-3.6005,-3.7338,-3.9738,-4.3162,-4.524,-4.6932,-4.8125,-4.7048,-4.5509,-4.3585,-4.1239,-3.9892,-3.9238,-3.8392,-3.8161,-3.8354,-3.8638,-3.8561,-3.8407,-3.8753,-3.8593,-3.8208,-3.8272,-3.8284,-3.8284,-3.8284,-3.8284,0.0,0.0,0.0,-3.818,0.0,0.0,-4.8435,-5.131,-5.4648,-5.7734,0.0,0.0,-6.2461,0.0,-6.3164,-6.3242,-6.3047,-6.3008,-6.293,-6.2695,-6.1953,-6.1445,-6.168,-6.1523,-6.1445,-6.168,-6.1484,-6.1367,-6.1367,-6.0586,-6.0117,-6.0117,-5.9531,-5.9101,-5.8867,-5.8867,-5.8789,-5.8555,-5.8555,-5.8633,-5.8867,-5.8203,-5.7461,-5.6601,-5.7265,-5.7226,-5.6601,-5.6601,-5.6601,-5.6601,-5.6601,-5.6601,-5.6601,-5.6601,-5.6601,-5.6601,-5.6601,-5.6601,-5.6797,-5.8555,-5.9219,-5.9453,0.0,0.0,0.0,0.0,0.0,0.0,0.0,0.0,0.0,0.0,0.0,0.0,-2.8975,-2.8975,-2.8975,-2.8975,-2.9732,-3.087,-3.2485,-3.2596,-3.2963,-3.377,-3.4043,0.0,-3.4176,-3.4774,-3.5488,-3.6306,-3.744,-3.9738,-4.3162,-4.6432,-4.9279,-5.1587,-4.9933,-4.7817,-4.5355,-4.3624,-4.2893,-4.2569,-3.9446,-3.8599,-3.9345,-4.0337,-4.0145,-3.9461,-4.0408,-3.9712,-3.8298,-3.8298,-3.8298,-3.8298,-3.8298,-3.8298,-3.8298,0.0,0.0,0.0,0.0,-4.2418,0.0,-4.6429,-4.9258,0.0,0.0,0.0,-5.7461,-5.9101,-6.0078,-6.0351,-5.9609,-6.1406,-6.2734,-6.1914,-6.1055,-6.0742,-6.1562,-6.0976,-6.0781,-6.1601,-6.0976,-6.0469,-6.0469,-5.9726,-5.9258,-5.9258,-5.9219,-5.8828,-5.8008,-5.7969,-5.7578,-5.6758,-5.6758,-5.7148,-5.7969,-5.793,-5.7461,-5.6601,-5.664,-5.664,-5.6601,-5.6601,-5.6601,-5.6601,-5.6601,-5.6601,-5.6601,-5.6601,-5.6601,-5.6601,-5.6601,-5.6601,-5.6797,-5.8555,-5.9219,-5.9453,0.0,0.0,0.0,0.0,0.0,0.0,0.0,0.0,0.0,0.0,0.0,0.0,0.0,-2.8975,-2.8975,-2.8975,-2.9232,-2.995,-3.1205,-3.1339,-3.1987,-3.3471,-3.3655,-3.3944,-3.4529,-3.4926,-3.5238,-3.5543,-3.7187,-3.9161,-4.1508,-4.4893,-4.6971,-4.7932,-4.951,-4.9433,-4.7817,-4.4509,-4.2777,-4.2107,-4.0354,-4.0217,-4.0992,-4.0833,-4.1274,-4.1934,-4.1837,-4.1759,-4.1629,-4.1115,-4.0923,-4.0845,-4.0335,-4.014,-4.0023,-3.9398,-3.9412,-3.9648,0.0,0.0,0.0,-4.5115,-4.7226,-4.9492,-5.1562,-5.3086,-5.4609,-5.6328,-5.7383,-5.8203,-5.9062,-6.082,-6.1875,-6.1015,-6.0586,-6.0508,-6.082,-6.0156,-5.9765,-6.0078,-5.9805,-5.9648,-5.9648,-5.8867,-5.8359,-5.8359,-5.7851,-5.7383,-5.707,-5.707,-5.6914,-5.6601,-5.6601,-5.6758,-5.707,-5.707,-5.6914,-5.6601,-5.6601,-5.6601,-5.6601,-5.6601,-5.6601,-5.6601,-5.6601,-5.6601,-5.6601,-5.6601,-5.6601,-5.6601,-5.6601,-5.6601,-5.6758,-5.793,-5.8711,-5.9375,0.0,0.0,0.0,0.0,0.0,-2.8168,-2.8168,-2.8645,-2.8975,-2.8975,0.0,0.0,0.0,0.0,-2.9425,-2.954,-2.9333,-2.9779,-3.1046,-3.1141,-3.1802,-3.3353,-3.379,-3.4112,-3.4377,-3.4971,-3.5223,-3.5223,-3.7102,-3.87,-4.0162,-4.3547,-4.547,-4.6124,-4.8086,-4.9125,-4.9202,-4.6086,-4.4453,-4.3761,-4.214,-4.1853,-4.247,-4.3179,-4.3645,-4.3956,-4.4355,-4.4316,-4.3937,-4.3112,-4.2461,-4.1953,-4.168,-4.1406,-4.1016,-4.0039,-3.995,-4.013,-3.9858,0.0,0.0,0.0,-4.5,-4.6328,-4.8047,0.0,-5.1055,-5.2773,-5.4297,-5.5742,-5.7187,-5.9062,-6.0312,-6.0039,-5.9765,-5.9648,-5.9961,-5.9297,-5.8867,-5.918,-5.8945,-5.875,-5.875,-5.7969,-5.7344,-5.7031,-5.6758,0.0,-5.6172,-5.6445,-5.6601,-5.6601,-5.6601,-5.6601,-5.6601,-5.6601,-5.6445,-5.6172,-5.6172,-5.6172,-5.6172,-5.6172,-5.6328,-5.6601,-5.6601,-5.6601,-5.6601,-5.6601,-5.6601,-5.6601,-5.6601,-5.6601,-5.6719,-5.7578,-5.8437,-5.9336,0.0,0.0,-2.5495,-2.5495,-2.6135,-2.6686,-2.6686,-2.8007,-2.8998,-2.8998,0.0,0.0,0.0,0.0,0.0,-3.0677,-3.0152,-3.0487,-3.2128,-3.2204,-3.2562,-3.3373,-3.4469,-3.4666,-3.3881,-3.4947,-3.5493,-3.5493,-3.7161,-3.8392,-3.9277,-4.2624,-4.5086,-4.6701,-4.5893,-4.6932,-4.9163,-4.8279,-4.7933,-4.7722,-4.4598,-4.3335,-4.3761,-4.7389,-4.7255,-4.5427,-4.7978,-4.7305,-4.5039,-4.4141,-4.2773,-4.1562,-4.2266,-4.1914,-4.1055,-4.0234,-4.0547,-4.1016,0.0,0.0,0.0,-4.2187,-4.2344,0.0,-4.4492,0.0,-4.668,-4.8476,-5.082,-5.2812,-5.375,-5.6015,-5.8008,-5.8867,-5.8398,-5.8203,-5.9023,-5.8398,-5.8125,-5.8984,-5.8359,-5.7812,-5.7812,-5.707,-5.6211,-5.5351,-5.6094,-5.6172,-5.5351,-5.6133,-5.6601,-5.6601,-5.6601,-5.6601,-5.6601,-5.6562,-5.6133,-5.5351,-5.5273,-5.5273,-5.5351,-5.5273,-5.5742,-5.6562,-5.6562,-5.6562,-5.6562,-5.6601,-5.6601,-5.6601,-5.6601,-5.6601,-5.6719,-5.7539,-5.8437,-5.9297,0.0,-2.6796,-2.7824,-2.7236,-2.7787,-2.8315,-2.8315,-2.8682,-2.9067,0.0,0.0,0.0,-3.0432,-3.1729,-3.2596,-3.2675,-3.2543,-3.2464,-3.2488,-3.2504,-3.295,-3.3953,-3.428,-3.4616,-3.5,-3.5325,-3.5493,-3.5493,-3.6546,-3.7199,-3.7469,-4.0239,-4.1816,-4.2354,-4.3932,-4.4739,-4.4778,-4.3932,-4.4299,-4.532,-4.3222,-4.43,-4.7073,-4.6325,-4.7493,-4.9536,-4.9061,-4.9219,-4.9414,-4.7969,-4.7148,-4.6484,-4.4805,-4.3242,-4.2031,-4.1797,-4.1484,-4.1133,-4.0898,0.0,0.0,0.0,0.0,0.0,-4.2148,-4.2891,-4.4141,-4.6523,-4.8086,-4.9648,-5.1758,-5.2695,-5.3476,-5.4375,-5.6406,-5.7969,-5.8242,-5.6953,-5.6094,-5.6367,-5.6172,-5.6015,-5.6015,-5.5781,-5.5547,0.0,-5.5508,-5.5547,-5.5312,-5.6133,-5.6601,-5.6601,-5.6601,-5.6601,-5.6601,-5.5976,-5.5859,-5.6211,-5.4961,-5.5039,-5.6211,-5.4922,-5.4844,-5.5664,-5.5664,-5.5664,-5.5703,-5.6328,-5.6601,-5.6601,-5.6601,-5.6601,-5.664,-5.6875,-5.789,-5.9219,-2.5144,-2.6576,-2.775,-2.6943,-2.8007,-2.8975,-2.8975,-2.9664,-3.0228,0.0,0.0,0.0,-3.1939,-3.3278,-3.4033,-3.3673,-3.3722,-3.363,-3.3278,-3.3293,-3.3566,-3.416,-3.4545,-3.4814,-3.4968,-3.5315,-3.5493,-3.5493,-3.6315,-3.6892,0.0,-3.9123,-4.0162,-4.0546,-4.2085,-4.2547,-4.2085,-4.1986,-4.2909,-4.4449,-4.3887,-4.5671,-4.8711,-4.8711,-5.0039,-5.1953,-5.207,-5.2266,-5.2266,-5.0937,-4.9531,-4.7851,-4.4844,-4.3476,-4.293,-4.293,-4.2617,-4.2226,-4.2226,-4.1992,-4.1797,-4.2148,0.0,0.0,-4.0742,-4.1016,-4.168,-4.2851,-4.4062,-4.5586,-4.7773,-4.8789,-4.9687,-5.0898,-5.3125,-5.5078,-5.6133,-5.539,-5.4765,-5.4765,-5.4765,-5.4765,-5.4765,-5.4765,-5.4609,-5.4258,-5.4531,-5.4765,-5.4765,-5.5234,-5.5508,-5.5508,-5.5508,-5.5508,-5.5508,-5.5,-5.4844,-5.4961,-5.3945,-5.3984,-5.4922,-5.3906,-5.4141,-5.5312,-5.5312,-5.5508,-5.5898,-5.6406,-5.6601,-5.6601,-5.6601,-5.6601,-5.664,-5.6992,-5.8008,-5.9258,0.0,-2.5585,-2.6523,-2.5829,-2.7632,-2.9251,-2.948,-3.0835,-3.1923,0.0,-3.2468,-3.307,-3.4093,-3.5013,-3.5305,-3.4601,-3.4678,-3.4661,-3.4468,-3.4468,-3.443,-3.4353,-3.5161,-3.5276,-3.4468,-3.5238,-3.5622,-3.5622,0.0,0.0,0.0,0.0,-3.97,-4.0408,-4.06,-4.0785,-4.0892,-4.1769,-4.2988,-4.4476,-4.5564,-4.7273,-4.9492,-5.2539,-5.3476,-5.3437,-5.5781,-5.5664,-5.4297,-5.3437,-5.0937,-4.7578,-4.4297,-4.3594,-4.3984,-4.3867,-4.3789,-4.3711,-4.3711,-4.3125,-4.2695,-4.3398,-4.2578,0.0,-4.0273,-4.0195,-4.0078,-3.9219,-4.0234,-4.1836,-4.3398,-4.4961,-4.6562,-4.8203,-4.9219,-5.0703,-5.3359,-5.3633,-5.3594,-5.3594,-5.3594,-5.3594,-5.3594,-5.3672,-5.3398,-5.2617,-5.3359,-5.3906,-5.3984,-5.3984,-5.3984,-5.3984,-5.3984,-5.3984,-5.3984,-5.3906,-5.3516,-5.2851,-5.2656,-5.2695,-5.2969,-5.2773,-5.3633,-5.5312,-5.5312,-5.5742,-5.6445,-5.6562,-5.6601,-5.6601,-5.6601,-5.6601,-5.6719,-5.7578,-5.8437,-5.9336,-2.4522,-2.6025,-2.758,-2.7642,-2.9113,-3.0814,-3.239,-3.2335,-3.2694,-3.4241,-3.5261,-3.6673,-3.8876,-3.8754,-3.8654,-3.9154,-3.8646,-3.77,-3.6315,-3.6199,-3.593,-3.5276,-3.6045,-3.6392,-3.6238,-3.6392,-3.6469,-3.6469,0.0,0.0,0.0,0.0,0.0,-3.9638,-4.0369,-4.1119,-4.1849,-4.2005,-4.2741,-4.3914,-4.5448,-4.8435,-5.1914,-5.1914,-5.3555,-5.5898,-5.6406,-5.6836,-5.6992,-5.6133,-5.3984,-5.1367,-4.9336,-4.7344,-4.5664,-4.4961,-4.4258,-4.3711,-4.3711,-4.3594,-4.332,-4.2773,-4.3476,0.0,-4.1445,-4.1992,-4.2695,-4.1836,-4.1914,-4.2461,-4.3516,-4.3984,-4.4531,-4.5586,-4.6484,-4.8203,-5.1445,-5.1367,-5.0937,-5.0937,-5.0937,-5.0937,-5.0937,-5.1523,-5.1836,-5.168,-5.2461,-5.3242,-5.3945,-5.3984,-5.3984,-5.3984,-5.3984,-5.3984,-5.3984,-5.3281,-5.3203,-5.3711,-5.2305,-5.2773,-5.4765,-5.3359,-5.3633,-5.5312,-5.5312,-5.539,-5.5625,-5.6328,-5.6601,-5.6601,-5.6601,-5.6601,-5.6719,-5.7578,-5.8437,-5.9336,-2.4983,-2.6597,-2.8277,-2.8726,-3.0225,-3.1994,-3.3809,-3.4206,-3.477,-3.6171,-3.7325,-3.8469,-3.9738,-3.9892,-3.97,-3.9277,-3.9277,-3.8738,-3.743,-3.7353,-3.7161,-3.6776,-3.7123,-3.7353,-3.7353,-3.7353,-3.7353,-3.7353,0.0,0.0,0.0,0.0,0.0,-3.9469,-4.0885,-4.1528,-4.1618,-4.2965,-4.3818,-4.443,-4.6098,-4.8642,-5.1523,-5.2383,-5.4336,-5.664,-5.7109,-5.7812,-5.8203,-5.6055,-5.4726,-5.3476,-5.0508,-4.9219,-4.8594,-4.7305,-4.6641,-4.6094,-4.5234,-4.4687,-4.4453,-4.4883,-4.4687,0.0,0.0,-4.2461,-4.2226,-4.1328,-4.082,-4.0781,-4.1641,-4.1797,-4.2109,-4.2969,-4.3476,-4.4648,-4.7187,-4.8359,-4.8906,-4.8906,-4.8906,-4.8906,-4.8906,-4.9648,-5.0156,-5.0156,-5.0547,-5.1016,-5.1445,-5.1875,-5.2109,-5.2109,-5.25,-5.2695,-5.2695,-5.2266,-5.2266,-5.2695,-5.1836,-5.2109,-5.3359,-5.2891,-5.3398,-5.4687,-5.5117,-5.5547,-5.5976,-5.6406,-5.6601,-5.6601,-5.6601,-5.6601,-5.6719,-5.7578,-5.8437,-5.9336,-2.578,-2.7231,-2.8772,-2.957,-3.128,-3.3166,-3.5059,-3.608,-3.7003,-3.7997,-3.9106,-3.9892,-4.0239,-4.0546,-4.0508,-4.0008,-3.97,-3.9508,-3.9508,-3.8854,-3.8354,-3.8046,-3.8469,-3.8507,-3.8007,-3.8315,-3.8392,-3.8238,-3.8238,0.0,0.0,0.0,0.0,-4.0277,-4.1671,-4.2094,-4.1894,-4.3908,-4.4859,-4.5144,-4.6952,-4.8709,-5.0469,-5.3047,-5.4961,-5.6484,-5.7539,-5.8555,-5.8945,-5.5625,-5.4961,-5.4844,-5.0703,-5.0312,-5.1055,-4.9375,-4.9023,-4.8828,-4.7226,-4.6406,-4.6211,-4.7109,-4.6133,-4.4726,0.0,0.0,0.0,-4.0625,0.0,0.0,0.0,0.0,0.0,-4.1094,0.0,0.0,0.0,-4.5039,0.0,-4.6797,-4.6719,-4.6641,-4.6836,-4.7773,-4.8476,-4.8633,-4.8828,-4.8906,-4.8906,-4.957,-4.9961,-4.9961,-5.0586,-5.1016,-5.1172,-5.1172,-5.125,-5.1406,-5.1406,-5.1484,-5.168,-5.2383,-5.3281,-5.4297,-5.5,-5.5781,-5.6601,-5.6601,-5.6601,-5.6601,-5.6601,-5.6601,-5.6719,-5.7773,-5.8594,-5.9336,-2.6971,-2.7711,-2.8974,-3.056,-3.2362,-3.4503,-3.7203,-3.7732,-3.8362,0.0,0.0,-4.2085,-4.3585,-4.2508,-4.3085,-4.6624,-4.2893,-4.1678,-4.4718,-4.1986,-3.96,-3.8253,-4.0239,-4.0315,-3.8046,-3.9469,-3.9854,-3.9161,-3.9215,-3.9692,0.0,0.0,-4.2264,-4.3088,-4.2533,-4.3127,-4.4515,-4.4041,-4.4293,-4.5227,-4.7727,-4.9334,-5.0469,-5.3047,-5.4609,-5.5664,-5.7305,-5.8906,-5.9844,-5.7187,-5.6367,-5.582,-5.2226,-5.125,-5.1055,-4.9375,-4.9453,-4.9844,-4.8867,-4.9101,-4.9101,-4.6992,-4.7969,-4.8437,-4.457,0.0,-4.5039,-4.2617,0.0,-4.1797,-4.1172,0.0,0.0,0.0,0.0,0.0,-4.1562,-4.1758,-4.2461,-4.3984,-4.3476,-4.3281,-4.4062,-4.5625,-4.6914,-4.7695,-4.8476,-4.8906,-4.8906,-4.8984,-4.9062,-4.9062,-4.9141,-4.9531,-5.0312,-5.0351,-5.0703,-5.1406,-5.1406,-5.1797,-5.2578,-5.2656,-5.3594,-5.5156,-5.5273,-5.5781,-5.6601,-5.6601,-5.6601,-5.6601,-5.6601,-5.6601,-5.6797,-5.8437,-5.9101,-5.9414,-2.806,-2.9194,-3.0706,-3.1743,-3.3525,-3.5499,-3.7647,-3.9238,-4.0623,0.0,0.0,-4.3393,-4.5586,-4.4812,-4.5021,-4.7201,-4.5109,-4.4072,-4.4987,-4.3163,-4.1788,-4.1216,-4.2101,-4.214,-4.1162,-4.1809,-4.2033,-4.1686,-4.1724,-4.1917,0.0,-4.2767,-4.2934,-4.2834,-4.3034,-4.3533,-4.4247,-4.4405,-4.5234,-4.6641,-4.8242,-4.9687,-5.1133,-5.3203,-5.4844,-5.6211,-5.7461,-5.8359,-5.8633,-5.6562,-5.6172,-5.6094,-5.3086,-5.25,-5.2578,-5.0859,-5.0625,-5.0586,-4.9258,-4.9531,-4.9922,-4.8828,-4.9023,-4.8828,-4.6484,-4.5742,-4.5234,-4.4141,0.0,0.0,0.0,0.0,0.0,0.0,-4.1055,-4.082,0.0,0.0,-3.9766,-4.1992,0.0,0.0,-4.3555,-4.4375,-4.4922,-4.5312,-4.6133,-4.6641,-4.6641,-4.7617,-4.8164,-4.8164,-4.8633,-4.9062,-4.9453,-4.9961,-5.0351,-5.0703,-5.1172,-5.1601,-5.1953,-5.2461,-5.3086,-5.3867,-5.4844,-5.5508,-5.5898,-5.6406,-5.6601,-5.664,-5.7148,-5.7344,-5.7422,-5.8164,-5.9062,-6.0,-2.9863,-3.0776,-3.2033,-3.3089,-3.4702,-3.6584,-3.87,-4.0623,-4.22,-4.3278,-4.3431,-4.4509,-4.7278,-4.6926,-4.7366,-4.9528,-4.8087,-4.7031,-4.7049,-4.5531,-4.4291,-4.347,-4.3998,-4.3902,-4.3051,-4.349,-4.362,-4.3401,-4.3458,-4.3581,0.0,-4.3934,-4.3757,-4.3419,-4.3879,-4.418,-4.4453,-4.5078,-4.6211,-4.7695,-4.8828,-5.0391,-5.2266,-5.3789,-5.5273,-5.668,-5.7305,-5.7695,-5.7617,-5.5898,-5.5898,0.0,-5.3828,-5.3476,-5.3672,-5.1914,-5.1562,-5.1328,-4.9414,-4.9687,-5.0351,-4.9648,-4.918,-4.8594,-4.75,-4.6641,-4.5859,-4.5156,-4.4375,0.0,0.0,0.0,-4.1797,-4.1562,0.0,-4.0351,-3.9648,-3.8437,-3.8359,-4.0273,0.0,0.0,0.0,-4.3203,-4.3359,-4.3359,-4.4141,-4.4766,-4.5,-4.6211,-4.6992,-4.7226,-4.7851,-4.8281,-4.8555,-4.918,-4.9726,-5.0195,-5.0781,-5.1172,-5.1406,-5.207,-5.2617,-5.3125,-5.4375,-5.5195,-5.5703,-5.6328,-5.6601,-5.668,-5.7578,-5.8047,-5.8281,-5.8515,-5.9375,-6.043,-3.2763,-3.2186,-3.2417,-3.4617,-3.5929,-3.7815,-4.1162,-4.1739,-4.2393,-4.4047,-4.4239,-4.5547,-4.8933,-4.8715,-5.0622,-5.6361,-5.2454,-5.0779,-5.3315,-5.0273,-4.6929,-4.3705,-4.584,-4.5499,-4.222,-4.3778,-4.4236,-4.3397,-4.3531,-4.4045,-4.4862,-4.4938,-4.539,-4.6132,-4.5312,-4.543,-4.6211,-4.625,-4.6797,-4.7734,-4.9453,-5.168,-5.4023,0.0,-5.582,-5.6601,-5.664,0.0,0.0,-5.5898,-5.5898,0.0,0.0,0.0,-5.3672,-5.1914,-5.1992,-5.2109,-4.957,-5.0117,-5.0781,-4.8281,-4.8281,-4.8437,-4.6719,-4.7617,-4.8047,-4.5508,-4.6289,-4.668,-4.4141,-4.3672,-4.3359,-4.25,-4.2344,0.0,0.0,-3.8594,-3.8594,-3.8672,-3.9414,0.0,0.0,-4.1992,-4.2422,-4.2422,-4.3242,-4.4101,-4.4961,-4.5039,-4.5469,-4.6328,-4.6367,-4.6797,-4.7617,-4.7656,-4.8516,-5.0195,-5.0234,-5.0664,-5.1406,-5.1445,-5.2344,-5.3945,-5.4023,-5.5,-5.6562,-5.6601,-5.6601,-5.668,-5.7578,-5.8437,-5.9258,-6.0039,-6.0351,-6.0508,-3.4391,-3.4391,-3.4441,-3.523,-3.704,-3.9161,-4.147,-4.2739,-4.4278,-4.6509,-4.7409,-4.9314,-5.332,-5.3724,-5.4675,-5.7194,-5.5402,-5.4066,-5.3818,-5.1506,-4.9524,-4.8041,-4.8111,-4.7678,-4.6627,-4.6625,-4.6466,-4.6195,-4.566,-4.5523,-4.5835,-4.5852,-4.6016,-4.625,-4.5391,-4.5156,-4.543,-4.543,-4.5937,-4.6992,0.0,-5.2539,-5.4961,0.0,-5.6328,-5.6601,-5.6601,-5.6797,0.0,-5.6367,-5.5976,-5.5625,-5.5039,-5.4453,-5.3867,-5.3281,-5.3281,-5.3242,0.0,0.0,-5.2969,-4.9844,0.0,-4.9609,-4.6719,-4.7812,-4.8711,-4.625,-4.7031,-4.7461,-4.5,-4.4062,-4.3359,-4.2539,-4.2383,-4.1719,0.0,-3.8945,-3.8828,-3.9375,-4.0234,-4.0898,0.0,0.0,-4.0742,-4.0742,-4.1562,-4.2187,-4.2461,-4.4062,-4.5156,-4.543,-4.6016,-4.6445,-4.6758,-4.7305,-4.8203,-4.9336,-4.9922,-5.0625,-5.1406,-5.1406,-5.2031,-5.3164,-5.375,-5.4648,-5.5781,-5.6367,-5.6601,-5.6758,-5.8203,-5.8945,-5.9297,-6.0117,-6.0781,-6.1367,-3.6161,-3.6661,-3.6853,-3.6853,-3.87,-4.0739,-4.2431,-4.4427,-4.6446,-4.8392,-5.0046,-5.2432,-5.6123,-5.6725,-5.7417,-5.8808,-5.8265,-5.6837,-5.4513,-5.3801,-5.2601,-5.0703,-5.0594,-5.019,-4.9375,-4.9101,-4.8359,-4.7148,-4.7187,-4.6914,-4.6289,-4.6289,-4.6289,-4.6289,-4.5703,-4.5469,-4.5469,-4.5781,-4.625,-4.7031,0.0,-5.2422,0.0,0.0,-5.6055,-5.6523,0.0,-5.5664,-5.5664,-5.5664,-5.5312,-5.4883,-5.5195,-5.4687,-5.3984,-5.3945,-5.3867,-5.367,-5.3007,-5.3362,0.0,-5.086,-5.0641,0.0,-4.7457,-4.8587,-4.9478,-4.7003,-4.7545,-4.8043,-4.6532,-4.5294,-4.4219,-4.3398,-4.3047,-4.2187,0.0,-3.9414,-3.9258,-3.9844,-4.0391,-4.0742,-4.0742,-4.0508,-4.0234,-3.9922,-4.0703,-4.1445,-4.207,-4.3633,-4.4805,-4.543,-4.6016,-4.6289,-4.6289,-4.7148,-4.8047,-4.8906,-4.9766,-5.0625,-5.1406,-5.1406,-5.2031,-5.3203,-5.375,-5.4687,-5.582,-5.6367,-5.6797,-5.7187,-5.8633,-5.9375,-5.9726,-6.0547,-6.1406,-6.2226,-3.8123,-3.8854,-3.9508,-3.9546,-4.0854,-4.247,-4.4085,-4.6656,-4.8767,-4.9671,-5.2184,-5.4856,-5.7429,-5.7818,-5.8874,-6.1302,-6.0846,-5.9072,-5.5763,-5.7078,-5.6092,-5.1914,-5.3281,-5.2969,-5.0508,-5.1133,-4.9844,-4.6562,-4.8086,-4.8008,-4.6367,-4.6328,0.0,-4.6289,-4.6289,-4.6289,-4.6289,-4.7187,-4.7578,-4.7812,-5.0273,-5.1367,-5.1641,-5.3242,-5.4961,-5.625,-5.4609,-5.3984,-5.3984,-5.3984,-5.3984,-5.4141,-5.4961,-5.4687,-5.4023,-5.3906,-5.3906,-5.3522,-5.1756,-5.1847,-5.2252,-5.1348,-5.1106,0.0,0.0,0.0,-5.0547,-4.7914,-4.8083,-4.8669,-4.8516,-4.7228,-4.5858,-4.4959,-4.414,-4.2773,-4.0273,-3.9921,-3.9921,-3.9921,-3.9921,-3.996,-3.9961,-4.0664,-4.0781,-3.9961,-4.0664,-4.1836,0.0,-4.3633,-4.4492,-4.6172,-4.6289,-4.6289,-4.6289,-4.7148,-4.8047,-4.8906,-4.9766,-5.0625,-5.1406,-5.1406,-5.2344,-5.3984,-5.3984,-5.5,-5.6601,-5.664,-5.7148,-5.8008,-5.8906,-5.9765,-6.0625,-6.1445,-6.2305,-6.3008,-3.9623,-4.1085,-4.2316,-4.2893,-4.3355,-4.3855,-4.4372,-4.7122,-4.9975,-5.2263,-5.4763,-5.7357,-6.0172,-6.0505,-6.0817,-6.1582,-6.1397,-6.062,-5.9162,-5.8791,-5.7935,-5.6288,-5.6055,-5.5312,-5.4023,-5.293,-5.1601,-5.0078,-4.8633,-4.7695,-4.7266,-4.6601,0.0,-4.6289,0.0,-4.5937,-4.5391,-4.625,-4.6992,-4.7695,-4.9023,-5.0664,-5.2344,0.0,-5.3164,-5.4609,-5.4141,-5.3984,-5.3984,-5.3984,-5.3984,-5.4023,-5.4258,-5.4609,-5.4961,-5.4922,-5.5241,-5.5487,-5.4996,-5.4836,-5.4468,-5.3003,-5.2661,-5.2221,0.0,0.0,0.0,0.0,0.0,0.0,-4.8943,-4.7542,-4.6303,-4.495,-4.348,-4.2064,-4.0733,-4.0577,-4.0577,-4.0577,-4.0577,-4.0656,-4.0859,-4.0469,-4.0156,-3.9922,-4.0117,-4.0703,-4.1797,0.0,-4.4219,-4.5312,-4.5976,-4.6289,-4.6289,-4.7148,-4.8047,-4.8906,-4.9766,-5.0625,-5.1406,-5.1406,-5.2344,-5.3984,-5.3984,-5.5,-5.664,-5.7305,-5.7695,-5.8047,-5.9531,-6.1015,-6.2344,-6.2578,-6.2812,-6.3203,-4.0893,-4.2431,-4.3778,-4.4201,-4.5582,-4.6639,-4.6733,-4.8333,-5.0692,-5.3845,-5.6115,-5.8192,-6.0272,-6.114,-6.1601,-6.168,-6.164,-6.1094,-5.9961,-6.0036,-5.962,-5.8515,-5.8359,-5.75,-5.5898,-5.4531,-5.2695,-5.0312,-4.8867,-4.7773,-4.7031,0.0,0.0,0.0,0.0,-4.6016,-4.5586,-4.6094,-4.6562,-4.7109,-4.7969,-4.9414,0.0,-5.0937,-5.1719,-5.2851,-5.2851,-5.2851,-5.2851,-5.2851,-5.2851,-5.293,-5.332,-5.3789,-5.4297,-5.5,-5.5405,-5.5721,-5.6001,-5.5895,-5.5472,-5.4507,-5.4276,-5.3832,-5.2176,-5.2895,-5.3417,0.0,-5.1433,-5.1105,0.0,-4.8086,-4.6511,-4.4953,-4.3578,-4.2521,-4.2005,-4.1928,-4.1811,-4.1396,-4.1358,-4.1267,-4.1045,-4.0645,-4.0234,-3.9922,-4.0234,0.0,0.0,0.0,-4.4258,-4.5547,-4.6406,-4.668,-4.6289,-4.793,-4.8789,-4.8906,-5.0156,-5.0976,-5.1406,-5.1797,-5.2695,-5.4023,-5.4414,-5.5351,-5.668,-5.7539,-5.8125,-5.8633,-6.0312,-6.1797,-6.3047,-6.3437,-6.3828,-6.4297,-4.2162,-4.3431,-4.4509,-4.4509,-4.7349,-4.9753,-5.01,-5.0516,-5.194,-5.5049,-5.7065,-5.852,-5.9456,-6.0809,-6.167,-6.1718,-6.1719,-6.1094,-5.9609,-6.0898,-6.1055,-5.9609,-6.0078,-5.9258,-5.6836,-5.5703,-5.3203,-4.9219,-4.8906,-4.7969,-4.6484,0.0,0.0,0.0,0.0,0.0,0.0,-4.6289,-4.6289,-4.6406,-4.7383,-4.8203,-4.9023,-5.0,-5.0781,-5.1406,-5.1406,-5.1406,-5.1406,-5.1406,-5.1406,-5.1523,-5.2305,-5.2617,-5.3008,-5.4492,-5.4922,-5.5059,-5.5724,-5.578,-5.5703,-5.5703,-5.5703,-5.5318,-5.3853,-5.3524,-5.3332,-5.2521,-5.1173,-5.0214,-5.0759,-4.8739,-4.6467,-4.4876,-4.4008,-4.347,-4.3355,-4.3355,-4.3063,-4.2325,-4.2248,0.0,-4.1024,-4.0981,-4.0701,-4.0078,-4.0742,0.0,0.0,0.0,-4.4453,-4.6094,-4.6992,-4.7187,-4.6641,-4.8906,-4.9766,-4.9258,-5.0703,-5.1406,-5.1445,-5.2305,-5.3164,-5.4062,-5.4922,-5.5859,-5.6836,-5.7695,-5.8633,-5.9687,-6.125,-6.2383,-6.3281,-6.414,-6.5039,-6.5781,-4.3871,-4.4833,-4.5565,-4.5565,-4.7966,-5.0619,-5.2756,-5.4815,-5.6457,-5.7301,-5.9309,-6.0815,-6.1217,-6.1421,-6.1575,-6.1677,-6.1719,-6.1562,-6.1289,-6.1523,-6.1562,-6.1289,-6.0703,-5.9531,-5.7695,-5.539,-5.3164,-5.0976,-4.8867,-4.7656,-4.7344,-4.6641,-4.6289,0.0,0.0,0.0,-4.6289,-4.6289,0.0,-4.6445,-4.8047,-4.875,-4.9062,-5.0625,-5.1289,-5.1406,-5.1406,-5.1406,-5.1406,-5.1406,-5.1406,-5.1445,-5.1562,-5.2109,-5.2851,-5.3789,-5.4453,-5.5059,-5.5724,-5.578,-5.5703,-5.5703,-5.5703,-5.5626,-5.5318,-5.528,-5.522,-5.5066,-5.4276,-5.32,-5.1914,0.0,-4.6355,-4.4641,-4.4239,-4.3893,-4.3239,-4.3162,-4.3085,-4.2948,-4.2909,-4.264,-4.1863,-4.1228,-4.0842,-4.082,-4.0937,0.0,0.0,0.0,-4.418,0.0,-4.6055,0.0,0.0,0.0,-4.9766,-5.0976,-5.125,-5.1406,-5.1445,-5.2305,-5.3164,-5.4062,-5.4922,-5.6211,-5.7734,-5.8594,-5.9883,-6.1367,-6.2383,-6.3281,-6.418,-6.5039,-6.5937,-6.6797,-4.4983,-4.5526,-4.6219,-4.7542,-5.01,-5.2833,-5.5436,-5.8024,-5.9407,-5.8671,-5.9075,-5.9666,-6.031,-6.1134,-6.1642,-6.1679,-6.1719,-6.1719,-6.1719,-6.1719,-6.1484,-6.1055,-6.0625,-5.9609,-5.793,-5.4883,-5.2891,-5.207,-4.8633,-4.7148,-4.7578,-4.6719,-4.6289,-4.6289,0.0,-4.6289,0.0,0.0,0.0,-4.6406,-4.7695,-4.8516,-4.9023,-5.0312,-5.1055,-5.1406,-5.1406,-5.1406,-5.1406,-5.1406,-5.1406,-5.1406,-5.1406,-5.168,-5.2187,-5.2891,-5.3654,-5.4388,-5.5094,-5.5472,-5.5703,-5.5703,-5.5703,-5.5703,-5.5703,-5.5703,-5.5703,-5.5703,-5.5066,-5.3836,-5.1684,-4.8856,0.0,0.0,-4.5547,-4.5009,-4.5047,-4.4662,-4.4239,-4.3778,-4.3355,-4.297,-4.2601,-4.1853,-4.1302,-4.1038,-4.1852,0.0,0.0,0.0,-4.457,0.0,0.0,0.0,-4.8203,0.0,-4.9961,-5.0781,-5.1211,-5.1406,-5.1445,-5.2773,-5.3594,-5.4101,-5.5898,-5.7109,-5.8008,-5.9297,-6.0547,-6.1797,-6.2656,-6.3515,-6.4414,-6.5273,-6.6445,-6.7617,-4.6767,-4.6985,-4.7696,-5.0061,-5.2794,-5.5358,-5.7422,-5.9981,-6.1211,-5.9883,-5.9022,-5.8841,-5.9646,-6.0898,-6.1719,-6.1719,-6.1719,-6.1719,-6.1719,-6.1523,-6.1133,-6.043,-6.0078,-5.914,-5.7656,-5.4375,-5.2539,-5.2187,-4.8398,-4.6836,-4.7305,-4.6601,-4.6289,0.0,0.0,0.0,0.0,0.0,-4.6406,-4.6641,-4.7539,-4.8398,-4.9258,-5.0117,-5.0859,-5.1406,-5.1406,-5.1406,-5.1445,-5.1601,-5.1562,-5.1406,-5.1406,-5.1367,-5.1484,-5.2226,-5.2855,-5.3469,-5.4413,-5.5028,-5.5511,-5.5665,-5.5703,-5.5703,-5.5703,-5.5703,-5.5703,-5.5703,-5.5088,-5.3759,-5.1414,-4.9163,0.0,0.0,-4.6894,-4.624,-4.6586,-4.6201,-4.5547,-4.4662,-4.4008,-4.347,-4.3124,-4.2925,-4.2395,-4.131,-4.2525,0.0,-4.2695,0.0,0.0,0.0,0.0,-4.7578,-4.8164,0.0,-5.0195,-5.0742,-5.1367,-5.168,-5.1758,-5.3476,-5.4297,-5.4414,-5.6836,-5.8086,-5.8555,-6.0078,-6.1172,-6.207,-6.293,-6.3828,-6.4687,-6.5742,-6.7031,-6.8242,-5.0417,-5.0773,-5.1331,-5.3103,-5.5685,-5.7615,-5.7848,-6.0059,-6.164,-6.1484,-6.1366,-6.1365,-6.1445,-6.1601,-6.1719,-6.1719,-6.1719,-6.1719,-6.1719,-6.0976,-6.0508,-6.039,-5.8945,-5.7695,-5.6758,-5.4062,-5.1953,-5.043,-4.8437,-4.7109,-4.6406,-4.6328,-4.6289,0.0,0.0,0.0,0.0,-4.6289,-4.6758,-4.7539,-4.8437,-4.9297,-5.0156,-5.0976,-5.1328,-5.1406,-5.1406,-5.1406,-5.1523,-5.2305,-5.2031,-5.1406,-5.1406,-5.1328,-5.1367,-5.2109,-5.229,-5.2569,-5.4105,-5.4566,-5.4797,-5.5511,-5.5703,-5.5703,-5.5703,-5.5703,-5.5703,-5.5703,-5.5049,-5.3954,-5.2127,-5.0991,-4.9625,0.0,0.0,-4.7355,-4.5932,-4.6317,-4.6471,-4.5586,-4.5393,-4.4778,-4.3239,-4.4526,-4.4476,-4.2179,-4.2265,0.0,0.0,0.0,0.0,-4.4961,-4.5937,-4.7578,-4.9922,-4.9336,-5.0195,-5.2461,-5.2539,-5.2578,-5.2656,-5.4375,-5.5195,-5.5273,-5.7109,-5.875,-6.0234,-6.1172,-6.2109,-6.2969,-6.3828,-6.4726,-6.5664,-6.7344,-6.8047,-6.8437,-5.1947,-5.1632,-5.2275,0.0,0.0,0.0,0.0,-6.104,-6.1719,-6.1719,-6.1719,-6.1719,-6.1719,-6.1719,-6.1719,-6.1719,-6.1719,-6.1719,-6.1719,-6.0898,-6.0195,-5.9687,-5.8555,-5.75,-5.6601,-5.4531,-5.2891,-5.1719,-5.0,-4.8711,-4.7851,-4.7344,0.0,0.0,0.0,-4.6601,-4.707,-4.707,-4.7578,-4.8476,-4.9336,-4.9883,-5.0273,-5.1094,-5.1719,-5.2109,-5.1601,-5.201,-5.2796,-5.2641,-5.2356,-5.207,-5.207,-5.1953,-5.1792,-5.1541,-5.2152,-5.2993,-5.3551,-5.4454,-5.5318,-5.5626,-5.5703,-5.5703,-5.5703,-5.5703,-5.5703,-5.5703,-5.5049,-5.43,-5.3608,-5.1953,-5.051,-5.001,0.0,-4.7317,-4.7124,-4.6547,-4.5778,-4.4932,-4.4816,-4.4547,-4.3893,-4.4542,-4.4839,-4.4344,-4.4481,0.0,0.0,0.0,0.0,-4.5,0.0,-4.7305,-4.9414,-4.9062,-4.9922,-5.1914,-5.2461,-5.2695,-5.2773,-5.4492,-5.6172,-5.7695,-5.8906,-6.0078,-6.125,-6.2109,-6.2695,-6.3125,-6.4531,-6.5273,-6.582,-6.7578,-6.8515,-6.914,-5.4453,0.0,-5.4672,0.0,-5.7445,-5.75,-6.1133,-6.1719,-6.1719,-6.1719,-6.1719,-6.1719,-6.1719,-6.1719,-6.1719,-6.1719,-6.1719,-6.1601,-6.1328,-6.0508,-5.9687,-5.8867,-5.7969,-5.7226,-5.6601,-5.5156,-5.3945,-5.3086,-5.1367,-5.0,-4.8867,0.0,0.0,0.0,-4.707,-4.7422,-4.7969,-4.7969,-4.8633,-4.9687,-5.0312,-5.0703,-5.1016,-5.1562,-5.198,-5.22,-5.1837,-5.243,-5.3358,-5.322,-5.3165,-5.3046,-5.2578,-5.235,-5.2076,-5.1151,-5.1896,-5.2993,-5.3166,-5.4262,-5.5395,-5.5626,-5.5703,-5.5703,-5.5703,-5.5703,-5.5626,-5.5395,-5.5088,-5.4703,-5.4203,-5.2664,-5.1471,-5.1548,0.0,-4.7663,-4.774,-4.674,-4.5663,-4.4778,-4.4662,-4.4586,-4.4316,-4.4658,-4.5025,-4.5402,0.0,0.0,0.0,0.0,0.0,0.0,0.0,0.0,-4.8906,-4.9141,-5.0117,-5.1797,-5.2656,-5.3359,-5.3906,-5.5664,-5.7578,-5.957,-6.0156,-6.0898,-6.1758,-6.2656,-6.3164,-6.3515,-6.5039,-6.5742,-6.6172,-6.793,-6.8984,-6.9648,-5.8789,-5.9101,-5.9648,-6.1367,-6.164,-6.164,-6.168,-6.1719,-6.1719,-6.1719,-6.1719,-6.1719,-6.1719,-6.1719,-6.1719,-6.1719,-6.1719,-6.1328,-6.0469,-5.9648,-5.8828,-5.7969,-5.707,-5.6601,-5.6601,-5.5742,-5.4844,-5.3984,-5.2226,-5.0547,-4.8867,0.0,-4.8047,-4.8867,-4.8867,-4.8867,-4.8867,-4.8867,-4.9844,-5.1367,-5.1367,-5.1914,-5.2656,-5.2695,-5.206,-5.1357,-5.22,-5.242,-5.2574,-5.4304,-5.4759,-5.4413,-5.2794,-5.2182,-5.1953,-5.1145,-5.1376,-5.2107,-5.2969,-5.3853,-5.472,-5.5511,-5.5703,-5.5703,-5.5703,-5.5703,-5.5472,-5.4685,-5.5147,-5.5164,-5.351,-5.3203,-5.2626,-5.0971,0.0,0.0,-4.7163,-4.6894,-4.6547,-4.5701,-4.5586,-4.524,-4.4393,-4.5218,-4.5411,-4.4581,0.0,0.0,0.0,0.0,0.0,-4.625,-4.7148,0.0,-4.8906,-4.9766,-5.1016,-5.2695,-5.3555,-5.4883,-5.6601,-5.8359,-5.9609,-6.039,-6.039,-6.0898,-6.1758,-6.2656,-6.3515,-6.4375,-6.5273,-6.6133,-6.7109,-6.8828,-6.9492,-6.9726,-5.9101,-6.0117,-6.1055,-6.1601,-6.1719,-6.1719,-6.1719,-6.1719,-6.1719,-6.1719,-6.1719,-6.1719,-6.1719,-6.1719,-6.1055,-5.9531,-6.0273,-6.0469,0.0,-5.8789,-5.8203,-5.789,-5.707,-5.6601,-5.6601,-5.6328,-5.5469,-5.3984,0.0,0.0,0.0,-5.1211,-5.0898,-5.0586,-5.0586,-5.0937,-5.1484,-5.1484,-5.2148,-5.3164,-5.3164,-5.3359,-5.3594,-5.3594,-5.368,-5.3818,-5.3507,-5.3995,-5.4746,-5.4783,-5.5028,-5.5182,-5.4122,-5.3356,-5.2685,-5.1819,-5.2146,-5.2858,-5.3123,-5.4237,-5.5395,-5.5626,-5.5703,-5.5703,-5.5703,-5.5703,-5.5626,-5.5357,-5.5511,-5.5549,-5.5011,-5.3972,-5.3049,-5.2472,-5.0202,0.0,-4.7778,-4.674,-4.5701,-4.4816,-4.524,-4.524,-4.4393,-4.5124,-4.5565,0.0,0.0,0.0,0.0,0.0,0.0,0.0,-4.7461,0.0,-4.9766,-5.0625,-5.1562,-5.2734,-5.4805,-5.668,-5.8398,-5.9492,-6.0156,-6.043,-6.1015,-6.1445,-6.1797,-6.3281,-6.4062,-6.4453,-6.5898,-6.7031,-6.793,-6.9023,-6.9805,-7.0469,-5.9609,-6.0508,-6.1211,-6.1211,-6.1484,-6.1719,-6.1719,-6.1719,-6.1719,-6.1719,-6.1719,-6.1719,-6.1719,-6.1719,0.0,-5.9101,-5.9336,-5.9414,-5.8906,-5.8242,-5.7734,-5.7422,-5.6875,-5.6601,-5.6601,-5.6601,0.0,-5.4961,-5.4883,-5.4258,-5.3164,-5.2851,-5.2578,-5.2383,-5.2383,-5.2695,-5.3203,-5.3203,-5.3672,-5.4492,-5.4492,-5.4492,-5.4492,-5.4423,-5.4451,-5.4512,-5.4244,-5.4682,-5.5318,-5.5164,-5.5357,-5.5626,-5.5105,-5.4357,-5.3512,-5.2647,-5.3013,-5.3706,-5.3682,-5.4682,-5.5703,-5.5703,-5.5703,-5.5703,-5.5703,-5.5703,-5.5626,-5.5318,-5.5511,-5.5511,-5.4895,-5.3895,-5.3087,-5.2779,-5.0125,-4.8086,-4.8086,-4.6663,-4.5393,-4.4855,-4.5278,-4.5393,0.0,-4.5586,-4.5932,0.0,0.0,0.0,0.0,0.0,0.0,-4.8047,-4.8711,-4.9726,-5.1133,-5.1953,-5.2812,-5.3711,-5.6328,-5.8281,-5.9687,-6.0508,-6.0898,-6.0937,-6.1445,-6.1875,-6.2305,-6.3711,-6.4492,-6.4961,-6.6719,-6.7734,-6.8359,-6.9453,-7.0234,-7.082,-6.0078,-6.0312,-6.039,-6.039,-6.1133,-6.164,-6.1523,-6.164,-6.1719,-6.1719,-6.1719,-6.1719,-6.1719,-6.1719,-6.1172,-5.9883,0.0,0.0,-5.8203,-5.7969,-5.7461,-5.664,-5.6601,-5.6601,-5.6601,-5.6601,-5.6601,-5.6601,-5.4961,-5.418,-5.4141,-5.3359,-5.3398,-5.418,-5.418,-5.418,-5.418,-5.418,-5.4648,-5.539,-5.539,-5.539,-5.5386,-5.5249,-5.4597,-5.3883,-5.4535,-5.4682,-5.4703,-5.5434,-5.5703,-5.5703,-5.5703,-5.5182,-5.4413,-5.3532,-5.386,-5.4477,-5.4511,-5.5066,-5.5703,-5.5703,-5.5703,-5.5703,-5.5703,-5.5703,-5.5511,-5.4759,-5.5182,-5.5203,-5.3587,-5.3241,-5.2895,-5.1972,-4.974,-4.8086,-4.8009,-4.6624,-4.5586,-4.5586,0.0,0.0,-4.5586,-4.6394,-4.6586,0.0,0.0,0.0,0.0,0.0,-4.8201,-4.8945,-5.0625,-5.1914,-5.2773,-5.3633,-5.4609,-5.5586,-5.8086,-5.9726,-6.0508,-6.1328,-6.1719,-6.1797,-6.1797,-6.2265,-6.3164,-6.4023,-6.4883,-6.5859,-6.7539,-6.8281,-6.8555,-7.0117,-7.0742,-7.0898,0.0,0.0,-6.039,-6.039,-6.1133,-6.1289,-6.0,-6.0898,-6.1719,-6.1719,-6.1719,-6.1719,-6.1719,-6.1719,-6.0547,-5.7656,-5.7969,-5.793,-5.707,-5.6953,-5.6836,-5.6601,-5.6601,-5.6601,-5.6601,-5.6601,-5.6601,-5.6601,-5.6172,-5.5976,-5.5976,-5.5781,-5.5781,-5.5976,-5.5976,-5.5976,-5.5976,-5.5976,-5.6094,-5.6289,-5.6289,-5.6289,-5.6289,-5.6146,-5.5869,-5.5615,-5.5591,-5.5511,-5.5434,-5.5626,-5.5703,-5.5703,-5.5703,-5.5588,-5.5241,-5.4434,-5.4357,-5.4511,-5.4489,-5.5066,-5.5703,-5.5703,-5.5703,-5.5703,-5.5703,-5.5703,-5.5665,-5.5472,-5.5588,-5.5395,-5.4395,-5.3664,-5.2702,-5.1241,-4.9356,-4.7894,-4.7278,-4.6278,-4.5586,0.0,-4.6201,-4.6317,-4.5663,-4.6394,-4.7086,0.0,0.0,-4.7699,-4.8673,-4.9737,-5.0169,-4.9765,-5.1445,-5.2812,-5.3672,-5.457,-5.6094,-5.8281,-5.9531,-6.0547,-6.1406,-6.1601,-6.207,-6.2695,-6.2695,-6.3203,-6.4062,-6.4922,-6.582,-6.6719,-6.7773,-6.8984,-7.0156,-7.0547,-7.1133,-7.1719,-5.7812,-5.8945,-5.9844,-5.9844,-6.0898,-6.1406,-6.0469,-5.9805,-5.9922,-6.1484,-6.1719,-6.1094,-5.9531,-5.9375,-5.9258,-5.8945,-5.8086,-5.7265,-5.664,-5.6601,-5.6601,-5.6601,-5.6601,-5.6601,-5.6601,-5.6601,-5.6601,-5.6601,-5.6601,-5.6601,-5.6601,-5.6601,-5.6601,-5.6601,-5.6601,-5.6601,-5.6601,-5.6601,-5.6601,-5.6601,-5.6549,-5.6505,-5.6466,-5.6271,-5.6132,-5.6032,-5.5857,-5.5742,-5.5703,-5.5703,-5.5703,-5.5703,-5.5703,-5.5703,-5.5626,-5.5182,-5.5028,-5.5028,-5.5028,-5.5395,-5.5703,-5.5703,-5.5703,-5.5703,-5.5703,-5.5703,-5.5703,-5.5703,-5.5703,-5.5434,-5.4664,-5.3472,-5.2202,-5.0894,-4.8933,-4.7394,-4.6971,-4.6163,-4.574,-4.6163,-4.6932,-4.7432,-4.7355,-4.8471,-4.9048,-4.874,-4.9394,0.0,-4.9528,-5.1644,-5.2331,-5.1171,-5.293,-5.4492,-5.5781,-5.664,-5.7969,-5.9765,-6.0195,-6.1055,-6.2305,-6.2305,-6.2773,-6.3594,-6.3594,-6.4101,-6.4922,-6.539,-6.6367,-6.7578,-6.8437,-6.957,-7.0742,-7.1133,-7.1601,-7.207,-5.7578,-5.8437,-5.9101,-5.918,-6.0586,-6.1719,-6.1719,-5.9258,-5.8398,-6.1328,-6.1719,-6.039,-5.6953,-5.707,-5.832,-6.0703,-5.8281,-5.6601,-5.6601,-5.6601,-5.6601,-5.6601,-5.6601,-5.6601,-5.6601,-5.6601,-5.6601,-5.6601,-5.6601,-5.6601,-5.6601,-5.6601,-5.6601,-5.6601,-5.6601,-5.6601,-5.6601,-5.6601,-5.6601,-5.6598,-5.6459,-5.6379,-5.6379,-5.6186,-5.6109,-5.6088,-5.6088,-5.6088,-5.6088,-5.6088,-5.6011,-5.5934,-5.6049,-5.5895,-5.5742,-5.6032,-5.6011,-5.5895,-5.5874,-5.5895,-5.5934,-5.6049,-5.5895,-5.5742,-5.5857,-5.5895,-5.5895,-5.5895,-5.5895,-5.5665,-5.4818,-5.3164,-5.1587,-5.0664,-4.8471,-4.6855,-4.674,0.0,-4.597,-4.6971,-4.7817,-4.8625,-4.951,-5.101,-5.1356,-5.0087,-5.1972,-5.2356,-5.0433,-5.3475,-5.4619,-5.3275,-5.4843,-5.6484,-5.8086,-5.8945,-5.9805,-6.0586,-6.0742,-6.164,-6.3203,-6.3203,-6.3672,-6.4492,-6.4492,-6.5,-6.582,-6.5937,-6.6953,-6.8476,-6.9336,-7.0195,-7.0976,-7.1719,-7.207,-7.2305,-5.6797,-5.7695,-5.8594,-5.9101,-6.0586,-6.1719,-6.1719,-6.125,-6.1094,-6.164,-6.1719,-6.039,-5.6953,-5.918,-5.9961,-5.7617,-5.6914,-5.6601,-5.6601,-5.6601,-5.6601,-5.6601,-5.6601,-5.6601,-5.6601,-5.6601,-5.6601,-5.6601,-5.6601,-5.6601,-5.6601,-5.6601,-5.6601,-5.6601,-5.6601,-5.6601,-5.6601,-5.6601,-5.6601,-5.6598,-5.6459,-5.6379,-5.6417,-5.6862,-5.6994,-5.7088,-5.7665,-5.7896,-5.7896,-5.7896,-5.7396,-5.6934,-5.7665,-5.6896,-5.5994,-5.7461,-5.7379,-5.6813,-5.6806,-5.6797,-5.6956,-5.7703,-5.678,-5.5895,-5.6609,-5.6819,-5.6797,-5.6797,-5.678,-5.6549,-5.5665,-5.3549,-5.1395,-4.9856,-4.8086,-4.6624,-4.5893,0.0,-4.6163,-4.774,-4.8663,-4.9548,-5.0394,-5.1356,-5.2125,-5.2587,-5.2972,-5.3664,-5.4664,-5.6053,-5.6764,-5.6619,-5.721,-5.7969,-5.8984,-5.9805,-6.0664,-6.1523,-6.2226,-6.3125,-6.4101,-6.4101,-6.457,-6.539,-6.539,-6.5898,-6.6758,-6.75,-6.8359,-6.9297,-7.0156,-7.1055,-7.1797,-7.1953,-7.2461,-7.3125,-5.668,-5.8008,-5.9219,-5.9219,-6.0586,-6.1719,-6.1719,-6.0156,-5.8945,-5.8945,-6.0547,-6.1094,-5.9531,-5.9101,-5.832,-5.6758,-5.6601,-5.6601,-5.6601,-5.6601,-5.6601,-5.6601,-5.6601,-5.6601,-5.6601,-5.6601,-5.6601,-5.6601,-5.6601,-5.6601,-5.6601,-5.6601,-5.6601,-5.6601,-5.6601,-5.6601,-5.664,-5.7109,-5.7221,-5.7159,-5.7513,-5.7621,-5.755,-5.7726,-5.7764,-5.7841,-5.8204,-5.8296,-5.8296,-5.8319,-5.805,-5.778,-5.8165,-5.7742,-5.7242,-5.8055,-5.8011,-5.7674,-5.7712,-5.772,-5.7802,-5.8204,-5.7703,-5.7203,-5.761,-5.7703,-5.7681,-5.7681,-5.7703,-5.7434,-5.6549,-5.4318,-5.251,-5.2202,-4.9202,-4.7086,-4.7586,-4.724,-4.7394,-4.8663,-5.0356,-5.1972,-5.328,-5.4164,-5.4818,-5.5203,-5.5665,-5.6088,-5.6357,-5.7341,-5.8199,-5.8789,-5.9078,-5.9453,-5.9844,-6.0664,-6.1523,-6.2422,-6.2812,-6.3711,-6.5,-6.5,-6.5469,-6.6289,-6.6289,-6.6797,-6.7617,-6.8047,-6.8945,-7.0156,-7.0547,-7.1211,-7.207,-7.2539,-7.2969,-7.3359,-5.7265,-5.8281,-5.9336,-5.9726,-6.0859,-6.1719,-6.1719,-5.8789,-5.6601,-5.6601,-5.957,-6.1719,-6.1719,-5.9375,-5.7461,-5.668,-5.6601,-5.6601,-5.6601,-5.7344,-5.7422,-5.664,-5.6601,-5.6601,-5.6601,-5.6601,-5.6601,-5.6601,-5.6601,-5.6601,-5.6601,-5.6601,-5.6601,-5.6601,-5.6601,-5.6673,-5.6899,-5.7562,-5.7854,-5.7891,-5.8451,-5.8583,-5.8511,-5.8572,-5.8572,-5.8611,-5.8819,-5.8873,-5.8873,-5.8896,-5.8742,-5.8627,-5.8819,-5.8627,-5.8373,-5.8765,-5.8873,-5.8889,-5.8873,-5.8742,-5.8627,-5.8819,-5.8588,-5.8357,-5.8534,-5.8588,-5.8566,-5.8566,-5.8588,-5.8357,-5.7703,-5.5511,-5.3933,-5.4434,0.0,-4.8471,-4.9548,-4.9125,-4.9163,-5.0433,-5.2318,-5.4241,-5.6126,-5.6896,-5.728,-5.728,-5.8088,-5.828,-5.7627,-5.8511,-5.9425,-6.0287,-6.0581,-6.0703,-6.0703,-6.1562,-6.2422,-6.3281,-6.3515,-6.4414,-6.5898,-6.5898,-6.6289,-6.6914,-6.7109,-6.7578,-6.8242,-6.8633,-6.9531,-7.0703,-7.0937,-7.1406,-7.2109,-7.2969,-7.3437,-7.3711,-5.8711,-5.7851,-5.7851,-6.0976,-6.1601,-6.1719,-6.1719,-5.8789,-5.6601,-5.6601,-5.957,-6.1719,-6.1719,-6.1484,-6.0039,-5.6875,-5.6601,-5.6601,-5.6601,-5.957,-5.9922,-5.6758,-5.6601,-5.6601,-5.6601,-5.6601,-5.6601,-5.6601,-5.6601,-5.6601,-5.6601,-5.6601,-5.6601,-5.6601,-5.6601,-5.6948,-5.7516,-5.7593,-5.8005,-5.8597,-5.8549,-5.8495,-5.8566,-5.9165,-5.9419,-5.9534,-6.0319,-6.0627,-6.0627,-6.0627,-6.0089,-5.955,-6.0358,-5.955,-5.8627,-6.0165,-6.0627,-6.0627,-6.0627,-6.0012,-5.9611,-6.0396,-5.9435,-5.8511,-5.9258,-5.9412,-5.9412,-5.9435,-5.9396,-5.9396,-5.9319,-5.7242,-5.528,-5.4626,0.0,0.0,-5.0702,-5.0548,-5.1395,-5.3857,-5.428,-5.5395,-5.7857,-5.8165,-5.8204,-5.8204,-5.8934,-5.9396,-5.9319,-6.0165,-6.0789,-6.1201,-6.1451,-6.1601,-6.1601,-6.2461,-6.3359,-6.4219,-6.5039,-6.5898,-6.6797,-6.6797,-6.6836,-6.6953,-6.7734,-6.8125,-6.832,-6.9883,-7.0586,-7.0781,-7.1601,-7.1953,-7.2109,-7.2969,-7.3828,-7.4492,-6.0195,-6.0234,-5.9492,-5.8672,-6.0273,-6.1719,-6.1719,-6.0586,-5.9765,-5.9765,-6.0898,-6.1719,-6.1719,-6.1719,-6.0312,-5.6914,-5.6601,-5.6601,-5.6601,-5.7812,-5.7969,-5.664,-5.6601,-5.6601,-5.6601,-5.6601,-5.6601,-5.6601,-5.6601,-5.6601,-5.6601,-5.6601,-5.6601,-5.6601,-5.7187,-5.7477,-5.7689,-5.875,-5.9254,-5.936,-5.987,-6.0012,-5.9935,-6.0204,-6.0319,-6.0358,-6.0666,-6.0781,-6.0781,-6.0781,-6.0589,-6.0358,-6.0704,-6.0358,-5.9973,-6.0589,-6.0781,-6.0781,-6.0781,-6.055,-6.0396,-6.0704,-6.0319,-5.9935,-6.0242,-6.0319,-6.0319,-6.0319,-6.0319,-6.0127,-5.9588,-5.8319,-5.7396,-5.7588,0.0,-5.378,-5.4511,-5.4126,-5.4164,-5.5126,-5.6203,-5.7434,-5.8896,-5.905,-5.9281,-5.9819,-6.0127,-6.0319,-6.0319,-6.0704,-6.1048,-6.1292,-6.1999,-6.2422,-6.25,-6.2812,-6.3711,-6.5117,-6.543,-6.6055,-6.6914,-6.6914,-6.6914,-6.6953,-6.7812,-6.8476,-6.9023,-7.0195,-7.1015,-7.1523,-7.1875,-7.2344,-7.289,-7.3789,-7.4648,-7.539,-5.9648,-6.0117,-5.9375,-5.6992,-5.8555,-6.0469,-6.1523,-6.1719,-6.1328,-6.0234,-6.0117,-6.0508,-6.1562,-6.1719,-6.0312,-5.6914,-5.6601,-5.6601,-5.6601,-5.6601,-5.6836,-5.7383,-5.6875,-5.6601,-5.6601,-5.6601,-5.6601,-5.6601,-5.6601,-5.6758,-5.6992,-5.6943,-5.7109,-5.7422,-5.7918,-5.8228,-5.8432,-5.9557,-6.0027,-6.0104,-6.0704,-6.0858,-6.0781,-6.0781,-6.0781,-6.0781,-6.0781,-6.0781,-6.0781,-6.0781,-6.0781,-6.0781,-6.0781,-6.0781,-6.0781,-6.0781,-6.0781,-6.0781,-6.0781,-6.0781,-6.0781,-6.0781,-6.0781,-6.0781,-6.0781,-6.0781,-6.0781,-6.0781,-6.0781,-6.0627,-6.0012,-5.9473,-5.9165,-5.9435,-5.7588,-5.6395,-5.728,-5.6896,-5.6626,-5.6857,-5.7934,-5.9011,-5.9819,-5.9896,-6.0165,-6.0742,-6.0781,-6.0781,-6.0781,-6.0896,-6.1127,-6.1612,-6.2274,-6.2969,-6.3646,-6.3747,-6.4414,-6.5586,-6.5898,-6.6328,-6.6914,-6.6914,-6.6914,-6.6953,-6.8125,-6.8906,-6.9492,-7.0625,-7.1445,-7.1992,-7.1992,-7.2539,-7.3398,-7.4297,-7.5156,-7.5898,-5.6601,-5.6601,-5.6601,-5.6601,-5.6601,-5.7734,-6.1133,-6.168,-6.0469,-5.7031,-5.6601,-5.789,-6.1289,-6.164,-6.0312,-5.6914,-5.664,-5.664,-5.6601,-5.6601,-5.7383,-5.9101,-5.7539,-5.6601,-5.6601,-5.6601,-5.6601,-5.6601,-5.6601,-5.7031,-5.789,-5.7699,-5.8187,-5.9179,-5.8858,-5.9204,-6.0008,-5.9803,-6.0142,-6.0781,-6.0781,-6.0781,-6.0781,-6.0781,-6.0781,-6.0781,-6.0781,-6.0781,-6.0781,-6.0781,-6.0781,-6.0781,-6.0781,-6.0781,-6.0781,-6.0781,-6.0781,-6.0781,-6.0781,-6.0781,-6.0781,-6.0781,-6.0781,-6.0781,-6.0781,-6.0781,-6.0781,-6.0781,-6.0781,-6.0781,-6.0781,-6.0781,-6.0512,-5.9665,-5.9511,-5.9242,-5.8434,-5.8319,-5.8627,-5.9435,-5.9511,-5.9858,-6.0704,-6.0781,-6.0781,-6.0781,-6.0781,-6.0781,-6.0781,-6.0819,-6.1281,-6.2281,-6.2336,-6.3216,-6.509,-6.5438,-6.5586,-6.5625,-6.6484,-6.6914,-6.6914,-6.6914,-6.6914,-6.6992,-6.875,-6.9453,-6.9531,-7.1289,-7.1992,-7.1992,-7.1992,-7.2539,-7.3398,-7.4297,-7.5156,-7.5898,-5.6601,-5.6601,-5.6601,-5.6601,-5.6601,-5.6953,-5.7969,-6.0156,-6.0469,-5.7031,-5.6601,-5.6992,-5.8008,-5.8125,-5.8672,-6.0078,-6.0195,-5.9687,-5.8515,-5.7851,-5.7734,-5.8281,-5.7187,-5.6953,-5.7773,-5.7773,-5.8008,-5.8437,-5.7812,-5.7607,-5.7746,-5.7657,-5.7734,-5.7993,-5.9102,-5.9692,-5.9842,-6.0388,-6.0666,-6.0781,-6.0781,-6.0781,-6.0781,-6.0781,-6.0781,-6.0781,-6.0781,-6.0781,-6.0781,-6.0781,-6.0781,-6.0781,-6.0781,-6.0781,-6.0781,-6.0781,-6.0781,-6.0781,-6.0781,-6.0781,-6.0781,-6.0781,-6.0781,-6.0781,-6.0781,-6.0781,-6.0781,-6.0781,-6.0781,-6.0781,-6.0781,-6.0781,-6.0704,-6.0435,-6.0396,-6.0319,-6.0089,-6.005,-6.0127,-6.0396,-6.0396,-6.0512,-6.0781,-6.0781,-6.0781,-6.0781,-6.0781,-6.0781,-6.0781,-6.1358,-6.1897,-6.2281,-6.3438,-6.4376,-6.5076,-6.5194,-6.558,-6.6165,-6.651,-6.668,-6.668,-6.6836,-6.7226,-6.7851,-6.8945,-6.9765,-7.039,-7.1523,-7.1992,-7.1992,-7.1992,-7.289,-7.4258,-7.4492,-7.5547,-7.6797,-5.6601,-5.6601,-5.6601,-5.6601,-5.6601,-5.6601,-5.6601,-5.9492,-6.0976,-5.8906,-5.7422,-5.6601,-5.6601,-5.6601,-5.7969,-6.1406,-6.1719,-6.1289,-6.0273,-5.9258,-5.8633,-5.8437,-5.7578,-5.7265,-5.7617,-5.7969,-5.8359,-5.8828,-5.8487,-5.8234,-5.8154,-5.8335,-5.8443,-5.8504,-5.9764,-6.0268,-6.0258,-6.0704,-6.0858,-6.0781,-6.0781,-6.0781,-6.0781,-6.0781,-6.0781,-6.0781,-6.0781,-6.0781,-6.0781,-6.0781,-6.0781,-6.0781,-6.0781,-6.0781,-6.0781,-6.0781,-6.105,-6.1243,-6.0896,-6.1281,-6.1704,-6.1396,-6.105,-6.0896,-6.1243,-6.132,-6.132,-6.132,-6.132,-6.1204,-6.0858,-6.0781,-6.0781,-6.0781,-6.0781,-6.0781,-6.0781,-6.0781,-6.0781,-6.0781,-6.0781,-6.0781,-6.0781,-6.0781,-6.0781,-6.0781,-6.1127,-6.132,-6.132,-6.2127,-6.2781,-6.3205,-6.4166,-6.4936,-6.5436,-6.5391,-6.5756,-6.6394,-6.6477,-6.6533,-6.6522,-6.6985,-6.7453,-6.8044,-6.9293,-7.0117,-7.0703,-7.1601,-7.1992,-7.1992,-7.1992,-7.3086,-7.4609,-7.4609,-7.5703,-7.7187,-5.6601,-5.6601,-5.6601,-5.6601,-5.6601,-5.6601,-5.6601,-5.9258,-6.125,-6.125,-5.8515,-5.6601,-5.6601,-5.6601,-5.7969,-6.1406,-6.1719,-6.1562,-6.125,-6.043,-5.9726,-5.9219,-5.8359,-5.7538,-5.6712,-5.7499,-5.8046,-5.8352,-5.8706,-5.8896,-5.8869,-5.9435,-5.9796,-5.9988,-6.055,-6.0858,-6.0973,-6.0858,-6.0781,-6.0781,-6.0781,-6.0781,-6.0781,-6.0781,-6.0781,-6.0781,-6.0781,-6.0781,-6.0781,-6.0781,-6.0781,-6.0781,-6.0781,-6.0781,-6.0781,-6.0781,-6.1396,-6.1935,-6.1127,-6.2089,-6.3128,-6.2397,-6.1589,-6.1243,-6.2012,-6.2204,-6.2204,-6.2204,-6.2204,-6.1935,-6.1166,-6.1012,-6.1012,-6.1012,-6.0973,-6.0935,-6.0935,-6.0858,-6.0781,-6.0781,-6.0781,-6.0781,-6.0781,-6.0858,-6.0935,-6.0935,-6.1704,-6.2204,-6.2204,-6.2974,-6.3782,-6.4589,-6.4666,-6.5089,-6.5897,-6.5897,-6.6051,-6.6384,-6.6384,-6.6394,-6.6489,-6.7253,-6.7704,-6.7913,-6.9712,-7.0502,-7.0662,-7.1601,-7.1953,-7.1953,-7.1992,-7.3008,-7.4492,-7.457,-7.5664,-7.7109,-5.6601,-5.6601,-5.6601,-5.6601,-5.6601,-5.6601,-5.6601,-5.7226,-5.7695,-5.7695,-5.707,-5.6601,-5.6601,-5.6601,-5.7969,-6.1406,-6.1719,-6.0547,-5.789,-5.875,-5.9336,-5.9219,-5.8359,-5.7763,-5.7473,-5.7752,-5.8187,-5.8751,-5.8852,-5.8796,-5.8594,-5.9358,-5.9681,-5.9627,-6.0435,-6.0819,-6.0819,-6.0819,-6.0781,-6.0781,-6.0781,-6.0781,-6.0781,-6.0781,-6.0781,-6.0781,-6.0781,-6.0781,-6.0781,-6.0781,-6.0781,-6.0781,-6.0781,-6.0781,-6.0781,-6.0781,-6.1396,-6.205,-6.1858,-6.2551,-6.3281,-6.3089,-6.2897,-6.2805,-6.3012,-6.3051,-6.3051,-6.3051,-6.3051,-6.2974,-6.2781,-6.2781,-6.2781,-6.2781,-6.2243,-6.182,-6.182,-6.1243,-6.0781,-6.0781,-6.0781,-6.0781,-6.0781,-6.1396,-6.182,-6.182,-6.2589,-6.3051,-6.3051,-6.3858,-6.4397,-6.4589,-6.5243,-6.5705,-6.5897,-6.5897,-6.5936,-6.6013,-6.609,-6.6511,-6.717,-6.7479,-6.8343,-6.9678,-7.0087,-7.0654,-7.1292,-7.1627,-7.1758,-7.1797,-7.1953,-7.2656,-7.3672,-7.4336,-7.5273,-7.6289,-5.6601,-5.6601,-5.6601,-5.6601,-5.6601,-5.6601,-5.6601,-5.6601,-5.7187,-5.8828,-5.9023,-5.8398,-5.6797,-5.6601,-5.7305,-5.9101,-6.0742,-6.0937,-5.914,-5.9883,-6.039,-6.039,-5.9521,-5.8954,-5.8902,-5.8474,-5.8234,-5.8203,-5.895,-5.905,-5.8556,-5.9665,-5.9973,-5.955,-6.0396,-6.0781,-6.0781,-6.0781,-6.0781,-6.0781,-6.0781,-6.0781,-6.0781,-6.0781,-6.0781,-6.0781,-6.0781,-6.0781,-6.0781,-6.0781,-6.0781,-6.0858,-6.1281,-6.1127,-6.0858,-6.1281,-6.2012,-6.2589,-6.2204,-6.3281,-6.4436,-6.4012,-6.4205,-6.4422,-6.4012,-6.3935,-6.3935,-6.3911,-6.3935,-6.3782,-6.3397,-6.332,-6.332,-6.332,-6.2935,-6.2666,-6.2666,-6.2281,-6.1973,-6.1973,-6.1973,-6.1973,-6.1973,-6.2397,-6.2666,-6.2666,-6.3435,-6.3935,-6.3935,-6.4743,-6.5205,-6.5205,-6.5667,-6.5897,-6.5897,-6.5897,-6.609,-6.6474,-6.6128,-6.6436,-6.7282,-6.7782,-6.8717,-7.0014,-7.0475,-7.0951,-7.1378,-7.1544,-7.1594,-7.1624,-7.1792,-7.2383,-7.3203,-7.3789,-7.4805,-7.6015,-5.6601,-5.6601,-5.6601,-5.6601,-5.6601,-5.6601,-5.6601,-5.6601,-5.7617,-6.0469,-6.1328,-6.0625,-5.7773,-5.7461,-5.7461,-5.7461,-6.0078,-6.1719,-6.1719,-6.1719,-6.1638,-6.146,-6.0622,-6.0181,-6.0127,-5.9319,-5.8472,-5.7599,-5.9051,-5.9419,-5.8688,-6.015,-6.0396,-5.9742,-6.0473,-6.0781,-6.0781,-6.0781,-6.0781,-6.0781,-6.0781,-6.0781,-6.0781,-6.0781,-6.0781,-6.0781,-6.0781,-6.0781,-6.0781,-6.0781,-6.0781,-6.0935,-6.1627,-6.1473,-6.1166,-6.1897,-6.2781,-6.3397,-6.2704,-6.4166,-6.5743,-6.5013,-6.5359,-6.5705,-6.4974,-6.4845,-6.482,-6.4834,-6.4795,-6.4589,-6.3897,-6.3743,-6.3743,-6.3743,-6.3628,-6.3512,-6.3512,-6.3397,-6.332,-6.332,-6.332,-6.332,-6.332,-6.3435,-6.3512,-6.3512,-6.432,-6.482,-6.482,-6.5513,-6.5897,-6.5897,-6.6013,-6.609,-6.609,-6.6244,-6.6667,-6.7321,-6.6667,-6.6744,-6.7552,-6.8282,-6.909,-6.9937,-7.0783,-7.1129,-7.1168,-7.1387,-7.1456,-7.1451,-7.1597,-7.2127,-7.2767,-7.3124,-7.4297,-7.5781,-5.6601,-5.6601,-5.6601,-5.6601,-5.6601,-5.6601,-5.6601,-5.6601,-5.6758,-5.7226,-5.9844,-6.1523,-6.1055,-6.1015,-6.1015,-6.1015,-6.1445,-6.1719,-6.1719,-6.1719,-6.1303,-6.0423,-6.0272,-6.0089,-5.9881,-5.9727,-5.921,-5.8351,-5.9265,-5.9565,-5.9396,-6.0358,-6.0742,-6.0627,-6.0742,-6.0781,-6.0781,-6.0781,-6.0781,-6.0781,-6.0781,-6.0781,-6.0781,-6.0781,-6.0781,-6.0781,-6.0781,-6.0781,-6.0781,-6.0781,-6.0781,-6.0819,-6.0935,-6.1396,-6.1935,-6.205,-6.3205,-6.4397,-6.4282,-6.5051,-6.5859,-6.5743,-6.582,-6.5859,-6.5743,-6.5705,-6.5705,-6.5705,-6.5705,-6.5705,-6.5551,-6.5551,-6.5551,-6.5551,-6.4936,-6.4436,-6.4436,-6.3782,-6.332,-6.332,-6.332,-6.332,-6.332,-6.3974,-6.4436,-6.4436,-6.5243,-6.5705,-6.5705,-6.582,-6.5897,-6.5897,-6.6551,-6.6936,-6.6936,-6.7705,-6.8129,-6.8244,-6.8129,-6.8513,-6.936,-6.9475,-6.9975,-7.0744,-7.086,-7.0937,-7.0975,-7.1168,-7.1222,-7.1249,-7.1463,-7.1591,-7.1817,-7.2723,-7.3789,-7.4883,-5.6601,-5.6601,-5.6601,-5.6601,-5.6601,-5.7226,-5.914,-5.9453,-5.9453,-5.9453,-5.9101,-5.957,-6.1484,-6.1719,-6.1719,-6.1719,-6.1719,-6.1719,-6.1719,-6.1642,-6.1391,-6.0958,-6.0742,-6.0589,-6.0496,-6.0419,-6.0165,-5.9781,-5.9665,-5.9588,-5.9511,-6.0396,-6.0781,-6.0781,-6.0781,-6.0781,-6.0781,-6.0781,-6.0781,-6.0781,-6.0781,-6.0781,-6.0781,-6.0781,-6.0781,-6.0781,-6.0781,-6.0781,-6.0781,-6.0781,-6.0781,-6.0896,-6.1381,-6.1805,-6.2166,-6.2627,-6.3628,-6.4589,-6.4589,-6.5243,-6.5897,-6.5897,-6.5897,-6.5897,-6.5897,-6.5897,-6.5897,-6.5897,-6.5897,-6.5897,-6.5897,-6.5897,-6.5897,-6.5897,-6.559,-6.532,-6.532,-6.4974,-6.4743,-6.4743,-6.4743,-6.4743,-6.4743,-6.5089,-6.532,-6.532,-6.609,-6.6359,-6.5897,-6.632,-6.6359,-6.5897,-6.6667,-6.709,-6.709,-6.7975,-6.8629,-6.9129,-6.9129,-6.9321,-6.9706,-6.9706,-7.0129,-7.0898,-7.0898,-7.0898,-7.0898,-7.1014,-7.1014,-7.1052,-7.1245,-7.1414,-7.163,-7.2617,-7.3281,-7.3867]}]]